[[{"header":{"parameterUnit":"m.s-1","parameterCategory":1,"la1":30.6,"la2":29.2853,"lo1":-89.7004,"lo2":-87.6739,"dx":0.0162,"dy":0.0183,"nx":112,"ny":82,"refTime":"2022-12-06T18:00:00:Z","depth":0,"parameterNumber":2,"parameterNumberName":"U-component_of_WINDS"},"data":[0.0,0.0,0.0,0.0,0.0,0.0,0.0,0.0,0.0,0.0,0.0,0.0,0.0,0.0,0.0,0.0,0.0,0.0,0.0,0.0,0.0,0.0,0.0,0.0,0.0,0.0,0.0,0.0,0.0,0.0,0.0,0.0,0.0,0.0,0.0,0.0,0.0,0.0,0.0,0.0,0.0,0.0,0.0,0.0,0.0,0.0,0.0,0.0,0.0,0.0,0.0,0.0,0.0,0.0,0.0,0.0,0.0,0.0,0.0,0.0,0.0,0.0,0.0,0.0,0.0,0.0,0.0,0.0,0.0,0.0,0.0,0.0,0.0,0.0,0.0,0.0,0.0,0.0,0.0,0.0,0.0,0.0,0.0,0.0,0.0,0.0,0.0,0.0,0.0,0.0,-0.6154,-0.6073,-0.5595,-0.5297,-0.5297,-0.538,-0.5645,-0.6182,0.0,0.0,0.0,0.0,0.0,0.0,0.0,0.0,0.0,0.0,0.0,0.0,0.0,0.0,0.0,0.0,0.0,0.0,0.0,0.0,0.0,0.0,0.0,0.0,0.0,0.0,0.0,0.0,0.0,0.0,0.0,0.0,0.0,0.0,0.0,0.0,0.0,0.0,0.0,0.0,0.0,0.0,0.0,0.0,0.0,0.0,0.0,0.0,0.0,0.0,0.0,0.0,0.0,0.0,0.0,0.0,0.0,0.0,0.0,0.0,0.0,0.0,0.0,0.0,0.0,0.0,0.0,0.0,0.0,0.0,0.0,0.0,0.0,0.0,0.0,0.0,0.0,0.0,0.0,0.0,0.0,0.0,0.0,0.0,0.0,0.0,0.0,0.0,0.0,0.0,0.0,0.0,0.0,0.0,0.0,0.0,0.0,0.0,0.0,0.0,0.0,0.0,0.0,0.0,-0.5996,-0.5489,-0.5352,-0.5297,-0.5297,-0.5782,-0.61,-0.6209,0.0,0.0,0.0,0.0,0.0,0.0,0.0,0.0,0.0,0.0,0.0,0.0,0.0,0.0,0.0,0.0,0.0,0.0,0.0,0.0,0.0,0.0,0.0,0.0,0.0,0.0,0.0,0.0,0.0,0.0,0.0,0.0,0.0,0.0,0.0,0.0,0.0,0.0,0.0,0.0,0.0,0.0,0.0,0.0,0.0,0.0,0.0,0.0,0.0,0.0,0.0,0.0,0.0,0.0,0.0,0.0,0.0,0.0,0.0,0.0,0.0,0.0,0.0,0.0,0.0,0.0,0.0,0.0,0.0,0.0,0.0,0.0,0.0,0.0,0.0,0.0,0.0,0.0,0.0,0.0,0.0,0.0,0.0,0.0,0.0,0.0,0.0,0.0,0.0,0.0,0.0,0.0,0.0,0.0,0.0,0.0,0.0,0.0,0.0,0.0,0.0,0.0,0.0,-0.5902,-0.5687,-0.549,-0.5894,-0.6112,-0.5953,-0.6551,-0.6719,-0.6241,-0.6892,0.0,0.0,0.0,0.0,0.0,0.0,0.0,0.0,0.0,0.0,0.0,0.0,0.0,0.0,0.0,0.0,0.0,0.0,0.0,0.0,0.0,0.0,0.0,0.0,0.0,0.0,0.0,0.0,0.0,0.0,0.0,0.0,0.0,0.0,0.0,0.0,0.0,0.0,0.0,0.0,0.0,0.0,0.0,0.0,0.0,0.0,0.0,0.0,0.0,0.0,0.0,0.0,0.0,0.0,0.0,0.0,0.0,0.0,0.0,0.0,0.0,0.0,0.0,0.0,0.0,0.0,0.0,0.0,0.0,0.0,0.0,0.0,0.0,0.0,0.0,0.0,0.0,0.0,0.0,0.0,0.0,0.0,0.0,0.0,0.0,0.0,0.0,0.0,0.0,0.0,0.0,0.0,0.0,0.0,0.0,0.0,0.0,0.0,0.0,0.0,0.0,0.0,-0.5421,-0.5492,-0.5644,-0.6274,-0.6568,-0.6388,-0.6926,-0.6989,-0.6321,-0.729,0.0,0.0,0.0,0.0,0.0,0.0,0.0,0.0,0.0,0.0,0.0,0.0,0.0,0.0,0.0,0.0,0.0,0.0,0.0,0.0,0.0,0.0,0.0,0.0,0.0,0.0,0.0,0.0,0.0,0.0,0.0,0.0,0.0,0.0,0.0,0.0,0.0,0.0,0.0,0.0,0.0,0.0,0.0,0.0,0.0,0.0,0.0,0.0,0.0,0.0,0.0,0.0,0.0,0.0,0.0,0.0,0.0,0.0,0.0,0.0,0.0,0.0,0.0,0.0,0.0,0.0,0.0,0.0,0.0,0.0,0.0,0.0,0.0,0.0,0.0,0.0,0.0,0.0,0.0,0.0,0.0,0.0,0.0,0.0,0.0,0.0,0.0,0.0,0.0,0.0,0.0,0.0,0.0,0.0,0.0,0.0,0.0,0.0,0.0,0.0,0.0,0.0,-0.5575,-0.5648,-0.5852,-0.594,-0.5975,-0.5932,-0.6323,-0.6554,-0.6478,-0.7384,0.0,0.0,0.0,0.0,0.0,0.0,0.0,0.0,0.0,0.0,0.0,0.0,0.0,0.0,0.0,0.0,0.0,0.0,0.0,0.0,0.0,0.0,0.0,0.0,0.0,0.0,0.0,0.0,0.0,0.0,0.0,0.0,0.0,0.0,0.0,0.0,0.0,0.0,0.0,0.0,0.0,0.0,0.0,0.0,0.0,0.0,0.0,0.0,0.0,0.0,0.0,0.0,0.0,0.0,0.0,0.0,0.0,0.0,0.0,0.0,0.0,0.0,0.0,0.0,0.0,0.0,0.0,0.0,0.0,0.0,0.0,0.0,0.0,0.0,0.0,0.0,0.0,0.0,0.0,0.0,0.0,0.0,0.0,0.0,0.0,0.0,0.0,0.0,0.0,0.0,0.0,0.0,0.0,0.0,0.0,0.0,0.0,0.0,0.0,0.0,0.0,0.0,-0.5721,-0.5851,-0.6073,-0.6585,-0.68,-0.6613,-0.7107,-0.7304,-0.702,0.0,0.0,0.0,0.0,0.0,0.0,0.0,0.0,0.0,0.0,0.0,0.0,0.0,0.0,0.0,0.0,0.0,0.0,0.0,0.0,0.0,0.0,0.0,0.0,0.0,0.0,0.0,0.0,0.0,0.0,0.0,0.0,0.0,0.0,0.0,0.0,0.0,0.0,0.0,0.0,0.0,0.0,0.0,0.0,0.0,0.0,0.0,0.0,0.0,0.0,0.0,0.0,0.0,0.0,0.0,0.0,0.0,0.0,0.0,0.0,0.0,0.0,0.0,0.0,0.0,0.0,0.0,0.0,0.0,0.0,0.0,0.0,0.0,0.0,0.0,0.0,0.0,0.0,0.0,0.0,0.0,0.0,0.0,0.0,0.0,0.0,0.0,0.0,0.0,0.0,0.0,0.0,0.0,0.0,0.0,0.0,0.0,0.0,0.0,0.0,0.0,0.0,-0.5748,-0.5921,-0.6129,-0.6347,-0.7173,-0.7574,-0.7265,-0.7848,-0.8068,-0.7736,0.0,0.0,0.0,0.0,0.0,0.0,0.0,0.0,0.0,0.0,0.0,0.0,0.0,0.0,0.0,0.0,0.0,0.0,0.0,0.0,0.0,0.0,0.0,0.0,0.0,0.0,0.0,0.0,0.0,0.0,0.0,0.0,0.0,0.0,0.0,0.0,0.0,0.0,0.0,0.0,0.0,0.0,0.0,0.0,0.0,0.0,0.0,0.0,0.0,0.0,0.0,0.0,0.0,0.0,0.0,0.0,0.0,0.0,0.0,0.0,0.0,0.0,0.0,0.0,0.0,0.0,0.0,0.0,0.0,0.0,0.0,0.0,0.0,0.0,0.0,0.0,0.0,0.0,0.0,0.0,0.0,0.0,0.0,0.0,0.0,0.0,0.0,0.0,0.0,0.0,0.0,0.0,0.0,0.0,0.0,0.0,0.0,0.0,0.0,0.0,0.0,0.0,-0.5958,-0.6201,-0.6493,-0.668,-0.7617,-0.8069,-0.7762,-0.8329,-0.8694,0.0,0.0,0.0,0.0,0.0,0.0,0.0,0.0,0.0,0.0,0.0,0.0,0.0,0.0,0.0,0.0,0.0,0.0,0.0,0.0,0.0,0.0,0.0,0.0,0.0,0.0,0.0,0.0,0.0,0.0,0.0,0.0,0.0,0.0,0.0,0.0,0.0,0.0,0.0,0.0,0.0,0.0,0.0,0.0,0.0,0.0,0.0,0.0,0.0,0.0,0.0,0.0,0.0,0.0,0.0,0.0,0.0,0.0,0.0,0.0,0.0,0.0,0.0,0.0,0.0,0.0,0.0,0.0,0.0,0.0,0.0,0.0,0.0,0.0,0.0,0.0,0.0,0.0,0.0,0.0,0.0,0.0,0.0,0.0,0.0,0.0,0.0,0.0,0.0,0.0,0.0,0.0,0.0,0.0,0.0,0.0,0.0,0.0,0.0,0.0,0.0,0.0,0.0,-0.6754,-0.7543,-0.8054,-0.7801,-0.8534,-0.8994,-0.8925,-0.8872,-0.8962,-0.9213,0.0,0.0,0.0,0.0,0.0,0.0,0.0,0.0,0.0,0.0,0.0,0.0,0.0,0.0,0.0,0.0,0.0,0.0,0.0,0.0,0.0,0.0,0.0,0.0,0.0,0.0,0.0,0.0,0.0,0.0,0.0,0.0,0.0,0.0,0.0,0.0,0.0,0.0,0.0,0.0,0.0,0.0,0.0,0.0,0.0,0.0,0.0,0.0,0.0,0.0,0.0,0.0,0.0,0.0,0.0,0.0,0.0,0.0,0.0,0.0,0.0,0.0,0.0,0.0,0.0,0.0,0.0,0.0,0.0,0.0,0.0,0.0,0.0,0.0,0.0,0.0,0.0,0.0,0.0,0.0,0.0,0.0,0.0,0.0,0.0,0.0,0.0,0.0,0.0,0.0,0.0,0.0,0.0,0.0,0.0,0.0,0.0,0.0,0.0,0.0,0.0,0.0,-0.7739,-0.8569,-0.9111,-0.8954,-0.9625,-1.0092,-1.0092,-1.0102,-1.0059,-0.9938,0.0,0.0,0.0,0.0,0.0,0.0,0.0,0.0,0.0,0.0,0.0,0.0,0.0,0.0,0.0,0.0,0.0,0.0,0.0,0.0,0.0,0.0,0.0,0.0,0.0,0.0,0.0,0.0,0.0,0.0,0.0,0.0,0.0,0.0,0.0,0.0,0.0,0.0,0.0,0.0,0.0,0.0,0.0,0.0,0.0,0.0,0.0,0.0,0.0,0.0,0.0,0.0,0.0,0.0,0.0,0.0,0.0,0.0,0.0,0.0,0.0,0.0,0.0,0.0,0.0,0.0,0.0,0.0,0.0,0.0,0.0,0.0,0.0,0.0,0.0,0.0,0.0,0.0,0.0,0.0,0.0,0.0,0.0,0.0,0.0,0.0,0.0,0.0,0.0,0.0,0.0,0.0,0.0,0.0,0.0,0.0,0.0,0.0,0.0,0.0,0.0,0.0,-0.8933,-0.9447,-0.9979,-1.0251,-1.0883,-1.1296,-1.1296,-1.1691,-1.1605,-1.0801,0.0,0.0,0.0,0.0,0.0,0.0,0.0,0.0,0.0,0.0,0.0,0.0,0.0,0.0,0.0,0.0,0.0,0.0,0.0,0.0,0.0,0.0,0.0,0.0,0.0,0.0,0.0,0.0,0.0,0.0,0.0,0.0,0.0,0.0,0.0,0.0,0.0,0.0,0.0,0.0,0.0,0.0,0.0,0.0,0.0,0.0,0.0,0.0,0.0,0.0,0.0,0.0,0.0,0.0,0.0,0.0,0.0,0.0,0.0,0.0,-0.9423,-0.8648,0.0,0.0,0.0,0.0,0.0,0.0,0.0,0.0,0.0,0.0,0.0,0.0,0.0,0.0,0.0,0.0,0.0,0.0,0.0,0.0,0.0,0.0,0.0,0.0,0.0,0.0,0.0,0.0,0.0,0.0,0.0,0.0,0.0,0.0,0.0,0.0,0.0,0.0,0.0,0.0,-1.027,-1.1117,-1.169,-1.1606,-1.2296,-1.2739,-1.2739,-1.2406,-1.2131,-1.1944,-1.1102,0.0,0.0,0.0,0.0,0.0,0.0,0.0,0.0,0.0,0.0,0.0,0.0,0.0,0.0,0.0,0.0,0.0,0.0,0.0,0.0,0.0,0.0,0.0,0.0,0.0,0.0,0.0,0.0,0.0,0.0,0.0,0.0,0.0,0.0,0.0,0.0,0.0,0.0,0.0,0.0,0.0,0.0,0.0,0.0,0.0,0.0,0.0,0.0,0.0,0.0,0.0,0.0,0.0,0.0,0.0,0.0,0.0,0.0,0.0,-1.0066,-0.9501,0.0,0.0,0.0,0.0,0.0,0.0,0.0,0.0,0.0,0.0,0.0,0.0,0.0,0.0,0.0,0.0,0.0,0.0,0.0,0.0,0.0,0.0,0.0,0.0,0.0,0.0,0.0,0.0,0.0,0.0,0.0,0.0,0.0,0.0,0.0,0.0,0.0,0.0,0.0,0.0,-1.0912,-1.1972,-1.2751,-1.2792,-1.3047,-1.3267,-1.3367,-1.2999,-1.2672,-1.2563,-1.1846,0.0,0.0,0.0,0.0,0.0,0.0,0.0,0.0,0.0,0.0,0.0,0.0,0.0,0.0,0.0,0.0,0.0,0.0,0.0,0.0,0.0,0.0,0.0,0.0,0.0,0.0,0.0,0.0,0.0,0.0,0.0,0.0,0.0,0.0,0.0,0.0,0.0,0.0,0.0,0.0,0.0,0.0,0.0,0.0,0.0,0.0,0.0,0.0,0.0,0.0,0.0,0.0,0.0,-1.1496,-1.1461,-1.151,-1.151,-1.1607,-1.1714,-1.1057,-1.0708,-1.0559,-1.0274,0.0,0.0,0.0,0.0,0.0,0.0,0.0,0.0,0.0,0.0,0.0,0.0,0.0,0.0,0.0,0.0,0.0,0.0,0.0,0.0,0.0,0.0,-0.9767,-1.0265,-1.0694,-1.0807,-1.0228,0.0,0.0,0.0,0.0,0.0,0.0,0.0,0.0,0.0,0.0,0.0,-1.1651,-1.2661,-1.3494,-1.38,-1.3661,-1.3614,-1.3813,-1.3607,-1.3307,-1.3038,-1.2652,-1.2012,0.0,0.0,0.0,0.0,0.0,0.0,0.0,0.0,0.0,0.0,0.0,0.0,0.0,0.0,0.0,0.0,0.0,0.0,0.0,0.0,0.0,0.0,0.0,0.0,0.0,0.0,0.0,0.0,0.0,0.0,0.0,0.0,-0.859,-0.8701,0.0,0.0,0.0,0.0,0.0,0.0,0.0,0.0,0.0,0.0,0.0,0.0,0.0,-1.1567,-1.1806,-1.1857,-1.2178,-1.2784,-1.2749,-1.2895,-1.3164,-1.3164,-1.3207,-1.3236,-1.312,0.0,-1.1257,-1.1219,0.0,0.0,0.0,0.0,0.0,0.0,0.0,0.0,0.0,0.0,0.0,0.0,0.0,0.0,0.0,0.0,0.0,0.0,0.0,0.0,0.0,0.0,-1.1027,-1.1397,-1.1621,-1.1747,-1.1631,-1.1015,-1.0472,-1.0472,-1.0472,-1.0559,0.0,0.0,0.0,0.0,0.0,0.0,-1.3494,-1.388,-1.4182,-1.4774,-1.48,-1.4794,-1.4834,-1.4516,-1.4222,-1.397,-1.3394,-1.2524,-1.1303,-1.0942,0.0,0.0,0.0,0.0,0.0,0.0,0.0,0.0,0.0,0.0,0.0,0.0,0.0,0.0,0.0,0.0,0.0,0.0,0.0,0.0,0.0,0.0,0.0,0.0,0.0,0.0,0.0,0.0,0.0,-0.8926,-0.9277,-0.946,-0.9775,-1.0117,0.0,0.0,0.0,0.0,0.0,0.0,0.0,0.0,0.0,-1.1882,-1.2204,-1.2621,-1.3126,-1.3126,-1.3367,-1.3828,-1.3828,-1.3901,-1.404,-1.404,-1.404,-1.404,-1.404,-1.3726,-1.3084,-1.2436,-1.1526,-1.0545,0.0,0.0,0.0,0.0,-0.7999,-0.7585,-0.8302,-0.8514,-0.8452,-0.8463,0.0,0.0,0.0,0.0,0.0,0.0,0.0,-1.0756,-1.1585,-1.166,-1.1631,-1.2167,-1.2479,-1.2625,-1.2625,-1.2445,-1.2144,-1.1637,-1.1114,-1.0978,-1.1633,-1.1683,0.0,0.0,0.0,-1.3112,-1.3593,-1.4209,-1.472,-1.4981,-1.5008,-1.5008,-1.5008,-1.4888,-1.4716,-1.4633,-1.4028,-1.3386,-1.2635,-1.1574,-1.0666,0.0,0.0,0.0,0.0,0.0,0.0,0.0,0.0,0.0,0.0,0.0,0.0,0.0,0.0,0.0,0.0,0.0,0.0,0.0,0.0,0.0,0.0,0.0,0.0,0.0,0.0,0.0,0.0,-0.9548,-0.9892,-1.0302,-1.0594,-1.0902,0.0,0.0,0.0,0.0,0.0,0.0,-1.2083,-1.2358,-1.2643,-1.2884,-1.3214,-1.3653,-1.4223,-1.4223,-1.4435,-1.4878,-1.4878,-1.4922,-1.4995,-1.4995,-1.4995,-1.4995,-1.4995,-1.4995,-1.4915,-1.3709,-1.2642,-1.1659,-1.0942,-0.9631,-0.816,-0.8054,-0.7608,-0.7129,-0.7841,-0.8035,-0.7967,-0.8006,-0.8107,-0.8102,-0.753,0.0,0.0,0.0,0.0,-1.0985,-1.1713,-1.1717,-1.1641,-1.2207,-1.2747,-1.3168,-1.3168,-1.3396,-1.342,-1.2742,-1.2158,-1.1934,-1.2644,-1.2843,0.0,-1.2669,-1.3422,-1.3926,-1.3837,-1.4565,-1.5149,-1.5223,-1.5184,-1.5184,-1.5184,-1.5184,-1.506,-1.4702,-1.4254,-1.3825,-1.3348,-1.2009,-1.1302,-1.1307,0.0,0.0,0.0,0.0,0.0,0.0,0.0,0.0,0.0,0.0,0.0,0.0,0.0,0.0,0.0,0.0,0.0,0.0,0.0,0.0,0.0,0.0,0.0,0.0,0.0,0.0,0.0,0.0,0.0,-1.0975,-1.107,0.0,0.0,0.0,0.0,-1.2884,-1.2936,-1.3067,-1.3382,-1.3704,-1.3894,-1.3909,-1.4262,-1.4553,-1.4849,-1.4856,-1.517,-1.584,-1.584,-1.5994,-1.6316,-1.6316,-1.6316,-1.6316,-1.6316,-1.6316,-1.622,-1.4959,-1.3825,-1.2811,-1.1613,-1.043,-0.9374,-0.9057,-0.8841,-0.8774,-0.9445,-0.9665,-0.9665,-0.9526,-0.9038,-0.8363,-0.769,-0.7682,0.0,0.0,-0.9342,-0.9755,-1.0575,-1.0921,-1.1059,-1.1059,-1.2054,-1.3025,-1.3025,-1.3331,-1.3604,-1.3535,-1.376,-1.3953,-1.4001,0.0,-1.3374,-1.4226,-1.3951,-1.401,-1.5173,-1.5318,-1.5478,-1.5711,-1.5738,-1.5738,-1.5738,-1.5738,-1.5228,-1.3957,-1.3821,-1.342,-1.2571,-1.2212,-1.1739,-1.1042,-1.0627,0.0,0.0,0.0,0.0,0.0,0.0,0.0,0.0,0.0,0.0,0.0,0.0,0.0,0.0,0.0,0.0,0.0,0.0,0.0,0.0,0.0,0.0,0.0,0.0,0.0,0.0,0.0,0.0,-1.1641,-1.2065,0.0,-1.2928,-1.317,-1.347,-1.3916,-1.399,-1.4092,-1.4406,-1.4499,-1.4794,-1.5218,-1.5343,-1.5548,-1.5855,-1.5862,-1.5979,-1.6206,-1.6206,-1.6265,-1.6411,-1.6411,-1.6411,-1.6411,-1.6411,-1.6411,-1.6375,-1.592,-1.5,-1.3778,-1.2672,-1.1594,-1.0569,-0.9947,-0.9694,-0.9627,-0.9502,-0.9497,-0.9414,-0.909,-0.8761,-0.8635,-0.8877,-0.9137,-0.9508,-1.0318,-1.0799,-1.1122,-1.1389,-1.1536,-1.16,-1.16,-1.1934,-1.2485,-1.3114,-1.3498,-1.3933,-1.4607,-1.4211,-1.3976,-1.4562,-1.4464,-1.4506,-1.5012,-1.4897,-1.4969,-1.5591,-1.5671,-1.5712,-1.5771,-1.5784,-1.5784,-1.5784,-1.5784,-1.5589,-1.51,-1.492,-1.44,-1.3369,-1.2899,-1.2162,-1.1098,-1.0774,-0.9798,0.0,0.0,0.0,0.0,0.0,0.0,0.0,0.0,0.0,0.0,0.0,0.0,0.0,0.0,0.0,0.0,0.0,0.0,0.0,0.0,0.0,0.0,0.0,0.0,0.0,-1.1643,-1.2043,-1.2441,-1.3009,-1.347,-1.3792,-1.4114,-1.4443,-1.4772,-1.4896,-1.5094,-1.5409,-1.5423,-1.5621,-1.6052,-1.6067,-1.6221,-1.6573,-1.6573,-1.6631,-1.6689,-1.6689,-1.6689,-1.6689,-1.6689,-1.6689,-1.6689,-1.6689,-1.6689,-1.6689,-1.6689,-1.6199,-1.5246,-1.3967,-1.3039,-1.2304,-1.1128,-1.0691,-1.0603,-0.9986,-0.9634,-0.9455,-0.9146,-0.8926,-0.8877,-0.9402,-0.9665,-0.9949,-1.0493,-1.0825,-1.1037,-1.1037,-1.1091,-1.1098,-1.1098,-1.138,-1.1958,-1.3111,-1.3732,-1.4463,-1.5622,-1.5045,-1.455,-1.5159,-1.5257,-1.5259,-1.5121,-1.5364,-1.5537,-1.5535,-1.5792,-1.6019,-1.6112,-1.6077,-1.6077,-1.6077,-1.5732,-1.5493,-1.5451,-1.4883,-1.4358,-1.3829,-1.3447,-1.2783,-1.1739,-1.0763,-0.9702,-0.8656,0.0,0.0,0.0,0.0,0.0,0.0,0.0,0.0,0.0,0.0,0.0,0.0,0.0,0.0,0.0,0.0,0.0,0.0,0.0,0.0,0.0,0.0,0.0,-1.1694,-1.216,-1.2797,-1.3448,-1.3821,-1.415,-1.4511,-1.4794,-1.5075,-1.5389,-1.5752,-1.6067,-1.6411,-1.6426,-1.6433,-1.6441,-1.6455,-1.6609,-1.6925,-1.6939,-1.7055,-1.7308,-1.7308,-1.7308,-1.7308,-1.7308,-1.7308,-1.7308,-1.7308,-1.7308,-1.7308,-1.7308,-1.7308,-1.7149,-1.5411,-1.4732,-1.4508,-1.2592,-1.1865,-1.1727,-1.101,-1.0413,-0.9948,-0.9948,-0.9579,-0.9159,-0.9159,-0.9116,-0.9125,-0.9125,-0.9246,-0.9429,-0.9429,-0.9559,-0.9694,-0.9694,-1.0466,-1.1639,-1.2995,-1.4048,-1.5122,-1.6447,-1.6246,-1.5804,-1.5804,-1.5804,-1.5562,-1.4802,-1.5351,0.0,-1.5105,-1.5804,-1.6393,-1.6623,-1.6657,-1.6657,-1.6657,-1.5632,-1.4912,-1.4764,-1.3695,-1.3323,-1.3824,-1.3788,-1.3497,-1.2939,-1.0679,-0.9391,-0.9223,0.0,0.0,0.0,0.0,0.0,0.0,0.0,0.0,0.0,0.0,0.0,0.0,0.0,0.0,0.0,0.0,0.0,0.0,0.0,0.0,0.0,-1.2723,-1.306,-1.2972,-1.3119,-1.347,-1.4166,-1.4692,-1.5065,-1.516,-1.5657,-1.6016,-1.6104,-1.6191,-1.6426,-1.6749,-1.6763,-1.6828,-1.7055,-1.7296,-1.7465,-1.7552,-1.7786,-1.7947,-1.8035,-1.8035,-1.8035,-1.8035,-1.8035,-1.8035,-1.8035,-1.8035,-1.8035,-1.8035,-1.8035,-1.8035,-1.7872,-1.6365,-1.5804,-1.5665,-1.4581,-1.3584,-1.2729,-1.2496,-1.1735,-1.0835,-1.0835,-1.0497,-1.0061,-1.0061,-0.9862,-0.9669,-0.9669,-0.9799,-0.9992,-0.9992,-1.0633,-1.1276,-1.1276,-1.2131,-1.326,-1.4397,-1.4873,-1.54,-1.6487,-1.6573,-1.6466,-1.6466,-1.6466,-1.6394,-1.6169,-1.6315,-1.6421,-1.6223,-1.6434,-1.6314,-1.5569,-1.5475,-1.5475,-1.5475,-1.5172,-1.5343,-1.6089,-1.569,-1.5114,-1.4467,-1.3499,-1.2484,-1.1346,-0.9795,-0.931,0.0,0.0,0.0,0.0,0.0,0.0,0.0,0.0,0.0,0.0,0.0,0.0,0.0,0.0,0.0,0.0,0.0,0.0,0.0,0.0,0.0,0.0,-1.3587,-1.415,-1.4282,-1.4304,-1.445,-1.4823,-1.5431,-1.5818,-1.5818,-1.6323,-1.6617,-1.6617,-1.6821,-1.7055,-1.7245,-1.7431,-1.7545,-1.7728,-1.7918,-1.8021,-1.8021,-1.8211,-1.8299,-1.8299,-1.8299,-1.8299,-1.8299,-1.8299,-1.8299,-1.8299,-1.8299,-1.8101,-1.7754,-1.7754,-1.7555,-1.7265,0.0,0.0,0.0,0.0,-1.5248,-1.4311,-1.4311,-1.3281,-1.1999,-1.1999,-1.1248,-1.0302,-1.0302,-1.0175,-1.0053,-1.0053,-1.0436,-1.0932,-1.0932,-1.1747,-1.2617,-1.2617,-1.3125,-1.397,-1.5267,-1.545,-1.5743,-1.7003,-1.7125,0.0,-1.7248,-1.6954,-1.659,-1.6195,-1.6478,-1.6636,-1.6414,-1.6655,-1.668,-1.617,-1.6079,-1.6079,-1.6079,-1.5661,0.0,0.0,0.0,-1.582,-1.5556,-1.4244,0.0,0.0,0.0,-0.996,-1.0508,-0.9369,0.0,0.0,-0.8348,-0.8418,0.0,0.0,0.0,0.0,0.0,0.0,0.0,0.0,0.0,0.0,0.0,0.0,0.0,0.0,0.0,0.0,-1.4397,-1.5082,-1.544,-1.557,-1.5577,-1.554,-1.606,-1.647,-1.647,-1.68,-1.7005,-1.7005,-1.753,-1.7874,-1.7874,-1.8145,0.0,0.0,0.0,-1.8357,-1.8357,-1.843,-1.8467,-1.8467,-1.8503,-1.8518,-1.8518,-1.8518,-1.8518,-1.8518,-1.8518,-1.8067,-1.7362,-1.7261,-1.6698,-1.6119,-1.7504,-1.8051,-1.8051,-1.7399,-1.675,-1.6135,-1.6135,0.0,0.0,-1.3448,-1.2216,-1.0776,-1.0776,-1.0741,-1.0706,-1.0706,-1.144,-1.2284,-1.2309,-1.3143,-1.4025,-1.4047,-1.4161,-1.4631,-1.6062,-1.6183,-1.6369,-1.7801,-1.7901,-1.7776,-1.7995,-1.7408,-1.6591,-1.5873,-1.6394,-1.6729,-1.6264,-1.6872,-1.7402,-1.7497,-1.7523,0.0,-1.7523,-1.6515,-1.6343,-1.7216,-1.6232,-1.5863,-1.6513,-1.5407,-1.4683,-1.4578,-1.2231,-1.1024,-1.1024,-0.9884,-0.928,-0.9177,-0.88,-0.9059,0.0,0.0,0.0,0.0,0.0,0.0,0.0,0.0,0.0,0.0,0.0,0.0,0.0,0.0,0.0,-1.4878,-1.517,-1.5491,-1.6104,-1.6455,-1.6529,-1.6265,-1.6573,-1.6807,-1.6807,-1.7289,-1.7633,-1.7633,-1.7991,-1.8211,-1.8211,-1.8269,-1.8299,-1.8299,-1.8555,-1.8694,-1.8694,-1.922,-1.9529,-1.9536,-1.974,0.0,-1.9811,-1.9811,-1.9811,-1.9811,-1.9811,-1.9757,-1.9535,-1.8773,-1.7892,-1.7028,-1.6504,-1.67,-1.7207,-1.7107,-1.7007,-1.695,-1.695,-1.6293,-1.5424,-1.5424,-1.4913,-1.4242,-1.4242,-1.4025,0.0,-1.3822,-1.411,-1.4461,-1.4715,-1.5635,-1.6557,-1.6836,-1.7607,-1.8347,-1.868,-1.8482,-1.8339,-1.8673,-1.8529,-1.8337,-1.8397,-1.805,-1.7762,-1.7904,-1.8013,-1.8129,-1.8016,-1.8154,-1.7915,-1.6956,-1.6913,-1.6913,-1.6907,-1.6472,-1.6705,-1.7769,-1.7206,-1.6446,-1.5556,-1.5242,-1.4702,-1.3824,-1.242,-1.172,-1.172,-1.1216,-1.0523,-0.9721,-0.9226,-0.9087,0.0,0.0,0.0,0.0,0.0,0.0,0.0,0.0,0.0,0.0,0.0,-1.2842,-1.382,0.0,-1.4491,-1.5267,-1.5833,-1.625,-1.6609,-1.7026,-1.7204,-1.6712,-1.704,-1.7333,-1.7333,-1.7772,-1.8057,-1.8057,-1.8364,-1.8547,-1.8547,-1.8855,-1.903,-1.903,-1.9345,-1.9513,-1.9513,-1.9835,-1.9996,-2.0003,-2.0164,-2.0183,-2.0183,-2.0183,-2.0183,-2.0183,-2.0183,-1.9957,-1.9511,-1.8623,-1.7958,-1.745,-1.6462,-1.6511,-1.7199,-1.7199,-1.7252,-1.7351,-1.7838,-1.7305,-1.6446,-1.6922,-1.638,-1.5577,-1.5577,-1.5451,-1.5286,-1.5286,-1.5813,-1.6381,-1.6576,-1.7444,-1.8318,-1.8521,-1.8844,-1.9188,-1.9353,-1.903,-1.876,-1.8857,-1.8705,-1.8537,-1.8684,-1.8577,-1.847,-1.849,-1.8594,-1.865,-1.8546,-1.8594,-1.8422,-1.7693,-1.7638,-1.7638,-1.7582,-1.7497,-1.7641,-1.8215,-1.7983,-1.7477,-1.6657,-1.6445,-1.6086,-1.5423,-1.4168,-1.3545,-1.3545,-1.2862,-1.2248,-1.1735,-1.1474,-1.0986,0.0,0.0,0.0,0.0,0.0,0.0,0.0,-1.1947,-1.2032,-1.3419,-1.3354,-1.3379,-1.4467,-1.4714,-1.4958,-1.5602,-1.6352,-1.6947,-1.7071,-1.7486,-1.7647,-1.7233,-1.7589,-1.7911,-1.7911,-1.8203,-1.8423,-1.8482,-1.8789,-1.9001,-1.9067,-1.9572,-1.9857,-1.9857,-2.0106,-2.0183,-2.0183,-2.0249,-2.0278,-2.0278,-2.0336,-2.0373,-2.0373,-2.0373,-2.0373,-2.0373,-2.0373,-1.9916,-1.9077,-1.8407,-1.8015,-1.7735,-1.6984,-1.7097,-1.7584,-1.7254,-1.7272,-1.7488,-1.8284,-1.7772,-1.6981,-1.7698,-1.7136,-1.6181,-1.6181,-1.6181,-1.6181,-1.6074,-1.6919,-1.7896,-1.7837,-1.8759,-1.9624,-1.9625,-1.9369,-1.9202,-1.9584,-1.8861,-1.8308,-1.8749,-1.8588,-1.8381,-1.8268,-1.8713,-1.8981,-1.8698,-1.8874,-1.8986,-1.8769,-1.893,-1.8986,-1.8769,-1.8713,-1.8637,-1.8577,-1.8577,-1.8551,-1.8497,-1.849,-1.8384,-1.8089,-1.7889,-1.7649,-1.7467,-1.618,-1.55,-1.55,-1.4556,-1.3933,-1.3727,-1.4038,-1.3386,-1.1048,-1.1261,-1.1555,-1.1813,-1.1861,-1.2076,0.0,-1.3295,-1.3455,-1.4216,-1.4503,-1.4768,-1.5214,-1.5529,-1.5958,-1.6601,-1.6829,-1.7101,-1.7625,-1.7772,-1.7896,-1.8116,-1.8203,-1.8247,-1.8247,-1.854,-1.8855,-1.9147,-1.9522,-1.9777,-2.0008,-2.0088,-2.0186,-2.0186,-2.0161,-2.0183,-2.0183,-2.0523,-2.0613,-2.0669,-2.0962,-2.1101,-2.1101,-2.1101,-2.1101,-2.1101,-2.1101,-2.058,-1.9713,-1.9598,-1.9066,-1.8294,-1.8236,-1.8236,-1.8115,-1.6845,-1.6782,-1.7433,-1.755,-1.7433,-1.7321,-1.7433,-1.7371,-1.7204,-1.7204,-1.7204,-1.7092,-1.659,-1.7495,-1.8628,-1.8357,-1.9401,-2.0567,-2.0551,-2.0108,-1.9885,-2.0444,-1.8751,-1.741,-1.8294,-1.8172,-1.7539,-1.6175,-1.806,-1.9588,-1.933,-1.9547,-1.9713,-1.9655,-1.9655,-1.9713,-1.9655,-1.9438,-1.9158,-1.8898,-1.8878,-1.8764,-1.851,-1.849,-1.8477,-1.8444,-1.841,-1.8377,-1.8343,-1.7128,-1.655,-1.6612,-1.5958,-1.5134,-1.427,-1.5704,-1.5254,-1.1919,-1.2292,-1.2716,-1.2848,-1.2777,-1.2884,-1.3848,-1.3827,-1.3853,-1.4809,-1.509,-1.5338,-1.5884,-1.5884,-1.6043,-1.6768,-1.684,-1.7028,-1.7683,-1.8145,-1.843,-1.8569,-1.8921,-1.9074,-1.8884,-1.9214,-1.9491,-1.9813,-1.9959,-2.0098,-2.0176,-2.0358,-2.0467,-2.0467,-2.0706,-2.0801,-2.0801,-2.094,-2.1006,-2.1006,-2.1145,-2.1211,-2.1211,-2.1211,-2.1211,-2.1211,-2.1211,-2.0974,-2.063,-2.063,-2.0392,-1.9975,-1.9455,-1.9223,-1.9016,-1.7277,-1.6904,-1.718,-1.718,-1.718,-1.7238,-1.7805,-1.7976,-1.7976,-1.7976,-1.7976,-1.7919,-1.769,-1.8446,-1.9346,-1.9233,-2.0074,-2.0978,-2.0995,-2.0673,-2.0378,-2.0658,-1.9319,-1.8098,-1.8085,-1.7864,-1.7343,-1.6273,-1.7097,-1.7864,-1.7753,-1.8874,-1.9461,-1.8571,-1.9397,-2.0097,-2.0097,-1.9989,-1.9883,-1.9752,-1.9688,-1.969,-1.9566,-1.9553,-1.9477,-1.9242,-1.913,-1.8937,-1.876,-1.8089,-1.7749,-1.7811,-1.7566,-1.7274,-1.6982,-1.7682,-1.7124,-1.3031,-1.3404,-1.3762,-1.3762,-1.3629,-1.3687,-1.4445,-1.4345,-1.4318,-1.5062,-1.5283,-1.5462,-1.5812,-1.5777,-1.5932,-1.6714,-1.6933,-1.7245,-1.796,-1.8489,-1.8855,-1.9038,-1.9477,-1.9793,-1.9681,-1.9806,-2.0025,-2.0347,-2.0314,-2.0358,-2.0446,-2.0728,-2.0859,-2.0859,-2.1086,-2.1211,-2.1211,-2.1211,-2.1211,-2.1211,-2.1211,-2.1211,-2.1211,-2.1211,-2.1211,-2.1211,-2.1211,-2.1211,-2.1211,-2.1211,-2.1211,-2.1146,-2.0457,-2.0162,-1.9989,-1.8344,-1.7584,-1.7402,-1.7402,-1.7402,-1.7519,-1.8156,-1.8389,-1.8389,-1.8389,-1.8389,-1.8389,-1.8156,-1.8926,-1.9758,-1.957,-2.0385,-2.1211,-2.1089,-2.073,-2.0493,-2.0658,-1.9325,-1.8046,-1.7787,-1.7402,-1.6826,-1.5865,-1.6391,-1.6626,-1.5865,-1.7513,-1.8571,-1.7741,-1.9094,-2.0162,-2.0162,-2.0162,-2.0213,-2.027,-2.027,-2.027,-2.027,-2.027,-2.0172,-1.9948,-1.9771,-1.9504,-1.9166,-1.8949,-1.8843,-1.8731,-1.8651,-1.8542,-1.8354,-1.8275,-1.7556,-1.4364,-1.446,-1.4482,-1.4482,-1.4443,-1.4538,-1.4812,-1.5133,-1.5238,-1.489,-1.5011,-1.508,-1.47,-1.5219,-1.593,-1.6615,-1.7312,-1.7987,-1.8672,-1.8774,-1.9023,-1.9713,-1.9808,-2.0003,-2.0618,-2.0343,-2.0307,-2.0684,-2.0706,-2.0845,-2.1167,-2.1189,-2.1196,-2.1196,-2.1203,-2.1211,-2.1211,-2.1211,-2.1211,-2.1211,-2.1211,-2.1211,-2.1211,-2.1211,-2.1211,-2.1211,-2.1211,-2.1211,-2.1211,-2.1211,-2.1211,-2.1211,-2.1153,-2.1153,-2.1039,-2.0046,-1.9158,-1.8331,-1.8331,-1.8331,-1.8389,-1.8389,-1.8389,-1.8389,-1.8389,-1.8389,-1.8267,-1.7624,-1.8571,-1.9635,-1.9016,-2.0019,-2.1146,-2.078,-2.027,-1.9982,-2.0551,-1.8267,-1.6343,-1.7214,-1.6691,-1.558,-1.4043,-1.6048,-1.6932,-1.4222,-1.5397,-1.6915,-1.7787,-1.9036,-1.9815,-1.9815,-1.9815,-1.9931,-2.027,-2.027,-2.027,-2.027,-2.027,-2.0328,-2.0314,-2.0256,-2.0141,-1.9788,-1.9788,-1.9622,-1.9339,-1.9052,-1.8267,-1.7032,-1.6779,-1.598,-1.471,-1.494,-1.505,-1.4838,-1.5109,-1.546,-1.552,-1.539,-1.5295,-1.5369,-1.5468,-1.554,-1.5658,-1.5852,-1.6358,-1.7262,-1.7407,-1.774,-1.8672,-1.9162,-1.9566,-1.9793,-2.0135,-2.0486,-2.0706,-2.0625,-2.0691,-2.102,-2.105,-2.1094,-2.1203,-2.1211,-2.1211,-2.1211,-2.1211,-2.1211,-2.1211,-2.1211,-2.1211,-2.1211,-2.1211,-2.1211,-2.1211,-2.1211,-2.1211,-2.1211,-2.1211,-2.1211,-2.1211,-2.1211,-2.1211,-2.1211,-2.1211,-2.1211,-2.1153,-2.0859,-2.0507,-2.009,-1.8855,-1.8389,-1.8389,-1.8389,-1.8389,-1.8389,-1.8389,-1.8389,-1.8325,-1.815,-1.8926,-1.9751,-1.9513,-2.0328,-2.1153,-2.1089,-2.0859,-2.0802,-2.0967,-1.9686,-1.8454,-1.8377,-1.7449,-1.6343,-1.5402,-1.5515,-1.5397,-1.4456,-1.4803,-1.586,-1.767,-1.8441,-1.9267,-2.0321,-2.0622,-2.0744,-2.0917,-2.0917,-2.0917,-2.0917,-2.0917,-2.0917,-2.0917,-2.0673,-2.0493,-2.0378,-1.9628,-1.8933,-1.8389,-1.7655,-1.6967,-1.6313,-1.6228,-1.5544,-1.4782,-1.4962,-1.5071,-1.4573,-1.4865,-1.5283,-1.5283,-1.5106,-1.4955,-1.491,-1.4981,-1.5016,-1.4972,-1.5432,-1.6082,-1.703,-1.7415,-1.7903,-1.8848,-1.9425,-1.9859,-1.9916,-2.0398,-2.0772,-2.0889,-2.0896,-2.0984,-2.1196,-2.1211,-2.1211,-2.1211,-2.1211,-2.1211,-2.1211,-2.1211,-2.1211,-2.1211,-2.1211,-2.1211,-2.1211,-2.1211,-2.1211,-2.1211,-2.1211,-2.1211,-2.1211,-2.1211,-2.1211,-2.1211,-2.1211,-2.1211,-2.1211,-2.1211,-2.1211,-2.1211,-2.1211,-2.1211,-2.1031,-1.9795,-1.939,-1.939,-1.939,-1.939,-1.939,-1.939,-1.939,-1.939,-1.939,-1.9802,-2.0277,-2.0277,-2.0744,-2.1211,-2.1211,-2.1211,-2.1211,-2.1211,-2.045,-1.9693,-1.9261,-1.8273,-1.7337,-1.6926,-1.6107,-1.5397,-1.5165,-1.4808,-1.5213,-1.6856,-1.7677,-1.85,-1.9601,-2.0321,-2.0744,-2.0859,-2.0967,-2.0974,-2.0859,-2.1089,-2.1146,-2.1024,-2.0902,-2.0551,-1.9903,-1.9094,-1.8156,-1.7091,-1.645,-1.5854,-1.5198,-1.5198,-1.4485,-1.4608,-1.4595,-1.4583,-1.3899,-1.3938,-1.4141,-1.4141,-1.4355,-1.4372,-1.3579,-1.3684,-1.3667,-1.3001,-1.41,-1.5332,-1.5945,-1.7342,-1.8525,-1.9236,-1.9625,-1.9894,-2.0146,-2.0482,-2.0867,-2.1181,-2.1211,-2.1211,-2.1211,-2.1211,-2.1211,-2.1211,-2.1211,-2.1211,-2.1211,-2.1211,-2.1211,-2.1211,-2.1211,-2.1211,-2.1211,-2.1211,-2.1211,-2.1211,-2.1211,-2.1211,-2.1211,-2.1211,-2.1211,-2.1211,-2.1211,-2.1211,-2.1211,-2.1211,-2.1211,-2.1211,-2.1211,-2.1211,-2.1211,-2.1211,-2.1211,-2.1211,-2.1211,-2.1211,-2.1211,-2.1211,-2.1211,-2.1211,-2.1211,-2.1211,-2.1211,-2.1211,-2.1211,-2.1211,-2.1211,-2.1211,-2.1211,-2.1211,-2.0515,-1.9873,-1.9873,-1.91,-1.8389,-1.8331,-1.7578,-1.6703,-1.6048,-1.5165,-1.4862,-1.5515,-1.6691,-1.7507,-1.7846,-1.8978,-1.9809,-2.0097,-2.0314,-2.0371,-2.0155,-2.068,-2.0852,-2.0544,-2.0788,-2.0148,-1.8325,-1.8267,-1.7331,-1.551,-1.5451,-1.4857,-1.3725,-1.3725,-1.308,-1.4939,-1.4515,-1.3974,-1.4008,-1.4223,-1.4477,-1.4477,-1.4272,-1.404,-1.3802,-1.3861,-1.3854,-1.3667,-1.4854,-1.6149,-1.6799,-1.7697,-1.8525,-1.9236,-1.9762,-2.0142,-2.0176,-2.0742,-2.1115,-2.1203,-2.1211,-2.1211,-2.1211,-2.1211,-2.1211,-2.1211,-2.1211,-2.1211,-2.1211,-2.1211,-2.1211,-2.1211,-2.1211,-2.1211,-2.1211,-2.1211,-2.1211,-2.1211,-2.1211,-2.1211,-2.1211,-2.1211,-2.1211,-2.1211,-2.1211,-2.1211,-2.1211,-2.1211,-2.1211,-2.1211,-2.1211,-2.1211,-2.1211,-2.1211,-2.1211,-2.1211,-2.1211,-2.1211,-2.1211,-2.1211,-2.1211,-2.1211,-2.1211,-2.1211,-2.1211,-2.1211,-2.1211,-2.1211,-2.1211,-2.1211,-2.1211,-2.1211,-2.1039,-2.0859,-2.0859,-1.9506,-1.8156,-1.7461,-1.6591,-1.5704,-1.5046,-1.4748,-1.4862,-1.5515,-1.6048,-1.6632,-1.7144,-1.7677,-1.7852,-1.7483,-1.7541,-1.7723,-1.815,-1.7846,-1.784,-1.8202,-1.7898,-1.7483,-1.7014,-1.6321,-1.5435,-1.448,-1.3784,-1.355,-1.3725,-1.3725,-1.4023,-1.4609,-1.4224,-1.3779,-1.3421,-1.359,-1.3832,-1.3832,-1.353,-1.3219,-1.3219,-1.3219,-1.3219,-1.3219,-1.4589,-1.587,-1.637,-1.7506,-1.8482,-1.8994,-1.974,-2.0183,-2.0183,-2.0808,-2.1211,-2.1211,-2.1211,-2.1211,-2.1211,-2.1211,-2.1211,-2.1211,-2.1211,-2.1211,-2.1211,-2.1211,-2.1211,-2.1211,-2.1211,-2.1211,-2.1211,-2.1211,-2.1211,-2.1211,-2.1211,-2.1211,-2.1211,-2.1211,-2.1211,-2.1211,-2.1211,-2.1211,-2.1211,-2.1211,-2.1211,-2.1211,-2.1211,-2.1211,-2.1211,-2.1211,-2.1211,-2.1211,-2.1211,-2.1211,-2.1211,-2.1211,-2.1211,-2.1211,-2.1211,-2.1211,-2.1211,-2.1211,-2.1211,-2.1211,-2.1211,-2.1211,-2.1211,-2.1211,-2.1211,-2.1211,-2.1211,-2.0328,-1.9448,-1.8926,-1.8052,-1.7173,-1.6391,-1.5924,-1.5639,-1.5585,-1.5758,-1.5989,-1.6332,-1.7044,-1.7337,-1.6979,-1.7032,-1.7091,-1.7032,-1.6968,-1.6844,-1.6791,-1.6603,-1.6309,-1.5902,-1.5074,-1.4247,-1.3476,-1.2955,-1.2779,-1.29,-1.3135,-1.3784,-1.3983,-1.3793,-1.3676,-1.2629,-1.2517,-1.2716,-1.2716,-1.2511,-1.2366,-1.2366,-1.2366,-1.2366,-1.2366,-1.3826,-1.5137,-1.5418,-1.7071,-1.8416,-1.8745,-1.9586,-2.0132,-2.0176,-2.0772,-2.1159,-2.1203,-2.1211,-2.1211,-2.1211,-2.1211,-2.1211,-2.1211,-2.1211,-2.1211,-2.1211,-2.1211,-2.1211,-2.1211,-2.1211,-2.1211,-2.1211,-2.1211,-2.1211,-2.1211,-2.1211,-2.1211,-2.1211,-2.1211,-2.1211,-2.1211,-2.1211,-2.1211,-2.1211,-2.1262,-2.1276,-2.1276,-2.132,-2.1342,-2.1342,-2.1342,-2.1342,-2.132,-2.124,-2.1211,-2.1211,-2.1211,-2.1211,-2.1211,-2.1211,-2.1211,-2.1211,-2.1211,-2.1211,-2.1211,-2.1211,-2.1211,-2.1211,-2.1211,-2.1211,-2.1211,-2.1211,-2.1096,-2.1046,-2.1089,-2.0275,-1.9412,-1.8673,-1.774,-1.6801,-1.5986,-1.5742,-1.5575,-1.5456,-1.6467,-1.7067,-1.7009,-1.7232,-1.7044,-1.6273,-1.668,-1.6562,-1.5849,-1.602,-1.5725,-1.4911,-1.4366,-1.3655,-1.284,-1.284,-1.2668,-1.2311,-1.296,-1.3665,-1.3852,-1.3341,-1.2824,-1.2277,-1.2186,-1.2218,-1.2218,-1.2186,-1.2159,-1.2159,-1.2159,-1.2159,-1.2159,-1.36,-1.4897,-1.5185,-1.6988,-1.8416,-1.8745,-1.9403,-1.9938,-2.0146,-2.0574,-2.0911,-2.1181,-2.1211,-2.1211,-2.1211,-2.1211,-2.1211,-2.1211,-2.1211,-2.1211,-2.1211,-2.1211,-2.1211,-2.1211,-2.1211,-2.1211,-2.1211,-2.1211,-2.1211,-2.1211,-2.1211,-2.1211,-2.1211,-2.1211,-2.1211,-2.1211,-2.1211,-2.1211,-2.124,-2.1503,-2.1613,-2.1642,-2.1913,-2.2015,-2.2015,-2.2015,-2.2015,-2.1928,-2.1386,-2.1211,-2.1211,-2.1211,-2.1211,-2.1211,-2.1211,-2.1211,-2.1211,-2.1211,-2.1211,-2.1211,-2.1211,-2.1211,-2.1211,-2.1211,-2.1211,-2.1211,-2.1211,-2.0565,-2.0123,-2.0416,-1.9686,-1.912,-1.9232,-1.8356,-1.7625,-1.7442,-1.6369,-1.5413,-1.4808,-1.4986,-1.4927,-1.4401,-1.4401,-1.457,-1.4922,-1.457,-1.451,-1.4803,-1.4391,-1.4097,-1.3923,-1.3803,-1.3684,-1.3504,-1.3504,-1.4038,-1.4981,-1.5854,-1.6856,-1.3852,-1.3223,-1.2576,-1.2211,-1.2094,-1.2094,-1.2094,-1.2002,-1.191,-1.191,-1.191,-1.191,-1.191,-1.3008,-1.4142,-1.4844,-1.6375,-1.7774,-1.8439,-1.9294,-1.9879,-2.0194,-2.0523,-2.0852,-2.1181,-2.1211,-2.1211,-2.1211,-2.1211,-2.1211,-2.1211,-2.1211,-2.1211,-2.1211,-2.1211,-2.1211,-2.1211,-2.1211,-2.1211,-2.1211,-2.1211,-2.1211,-2.1211,-2.1211,-2.1211,-2.1218,-2.1386,-2.1459,-2.1474,-2.165,-2.1715,-2.173,-2.1891,-2.195,-2.1972,-2.2125,-2.2184,-2.2184,-2.2184,-2.2184,-2.2132,-2.1818,-2.1715,-2.1715,-2.1715,-2.1715,-2.1715,-2.1715,-2.1715,-2.1715,-2.1715,-2.1715,-2.1715,-2.1715,-2.1715,-2.1715,-2.1715,-2.1715,-2.1715,-2.1715,-2.1363,-2.1104,-2.1246,-2.091,-2.0534,-2.0187,-1.9715,-1.9162,-1.868,-1.8034,-1.7041,-1.5653,-1.5476,-1.5354,-1.5054,-1.5054,-1.5049,-1.4978,-1.4678,-1.449,-1.4485,-1.4245,-1.4189,-1.4561,-1.4729,-1.5029,-1.5338,-1.588,-1.6233,-1.6339,-1.7114,-1.7876,-1.3739,-1.3137,-1.2533,-1.2029,-1.1943,-1.1932,-1.1878,-1.1677,-1.1532,-1.1483,-1.1472,-1.1472,-1.1472,-1.2314,-1.3366,-1.437,-1.5745,-1.7078,-1.8149,-1.9023,-1.9725,-2.0124,-2.0409,-2.0772,-2.1174,-2.1211,-2.1211,-2.1211,-2.1211,-2.1211,-2.1211,-2.1211,-2.1211,-2.1211,-2.1211,-2.1211,-2.1211,-2.1211,-2.1211,-2.1211,-2.1211,-2.1211,-2.1211,-2.1284,-2.1313,-2.1335,-2.1657,-2.1803,-2.1825,-2.2081,-2.2184,-2.2191,-2.225,-2.2279,-2.2286,-2.2359,-2.2381,-2.2381,-2.2381,-2.2381,-2.2381,-2.2381,-2.2293,-2.2184,-2.2184,-2.2184,-2.2184,-2.2184,-2.2184,-2.2184,-2.2184,-2.2184,-2.2184,-2.2184,-2.2184,-2.2184,-2.2184,-2.2184,-2.2184,-2.2184,-2.2184,-2.2206,-2.2264,-2.2279,-2.2052,-2.1369,-2.1133,-2.07,-1.9966,-1.9659,-1.8927,-1.727,-1.705,-1.6859,-1.6617,-1.6802,-1.6549,-1.5551,-1.5732,-1.554,-1.486,-1.4798,-1.5047,-1.5488,-1.6027,-1.6578,-1.7083,-1.8123,-1.8252,-1.7552,-1.8226,-1.8652,-1.3423,-1.2961,-1.2275,-1.1538,-1.137,-1.1311,-1.1133,-1.1063,-1.0988,-1.0737,-1.0694,-1.0694,-1.0694,-1.1733,-1.2868,-1.3918,-1.5343,-1.6779,-1.8112,-1.8635,-1.9213,-2.0073,-2.0212,-2.0523,-2.1152,-2.1211,-2.1211,-2.1211,-2.1211,-2.1211,-2.1211,-2.1211,-2.1211,-2.1211,-2.1211,-2.1211,-2.1211,-2.1211,-2.1211,-2.1211,-2.1211,-2.1211,-2.1218,-2.1518,-2.165,-2.1672,-2.2001,-2.214,-2.214,-2.2169,-2.2184,-2.2213,-2.2476,-2.2579,-2.2615,-2.2915,-2.3025,-2.3025,-2.3025,-2.3025,-2.3025,-2.3025,-2.2645,-2.2184,-2.2184,-2.2184,-2.2184,-2.2184,-2.2184,-2.2184,-2.2184,-2.2184,-2.2184,-2.2184,-2.2184,-2.2184,-2.2184,-2.2184,-2.2184,-2.2184,-2.2184,-2.2264,-2.2535,-2.2579,-2.262,-2.285,-2.209,-2.1525,-2.14,-2.0574,-1.9935,-1.9745,-1.9355,-1.8741,-1.776,-1.8557,-1.8257,-1.6312,-1.7095,-1.7151,-1.6188,-1.6126,-1.6126,-1.6188,-1.7151,-1.7632,-1.7693,-1.8802,-1.9277,-1.9191,-2.01,-2.0569,-1.279,-1.2283,-1.1688,-1.1392,-1.1198,-1.1106,-1.1004,-1.0875,-1.0751,-1.0613,-1.0597,-1.0597,-1.0597,-1.115,-1.2047,-1.3457,-1.4656,-1.5987,-1.7773,-1.846,-1.9147,-2.0066,-2.0183,-2.0438,-2.1145,-2.1211,-2.1211,-2.1211,-2.1211,-2.1211,-2.1211,-2.1211,-2.1211,-2.1211,-2.1211,-2.1211,-2.1211,-2.1211,-2.1211,-2.1211,-2.1408,-2.1503,-2.1511,-2.184,-2.1986,-2.2008,-2.2315,-2.2447,-2.2462,-2.2659,-2.274,-2.2747,-2.2871,-2.2915,-2.293,-2.3062,-2.3106,-2.3106,-2.3106,-2.3106,-2.3106,-2.3106,-2.2937,-2.274,-2.274,-2.274,-2.274,-2.274,-2.274,-2.274,-2.274,-2.274,-2.274,-2.274,-2.274,-2.274,-2.274,-2.274,-2.274,-2.274,-2.274,-2.2776,-2.2893,-2.2915,-2.2959,-2.3091,-2.2738,-2.2487,-2.2487,-2.2167,-2.1908,-2.1908,-2.0687,-1.9675,-1.9237,-1.955,-1.9494,-1.862,-1.8986,-1.8986,-1.862,-1.7989,-1.761,-1.761,-1.8041,-1.8539,-1.9174,-2.0244,-2.0957,-2.1324,-2.1697,-2.1786,-1.232,-1.186,-1.1305,-1.1305,-1.1165,-1.0966,-1.0896,-1.0702,-1.0474,-1.0399,-1.0383,-1.0383,-1.0383,-1.0676,-1.1449,-1.313,-1.4128,-1.5378,-1.7515,-1.8291,-1.9045,-2.0051,-2.0183,-2.0438,-2.1145,-2.1211,-2.1211,-2.1211,-2.1211,-2.1211,-2.1211,-2.1211,-2.1211,-2.1211,-2.1211,-2.1211,-2.1211,-2.1211,-2.1262,-2.1357,-2.1591,-2.1745,-2.1854,-2.2169,-2.2315,-2.233,-2.2637,-2.2762,-2.2784,-2.3018,-2.3106,-2.3106,-2.3106,-2.3106,-2.3106,-2.3106,-2.3106,-2.3106,-2.3106,-2.3106,-2.3106,-2.3106,-2.3106,-2.3106,-2.3106,-2.3106,-2.3106,-2.3106,-2.3106,-2.3106,-2.3106,-2.3106,-2.3106,-2.3106,-2.3106,-2.3106,-2.3106,-2.3106,-2.3106,-2.3106,-2.3106,-2.3106,-2.3106,-2.3106,-2.3106,-2.3106,-2.3106,-2.3106,-2.3106,-2.3106,-2.3106,-2.3106,-2.1846,-2.0899,-2.0589,-2.0836,-2.0709,-2.0144,-2.0399,-2.0399,-2.0144,-1.9374,-1.8984,-1.8984,-1.924,-1.982,-2.0526,-2.1538,-2.2311,-2.2762,-2.2762,-2.2659,-1.2192,-1.186,-1.1305,-1.1305,-1.1165,-1.0923,-1.0651,-1.046,-1.0229,-0.9976,-0.9889,-0.9889,-0.9889,-1.0281,-1.1161,-1.2934,-1.3838,-1.5139,-1.7486,-1.8101,-1.8789,-2.003,-2.0183,-2.0438,-2.1145,-2.1211,-2.1211,-2.1211,-2.1211,-2.1211,-2.1211,-2.1211,-2.1211,-2.1211,-2.1211,-2.1211,-2.1211,-2.1211,-2.1372,-2.1693,-2.1693,-2.1869,-2.2184,-2.2484,-2.2615,-2.2637,-2.2959,-2.3106,-2.3106,-2.3106,-2.3106,-2.3106,-2.3106,-2.3106,-2.3106,-2.3106,-2.3106,-2.3106,-2.3106,-2.3106,-2.3106,-2.3106,-2.3106,-2.3106,-2.3106,-2.3106,-2.3106,-2.3106,-2.3106,-2.3106,-2.3106,-2.3106,-2.3106,-2.3106,-2.3106,-2.3106,-2.3106,-2.3106,-2.3106,-2.3106,-2.3106,-2.3106,-2.3106,-2.3106,-2.3106,-2.3106,-2.3106,-2.3106,-2.3106,-2.3106,-2.3106,-2.3106,-2.3113,-2.2668,-2.167,-2.2487,-2.2223,-2.0202,-2.1032,-2.1159,-2.0144,-2.0075,-2.0081,-2.0081,-2.1032,-2.1544,-2.1607,-2.2606,-2.3106,-2.3106,-2.3106,-2.3098,-1.1106,-1.0982,-1.0823,-1.0823,-1.0686,-1.0492,-1.0417,-1.0213,-1.0013,-0.99,-0.9884,-0.9884,-0.9884,-1.027,-1.1099,-1.2626,-1.3666,-1.5021,-1.7182,-1.7955,-1.8782,-2.003,-2.057,-2.0984,-2.1189,-2.1211,-2.1211,-2.1211,-2.1211,-2.1211,-2.1211,-2.1211,-2.1211,-2.1211,-2.1211,-2.1211,-2.1211,-2.143,-2.1591,-2.1701,-2.2125,-2.2381,-2.2491,-2.2813,-2.2952,-2.2959,-2.3062,-2.3106,-2.3106,-2.3106,-2.3106,-2.3106,-2.3106,-2.3106,-2.3106,-2.3106,-2.3106,-2.3106,-2.3106,-2.3106,-2.3106,-2.3106,-2.3106,-2.3106,-2.3106,-2.3106,-2.3106,-2.3106,-2.3106,-2.3106,-2.3106,-2.3106,-2.3106,-2.3106,-2.3106,-2.3106,-2.3106,-2.3106,-2.3106,-2.3106,-2.3106,-2.3106,-2.3106,-2.3106,-2.3106,-2.3106,-2.3106,-2.3106,-2.3106,-2.3106,-2.3106,-2.3106,-2.3106,-2.2981,-2.2668,-2.2918,-2.2856,-2.216,-2.248,-2.248,-2.216,-2.1475,-2.1102,-2.1102,-2.0779,-2.0906,-2.1607,-2.1922,-2.2425,-2.3106,-2.3106,-2.3106,-1.0544,-1.0597,-1.0597,-1.0597,-1.0466,-1.0293,-1.0293,-1.01,-0.9884,-0.9884,-0.9884,-0.9949,-1.0046,-1.0335,-1.1057,-1.2384,-1.3571,-1.4936,-1.6834,-1.7768,-1.8782,-2.003,-2.0808,-2.1211,-2.1211,-2.1211,-2.1211,-2.1211,-2.1211,-2.1325,-2.1546,-2.1325,-2.1439,-2.1888,-2.1432,-2.1211,-2.1211,-2.1533,-2.1869,-2.2223,-2.2502,-2.2933,-2.355,-2.3514,-2.3611,-2.386,-2.3611,-2.3487,0.0,-2.3168,-2.3106,-2.3106,-2.3106,-2.3106,-2.3106,-2.3106,-2.3106,-2.3106,-2.3106,-2.3106,-2.3106,-2.3106,-2.3106,-2.3106,-2.3106,-2.3106,-2.3106,-2.3106,-2.3106,-2.3106,-2.3106,-2.3106,-2.3106,-2.3106,-2.3106,-2.3106,-2.3106,-2.3106,-2.3106,-2.3106,-2.3106,-2.3106,-2.3106,-2.3106,-2.3106,-2.3106,-2.3106,-2.3106,-2.3106,-2.3106,-2.3106,-2.3106,-2.3106,-2.3106,-2.3106,-2.3106,-2.3106,-2.3106,-2.3106,-2.3106,-2.3106,-2.2487,-2.2174,-2.2174,-2.1531,-2.1531,-2.2174,-2.2174,-2.248,-2.3106,-2.3106,-2.3106,0.0,-1.0544,-1.0544,-1.0544,-1.0423,-1.0266,-1.0266,-1.0089,0.0,-0.9884,-0.9895,-1.0019,-1.025,-1.0492,-1.1016,-1.2196,-1.3504,-1.4884,-1.647,-1.7675,-1.8891,-2.0128,-2.0823,-2.1211,-2.1325,-2.1268,-2.1268,-2.1325,-2.1268,-2.1546,-2.2116,-2.1603,-2.1831,-2.2958,-2.1968,-2.1354,-2.1354,-2.1678,-2.2289,-2.319,-2.2923,-2.3619,-2.5111,-2.4487,-2.4487,-2.505,-2.4417,-2.417,-2.4046,-2.3425,-2.3168,-2.3106,-2.3106,-2.3106,-2.3106,-2.3106,-2.3106,-2.3106,-2.3106,-2.3106,-2.3106,-2.3106,-2.3106,-2.3106,-2.3106,-2.3106,-2.3106,-2.3106,-2.3106,-2.3106,-2.3106,-2.3106,-2.3106,-2.3106,-2.3106,-2.3106,-2.3106,-2.3106,-2.3106,-2.3106,-2.3106,-2.3106,-2.3106,-2.3106,-2.3106,-2.3106,-2.3106,-2.3106,-2.3106,-2.3106,-2.3106,-2.3106,-2.3106,-2.3106,-2.3106,-2.3106,-2.3106,-2.3106,-2.3106,-2.3106,-2.3106,-2.3106,-2.3106,-2.3106,-2.3106,-2.3106,-2.3106,-2.3106,-2.3106,-2.3106,-2.3106,-2.3106,-1.0008,0.0,-1.005,-1.005,-1.0051,-1.0008,0.0,-0.9965,-0.9884,-0.9884,-1.0073,-1.0223,-1.0283,-1.0627,-1.1249,-1.2225,-1.3665,-1.5166,-1.6504,-1.8481,-2.0143,-2.1146,-2.1244,-2.1546,-2.2505,-2.1717,-2.1603,-2.2505,-2.2173,-2.2173,-2.2732,-2.2675,-2.2732,-2.3014,-2.304,-2.3059,-2.3059,-2.3345,-2.374,-2.428,-2.4444,-2.4717,-2.5111,-2.4926,-2.4919,-2.5111,-2.4919,-2.4548,-2.4108,-2.3922,-2.3542,-2.3106,-2.3106,-2.3106,-2.3106,-2.3106,-2.3106,-2.3106,-2.3106,-2.3106,-2.3106,-2.3106,-2.3106,-2.3106,-2.3106,-2.3106,-2.3106,-2.3106,-2.3106,-2.3106,-2.3106,-2.3106,-2.3106,-2.3106,-2.3106,-2.3106,-2.3106,-2.3106,-2.3106,-2.3106,-2.3106,-2.3106,-2.3106,-2.3106,-2.3106,-2.3106,-2.3106,-2.3106,-2.3106,-2.3106,-2.3106,-2.3106,-2.3106,-2.3106,-2.3106,-2.3106,-2.3106,-2.3106,-2.3106,-2.3106,-2.3106,-2.3106,-2.3106,-2.3106,-2.3106,-2.3106,-2.3106,-2.3106,-2.3106,-2.3106,-2.3106,-2.3106,-0.9857,-0.9884,-0.9884,-0.9884,-0.9884,-0.9884,-0.9884,-1.0008,-1.0094,-1.0094,-1.0283,-1.0482,-1.0589,-1.1387,-1.2178,-1.2695,-1.4708,-1.6711,-1.808,-1.9386,-2.0464,-2.113,-2.1176,-2.1546,-2.2505,-2.2002,-2.2002,-2.2901,-2.2675,-2.2788,-2.3352,-2.3127,-2.3239,-2.3809,-2.3975,-2.3868,-2.358,-2.4031,-2.4559,-2.506,-2.512,-2.541,-2.6031,-2.5717,-2.5717,-2.597,-2.5357,-2.4919,-2.4487,-2.3922,-2.3425,-2.3106,-2.3106,-2.3106,-2.3106,-2.3106,-2.3106,-2.3106,-2.3106,-2.3106,-2.3106,-2.3106,-2.3106,-2.3106,-2.3106,-2.3106,-2.3106,-2.3106,-2.3106,-2.3106,-2.3106,-2.3106,-2.3106,-2.3106,-2.3106,-2.3106,-2.3106,-2.3106,-2.3106,-2.3106,-2.3106,-2.3106,-2.3106,-2.3106,-2.3106,-2.3106,-2.3106,-2.3106,-2.3106,-2.3106,-2.3106,-2.3106,-2.3106,-2.3106,-2.3106,-2.3106,-2.3106,-2.3106,-2.3106,-2.3106,-2.3106,-2.3106,-2.3106,-2.3106,-2.3106,-2.3106,-2.3106,-2.3106,-2.3106,-2.3106,-2.3106,-2.3106,-0.9846,-0.9884,-0.9884,-0.9884,-0.9884,-0.9927,-0.997,-1.0143,-1.0304,-1.0342,-1.0557,-1.084,-1.1244,-1.2342,-1.3275,-1.3559,-1.6039,-1.8465,-2.0012,-2.0352,-2.0593,-2.0981,-2.1319,-2.1774,-2.2449,-2.2335,-2.2505,-2.3239,-2.3183,-2.3408,-2.4033,-2.3576,-2.3769,-2.4851,-2.4805,-2.4499,-2.4029,-2.4633,-2.5204,-2.5852,-2.557,-2.6031,-2.7073,-2.651,-2.6571,-2.7012,-2.5908,-2.5288,-2.4988,-2.386,-2.33,-2.3106,-2.3106,-2.3106,-2.3106,-2.3106,-2.3106,-2.3106,-2.3106,-2.3106,-2.3106,-2.3106,-2.3106,-2.3106,-2.3106,-2.3106,-2.3106,-2.3106,-2.3106,-2.3106,-2.3106,-2.3106,-2.3106,-2.3106,-2.3106,-2.3106,-2.3106,-2.3106,-2.3106,-2.3106,-2.3106,-2.3106,-2.3106,-2.3106,-2.3106,-2.3106,-2.3106,-2.3106,-2.3106,-2.3106,-2.3106,-2.3106,-2.3106,-2.3106,-2.3106,-2.3106,-2.3106,-2.3106,-2.3106,-2.3106,-2.3106,-2.3106,-2.3106,-2.3106,-2.3106,-2.3106,-2.3106,-2.3106,-2.3106,-2.3106,-2.3106,-2.3106,-0.9798,-0.9884,-0.9884,-0.9884,-0.9884,-0.9976,-1.0186,-1.0266,-1.0347,-1.0506,-1.0892,-1.154,-1.265,-1.3062,-1.3707,-1.5224,-1.6927,-1.8745,-2.0673,-2.1229,-2.1706,-2.2558,-2.27,-2.3183,-2.4256,-2.3464,-2.3296,-2.4423,-2.4033,-2.4033,-2.4654,-2.459,-2.4734,-2.5275,-2.5537,-2.5819,-2.6067,-2.6185,-2.6415,-2.6866,-2.6796,-2.6891,-2.7073,-2.7012,-2.7012,-2.7073,-2.6891,-2.6153,-2.5111,-2.4857,-2.4108,-2.3106,-2.3106,-2.3106,-2.3106,-2.3106,-2.3106,-2.3106,-2.3106,-2.3106,-2.3106,-2.3106,-2.3106,-2.3106,-2.3106,-2.3106,-2.3106,-2.3106,-2.3106,-2.3106,-2.3106,-2.3106,-2.3106,-2.3106,-2.3106,-2.3106,-2.3106,-2.3106,-2.3106,-2.3106,-2.3106,-2.3106,-2.3106,-2.3106,-2.3106,-2.3106,-2.3106,-2.3106,-2.3106,-2.3106,-2.3106,-2.3106,-2.3106,-2.3106,-2.3106,-2.3106,-2.3106,-2.3106,-2.3106,-2.3106,-2.3106,-2.3106,-2.3106,-2.3106,-2.3106,-2.3106,-2.3106,-2.3106,-2.3106,-2.3106,-2.3106,-2.3106,-0.9787,-0.9884,-1.0024,-1.0532,-1.0648,-1.0825,-1.1437,-1.1836,-1.1946,-1.1655,-1.1948,-1.2638,-1.3697,-1.4546,-1.6047,-1.9039,-1.96,-2.0264,-2.2054,-2.2159,-2.2284,-2.2918,-2.3014,-2.3352,-2.4256,-2.3809,-2.3857,-2.471,-2.4535,-2.4479,-2.4765,-2.4821,-2.4992,-2.5417,-2.5737,-2.6114,-2.6482,-2.6696,-2.6893,-2.7073,-2.7073,-2.7073,-2.7073,-2.7073,-2.7073,-2.7073,-2.67,-2.6205,-2.5586,-2.5234,-2.4734,-2.417,-2.3798,-2.3666,-2.3611,-2.3238,-2.3106,-2.3106,-2.3106,-2.3106,-2.3106,-2.3106,-2.3106,-2.3106,-2.3106,-2.3106,-2.3106,-2.3106,-2.3106,-2.3106,-2.3106,-2.3106,-2.3106,-2.3106,-2.3106,-2.3106,-2.3106,-2.3106,-2.3106,-2.3106,-2.3106,-2.3106,-2.3106,-2.3106,-2.3106,-2.3106,-2.3106,-2.3106,-2.3106,-2.3106,-2.3106,-2.3106,-2.3106,-2.3106,-2.3106,-2.3106,-2.3106,-2.3106,-2.3106,-2.3106,-2.3106,-2.3106,-2.3106,-2.3106,-2.3106,-2.3106,-2.3106,-2.3106,-2.3106,-2.3106,-2.3106,-2.3106,-0.9803,-0.9965,-1.0215,-1.1152,-1.1214,-1.1423,-1.2768,-1.3233,-1.3404,-1.3237,-1.3653,-1.4276,-1.5133,-1.6506,-1.8509,-2.1519,-2.1558,-2.1667,-2.2893,-2.2939,-2.2934,-2.3207,-2.3352,-2.3576,-2.4089,-2.4089,-2.4312,-2.4765,-2.4821,-2.4821,-2.4821,-2.4821,-2.5026,-2.5489,-2.5788,-2.6157,-2.6619,-2.6927,-2.7073,-2.7073,-2.7073,-2.7073,-2.7073,-2.7073,-2.7073,-2.7073,-2.6571,-2.6258,-2.6075,-2.5533,-2.5226,-2.505,-2.4548,-2.4355,-2.4293,-2.3736,-2.3549,-2.3549,-2.3549,-2.3479,-2.3362,-2.3549,-2.3362,-2.3113,-2.33,-2.323,-2.3106,-2.3106,-2.3106,-2.3106,-2.3106,-2.3106,-2.3106,-2.3106,-2.3106,-2.3106,-2.3106,-2.3106,-2.3106,-2.3106,-2.3106,-2.3106,-2.3106,-2.3106,-2.3106,-2.3106,-2.3106,-2.3106,-2.3106,-2.3106,-2.3106,-2.3106,-2.3106,-2.3106,-2.3106,-2.3106,-2.3106,-2.3106,-2.3106,-2.3106,-2.3106,-2.3106,-2.3106,-2.3106,-2.3106,-2.3106,-2.3106,-2.3106,-2.3106,-2.3106,-2.3106,-2.3106,-0.9852,-1.0089,-1.0516,-1.1454,-1.1033,-1.1016,-1.3539,-1.3659,-1.3664,-1.5251,-1.6036,-1.6664,-1.7439,-1.89,-2.01,-2.0266,-2.1186,-2.2075,-2.241,-2.3269,-2.3832,-2.3857,-2.4312,-2.471,-2.471,-2.4765,-2.4765,-2.4821,-2.4821,-2.4821,-2.4821,-2.4821,-2.5155,-2.5816,-2.5867,-2.6285,-2.703,-2.7064,-2.7073,-2.7073,-2.7073,-2.7073,-2.7073,-2.7073,-2.7073,-2.7073,-2.7073,-2.67,-2.6075,-2.6075,-2.5647,-2.5111,-2.505,-2.505,-2.5042,-2.498,-2.4988,-2.4988,-2.4988,-2.4548,-2.4108,-2.4734,-2.4108,-2.323,-2.386,-2.3604,-2.3106,-2.3106,-2.3106,-2.3106,-2.3106,-2.3106,-2.3106,-2.3106,-2.3106,-2.3106,-2.3106,-2.3106,-2.3106,-2.3106,-2.3106,-2.3106,-2.3106,-2.3106,-2.3106,-2.3106,-2.3106,-2.3106,-2.3106,-2.3106,-2.3106,-2.3106,-2.3106,-2.3106,-2.3106,-2.3106,-2.3106,-2.3106,-2.3106,-2.3106,-2.3106,-2.3106,-2.3106,-2.3106,-2.3106,-2.3106,-2.3106,-2.3106,-2.3106,-2.3106,-2.3106,-2.3106,-1.0046,-1.075,-1.1492,-1.2005,-1.2076,-1.2527,-1.4577,-1.5163,-1.5507,-1.6296,-1.7095,-1.7916,-1.8889,-2.0708,-2.2055,-2.2102,-2.281,-2.3503,-2.3823,-2.422,-2.4479,-2.4479,-2.4654,-2.4821,-2.4821,-2.4821,-2.4821,-2.4821,-2.4821,-2.4821,-2.4821,-2.5035,-2.5403,-2.5867,-2.6157,-2.6533,-2.7073,-2.7073,-2.7073,-2.7073,-2.7073,-2.7073,-2.7073,-2.7073,-2.7073,-2.7073,-2.7073,-2.6952,-2.67,-2.67,-2.6579,-2.6275,-2.59,-2.5472,-2.5111,-2.5111,-2.5111,-2.5111,-2.5111,-2.4919,-2.4734,-2.5042,-2.4734,-2.4293,-2.417,-2.3922,-2.3611,-2.323,-2.3106,-2.3106,-2.3106,-2.3106,-2.3106,-2.3106,-2.3106,-2.3106,-2.3106,-2.3106,-2.3106,-2.3106,-2.3106,-2.3106,-2.3106,-2.3106,-2.3106,-2.3106,-2.3106,-2.3106,-2.3106,-2.3106,-2.3106,-2.3106,-2.3106,-2.3106,-2.3106,-2.3106,-2.3106,-2.3106,-2.3106,-2.3106,-2.3106,-2.3106,-2.3106,-2.3106,-2.3106,-2.3106,-2.3106,-2.3106,-2.3106,-2.3106,-2.3106,-2.3106,-1.0523,-1.1363,-1.2301,-1.283,-1.3176,-1.393,-1.5937,-1.6497,-1.6885,-1.7953,-1.8596,-1.9319,-2.0395,-2.1779,-2.2808,-2.3034,-2.3687,-2.4258,-2.4484,-2.471,-2.4821,-2.4821,-2.4821,-2.4821,-2.4821,-2.4821,-2.4821,-2.4821,-2.4821,-2.4821,-2.4821,-2.5172,-2.554,-2.5867,-2.6294,-2.6679,-2.7073,-2.7073,-2.7073,-2.7073,-2.7073,-2.7073,-2.7073,-2.7073,-2.7073,-2.7073,-2.7073,-2.7073,-2.7073,-2.7073,-2.7073,-2.7073,-2.6571,-2.6144,-2.5725,-2.5725,-2.5725,-2.5725,-2.5725,-2.5594,-2.5472,-2.5656,-2.548,-2.5042,-2.4787,-2.4602,-2.4293,-2.3611,-2.3417,-2.3355,-2.3168,-2.3106,-2.3106,-2.3106,-2.3106,-2.3106,-2.3106,-2.3106,-2.3106,-2.3106,-2.3106,-2.3106,-2.3106,-2.3106,-2.3106,-2.3106,-2.3106,-2.3106,-2.3106,-2.3106,-2.3106,-2.3106,-2.3106,-2.3106,-2.3106,-2.3106,-2.3106,-2.3106,-2.3106,-2.3106,-2.3106,-2.3106,-2.3106,-2.3106,-2.3106,-2.3106,-2.3106,-2.3106,-2.3106,-2.3106,-2.3106,-2.3106,-1.1328,-1.1896,-1.2775,-1.3926,-1.4248,-1.5009,-1.7545,-1.7392,-1.7532,-2.0331,-2.0843,-2.1131,-2.2125,-2.216,-2.2131,-2.2434,-2.3477,-2.4149,-2.3927,-2.4423,-2.4821,-2.4821,-2.4821,-2.4821,-2.4821,-2.4821,-2.4821,-2.4821,-2.4821,-2.4821,-2.4821,-2.5172,-2.5549,-2.5867,-2.6294,-2.6679,-2.7073,-2.7073,-2.7073,-2.7073,-2.7073,-2.7073,-2.7073,-2.7073,-2.7073,-2.7073,-2.7073,-2.7073,-2.7073,-2.7073,-2.7073,-2.7073,-2.7073,-2.7073,-2.7073,-2.7073,-2.7073,-2.7073,-2.7073,-2.67,-2.6197,-2.6882,-2.6214,-2.5226,-2.5892,-2.5647,-2.498,-2.4293,-2.4108,-2.3922,-2.33,-2.3106,-2.3106,-2.3106,-2.3106,-2.3106,-2.3106,-2.3113,-2.3113,-2.3106,-2.3113,-2.3113,-2.3106,-2.3106,-2.3106,-2.3106,-2.3106,-2.3106,-2.3106,-2.3106,-2.3106,-2.3106,-2.3106,-2.3106,-2.3106,-2.3106,-2.3106,-2.3106,-2.3106,-2.3106,-2.3106,-2.3106,-2.3106,-2.3106,-2.3106,-2.3106,-2.3106,-2.3106,-2.3106,-2.3106,-2.3106,-2.3106,-1.0728,-1.2169,-1.3622,-1.3939,-1.5229,-1.6817,-1.8365,-1.8363,-1.8743,-2.1294,-2.1847,-2.1945,-2.2331,-2.3012,-2.3373,-2.2911,-2.3867,-2.4574,-2.4518,-2.471,-2.4821,-2.4821,-2.4821,-2.4821,-2.4821,-2.4821,-2.4821,-2.4821,-2.4821,-2.4821,-2.4821,-2.5429,-2.5823,-2.5876,-2.6559,-2.6961,-2.7073,-2.7073,-2.7073,-2.7073,-2.7073,-2.7073,-2.7073,-2.7073,-2.7073,-2.7073,-2.7073,-2.7073,-2.7073,-2.7073,-2.7073,-2.7073,-2.7073,-2.7073,-2.7073,-2.7073,-2.7073,-2.7073,-2.7073,-2.6952,-2.683,-2.7012,-2.683,-2.6457,-2.6197,-2.5953,-2.5647,-2.498,-2.4479,-2.4046,-2.386,-2.3425,-2.3106,-2.3106,-2.3106,-2.3106,-2.3106,-2.3479,-2.3666,-2.3168,-2.3487,-2.3673,-2.3175,-2.3106,-2.3106,-2.3106,-2.3106,-2.3106,-2.3106,-2.3106,-2.3106,-2.3106,-2.3106,-2.3106,-2.3106,-2.3106,-2.3106,-2.3106,-2.3106,-2.3106,-2.3106,-2.3106,-2.3106,-2.3106,-2.3106,-2.3106,-2.3106,-2.3106,-2.3106,-2.3106,-2.3106,-2.3106,-1.1605,-1.3088,-1.4553,-1.5299,-1.6507,-1.7897,-1.9463,-1.99,-2.047,-2.2183,-2.2507,-2.263,-2.3026,-2.364,-2.3988,-2.3768,-2.4312,-2.4821,-2.4821,-2.4821,-2.4821,-2.4821,-2.4821,-2.4821,-2.4821,-2.4821,-2.4821,-2.4821,-2.4821,-2.4889,-2.5026,-2.5609,-2.5944,-2.6148,-2.6756,-2.7073,-2.7073,-2.7073,-2.7073,-2.7073,-2.7073,-2.7073,-2.7073,-2.7073,-2.7073,-2.7073,-2.7073,-2.7073,-2.7073,-2.7073,-2.7073,-2.7073,-2.7073,-2.7073,-2.7073,-2.7073,-2.7073,-2.7073,-2.7073,-2.7073,-2.7073,-2.7073,-2.7073,-2.7012,-2.6631,-2.651,-2.6388,-2.5717,-2.5218,-2.4787,-2.4232,-2.3798,-2.3425,-2.3168,-2.3106,-2.3106,-2.3106,-2.3611,-2.3984,-2.3611,-2.4046,-2.4293,-2.3604,-2.3487,-2.3425,-2.3168,-2.3106,-2.3106,-2.3106,-2.3106,-2.3106,-2.3106,-2.3106,-2.3106,-2.3106,-2.3106,-2.3106,-2.3106,-2.3106,-2.3106,-2.3106,-2.3106,-2.3106,-2.3106,-2.3106,-2.3106,-2.3106,-2.3106,-2.3106,-2.3106,-2.3106,-2.3106,-1.3253,-1.4205,-1.5412,-1.7372,-1.8008,-1.8648,-2.0687,-2.1593,-2.227,-2.2954,-2.2995,-2.317,-2.3996,-2.4077,-2.4144,-2.4654,-2.4765,-2.4821,-2.4821,-2.4821,-2.4821,-2.4821,-2.4821,-2.4821,-2.4821,-2.4821,-2.4821,-2.4821,-2.4821,-2.4984,-2.5409,-2.5729,-2.6105,-2.6473,-2.6867,-2.7073,-2.7073,-2.7073,-2.7073,-2.7073,-2.7073,-2.7073,-2.7073,-2.7073,-2.7073,-2.7073,-2.7073,-2.7073,-2.7073,-2.7073,-2.7073,-2.7073,-2.7073,-2.7073,-2.7073,-2.7073,-2.7073,-2.7073,-2.7073,-2.7073,-2.7073,-2.7073,-2.7073,-2.7073,-2.7073,-2.7073,-2.6952,-2.638,-2.6136,-2.5831,-2.4602,-2.4232,-2.4046,-2.3362,-2.3168,-2.3106,-2.3175,-2.3736,-2.417,-2.417,-2.4734,-2.498,-2.4301,-2.417,-2.386,-2.3168,-2.3106,-2.3106,-2.3175,-2.3168,-2.3106,-2.3175,-2.3113,-2.3106,-2.3106,-2.3106,-2.3106,-2.3106,-2.3106,-2.3106,-2.3106,-2.3106,-2.3106,-2.3106,-2.3106,-2.3106,-2.3106,-2.3106,-2.3106,-2.3106,-2.3106,-2.3106,-1.2272,-1.3476,-1.4896,-1.7064,-1.913,-2.0744,-2.1216,-2.1897,-2.2622,-2.3128,-2.3401,-2.3584,-2.3903,-2.4317,-2.4479,-2.4144,-2.4479,-2.4821,-2.4821,-2.4821,-2.4821,-2.4821,-2.4821,-2.4821,-2.4821,-2.4821,-2.4821,-2.4821,-2.4821,-2.4984,-2.5409,-2.5729,-2.6105,-2.6473,-2.6867,-2.7073,-2.7073,-2.7073,-2.7073,-2.7073,-2.7073,-2.7073,-2.7073,-2.7073,-2.7073,-2.7073,-2.7073,-2.7073,-2.7073,-2.7073,-2.7073,-2.7073,-2.7073,-2.7073,-2.7073,-2.7073,-2.7073,-2.7073,-2.7073,-2.7073,-2.7073,-2.7073,-2.7073,-2.7073,-2.7073,-2.7073,-2.7073,-2.6952,-2.651,-2.6014,-2.5762,-2.528,-2.4734,-2.4046,-2.3487,-2.323,-2.3798,-2.4425,-2.4857,-2.4857,-2.541,-2.5647,-2.498,-2.4425,-2.386,-2.3168,-2.3106,-2.3293,-2.3798,-2.3425,-2.3293,-2.386,-2.3417,-2.3106,-2.3106,-2.3106,-2.3106,-2.3106,-2.3106,-2.3106,-2.3106,-2.3106,-2.3106,-2.3106,-2.3106,-2.3106,-2.3106,-2.3106,-2.3106,-2.3106,-2.3106,-2.3106,-1.2293,-1.3599,-1.5125,-1.7695,-1.9748,-2.1199,-2.1371,-2.1859,-2.2553,-2.3353,-2.3606,-2.3823,-2.4233,-2.459,-2.471,-2.4368,-2.459,-2.4821,-2.4821,-2.4821,-2.4821,-2.4821,-2.4821,-2.4821,-2.4821,-2.4821,-2.4821,-2.4821,-2.4821,-2.5061,-2.5609,-2.5831,-2.6191,-2.6747,-2.697,-2.7073,-2.7073,-2.7073,-2.7073,-2.7073,-2.7073,-2.7073,-2.7073,-2.7073,-2.7073,-2.7073,-2.7073,-2.7073,-2.7073,-2.7073,-2.7073,-2.7073,-2.7073,-2.7073,-2.7073,-2.7073,-2.7073,-2.7073,-2.7073,-2.7073,-2.7073,-2.7073,-2.7073,-2.7073,-2.7073,-2.7073,-2.7073,-2.7073,-2.6822,-2.651,-2.6197,-2.5831,-2.541,-2.4734,-2.4046,-2.3673,-2.4046,-2.461,-2.5165,-2.5533,-2.6144,-2.6388,-2.5717,-2.4787,-2.3984,-2.3611,-2.3611,-2.3736,-2.4046,-2.4108,-2.417,-2.4548,-2.4293,-2.4046,-2.4046,-2.4046,-2.4046,-2.4046,-2.4046,-2.3922,-2.3604,-2.3611,-2.3425,-2.3113,-2.3106,-2.3106,-2.3106,-2.3106,-2.3106,-2.3106,-2.3106,-2.3106,-1.2393,-1.3908,-1.5706,-1.8312,-1.9849,-2.0798,-2.1311,-2.1713,-2.2295,-2.3357,-2.3639,-2.3931,-2.4684,-2.4821,-2.4821,-2.4821,-2.4821,-2.4821,-2.4821,-2.4821,-2.4821,-2.4821,-2.4821,-2.4821,-2.4821,-2.4821,-2.4821,-2.4821,-2.4821,-2.5146,-2.5842,-2.5876,-2.6285,-2.7047,-2.7073,-2.7073,-2.7073,-2.7073,-2.7073,-2.7073,-2.7073,-2.7073,-2.7073,-2.7073,-2.7073,-2.7073,-2.7073,-2.7073,-2.7073,-2.7073,-2.7073,-2.7073,-2.7073,-2.7073,-2.7073,-2.7073,-2.7073,-2.7073,-2.7073,-2.7073,-2.7073,-2.7073,-2.7073,-2.7073,-2.7073,-2.7073,-2.7073,-2.7073,-2.7073,-2.6952,-2.6449,-2.6258,-2.6075,-2.541,-2.4849,-2.4479,-2.4479,-2.4795,-2.5349,-2.6144,-2.67,-2.6891,-2.6197,-2.5149,-2.4417,-2.4293,-2.4293,-2.4293,-2.4417,-2.4857,-2.5173,-2.5288,-2.5173,-2.5111,-2.5111,-2.5111,-2.5111,-2.5111,-2.5111,-2.4795,-2.4108,-2.4108,-2.3798,-2.3106,-2.3106,-2.3106,-2.3106,-2.3106,-2.3106,-2.3106,-2.3106,-2.3106,-1.1494,-1.3733,-1.6128,-1.7709,-1.8925,-2.0079,-2.1156,-2.1713,-2.2227,-2.3023,-2.346,-2.3931,-2.4684,-2.4821,-2.4821,-2.4821,-2.4821,-2.4821,-2.4821,-2.4821,-2.4821,-2.4821,-2.4821,-2.4821,-2.4821,-2.4821,-2.4821,-2.4821,-2.4821,-2.5146,-2.5842,-2.5876,-2.6285,-2.7047,-2.7073,-2.7073,-2.7073,-2.7073,-2.7073,-2.7073,-2.7073,-2.7073,-2.7073,-2.7073,-2.7073,-2.7073,-2.7073,-2.7073,-2.7073,-2.7073,-2.7073,-2.7073,-2.7073,-2.7073,-2.7073,-2.7073,-2.7073,-2.7073,-2.7073,-2.7073,-2.7073,-2.7073,-2.7073,-2.7073,-2.7073,-2.7073,-2.7073,-2.7073,-2.7073,-2.7073,-2.7012,-2.6952,-2.6822,-2.6136,-2.5892,-2.5823,-2.5823,-2.5472,-2.548,-2.67,-2.7012,-2.6891,-2.6197,-2.5953,-2.5647,-2.5042,-2.498,-2.5165,-2.577,-2.541,-2.5349,-2.5892,-2.5472,-2.5111,-2.5111,-2.5111,-2.5111,-2.5111,-2.5111,-2.4795,-2.4108,-2.4108,-2.3798,-2.3106,-2.3106,-2.3106,-2.3106,-2.3106,-2.3106,-2.3106,-2.3106,-2.3106,-1.1998,-1.4059,-1.5973,-1.7462,-1.8781,-1.981,-2.0503,-2.1205,-2.1884,-2.2638,-2.3109,-2.3605,-2.435,-2.4675,-2.4821,-2.4821,-2.4821,-2.4821,-2.4821,-2.4821,-2.4821,-2.4821,-2.4821,-2.4821,-2.4821,-2.4821,-2.4821,-2.4821,-2.4821,-2.5146,-2.5842,-2.5876,-2.6285,-2.7047,-2.7073,-2.7073,-2.7073,-2.7073,-2.7073,-2.7073,-2.7073,-2.7073,-2.7073,-2.7073,-2.7073,-2.7073,-2.7073,-2.7073,-2.7073,-2.7073,-2.7073,-2.7073,-2.7073,-2.7073,-2.7073,-2.7073,-2.7073,-2.7073,-2.7073,-2.7073,-2.7073,-2.7073,-2.7073,-2.7073,-2.7073,-2.7073,-2.7073,-2.7073,-2.7073,-2.7073,-2.7073,-2.7073,-2.7012,-2.67,-2.638,-2.6197,-2.6571,-2.6144,-2.5961,-2.6891,-2.7073,-2.7012,-2.67,-2.6319,-2.6014,-2.5709,-2.5647,-2.577,-2.6075,-2.6144,-2.6336,-2.664,-2.6396,-2.6214,-2.6214,-2.6214,-2.6214,-2.6214,-2.6214,-2.5717,-2.4672,-2.5034,-2.4718,-2.3673,-2.3673,-2.3487,-2.3106,-2.3487,-2.3479,-2.3106,-2.3106,-2.3106,-1.205,-1.3562,-1.4911,-1.6696,-1.7965,-1.8978,-1.9794,-2.0523,-2.1338,-2.2252,-2.2706,-2.3169,-2.3775,-2.435,-2.4701,-2.4804,-2.4821,-2.4821,-2.4821,-2.4821,-2.4821,-2.4821,-2.4821,-2.4821,-2.4821,-2.4821,-2.4821,-2.4821,-2.4821,-2.5146,-2.5842,-2.5876,-2.6285,-2.7047,-2.7073,-2.7073,-2.7073,-2.7073,-2.7073,-2.7073,-2.7073,-2.7073,-2.7073,-2.7073,-2.7073,-2.7073,-2.7073,-2.7073,-2.7073,-2.7073,-2.7073,-2.7073,-2.7073,-2.7073,-2.7073,-2.7073,-2.7073,-2.7073,-2.7073,-2.7073,-2.7073,-2.7073,-2.7073,-2.7073,-2.7073,-2.7073,-2.7073,-2.7073,-2.7073,-2.7073,-2.7073,-2.7073,-2.7073,-2.7073,-2.67,-2.6449,-2.6761,-2.6579,-2.651,-2.7012,-2.7073,-2.7073,-2.7073,-2.67,-2.6319,-2.6319,-2.6319,-2.6319,-2.6319,-2.6761,-2.7073,-2.7073,-2.7073,-2.7073,-2.7073,-2.7073,-2.7073,-2.7073,-2.7073,-2.6579,-2.541,-2.5831,-2.5525,-2.4363,-2.4541,-2.4286,-2.3611,-2.3922,-2.386,-2.3362,-2.3175,-2.3106,-1.0676,-1.1456,-1.2451,-1.4849,-1.587,-1.6862,-1.9133,-1.9906,-2.0529,-2.1769,-2.2371,-2.2748,-2.31,-2.3768,-2.4384,-2.4761,-2.4821,-2.4821,-2.4821,-2.4821,-2.4821,-2.4821,-2.4821,-2.4821,-2.4821,-2.4821,-2.4821,-2.4821,-2.4821,-2.5146,-2.5842,-2.5876,-2.6285,-2.7047,-2.7073,-2.7073,-2.7073,-2.7073,-2.7073,-2.7073,-2.7073,-2.7073,-2.7073,-2.7073,-2.7073,-2.7073,-2.7073,-2.7073,-2.7073,-2.7073,-2.7073,-2.7073,-2.7073,-2.7073,-2.7073,-2.7073,-2.7073,-2.7073,-2.7073,-2.7073,-2.7073,-2.7073,-2.7073,-2.7073,-2.7073,-2.7073,-2.7073,-2.7073,-2.7073,-2.7073,-2.7073,-2.7073,-2.7073,-2.7073,-2.7073,-2.6882,-2.6258,-2.6631,-2.7073,-2.7073,-2.7073,-2.7073,-2.7073,-2.7073,-2.7073,-2.7073,-2.7073,-2.7073,-2.7073,-2.7073,-2.7073,-2.7073,-2.7073,-2.7073,-2.7073,-2.7073,-2.7073,-2.7073,-2.7073,-2.6761,-2.6075,-2.6075,-2.577,-2.5042,-2.5647,-2.5647,-2.498,-2.4417,-2.4108,-2.4046,-2.3425,-2.3106,-1.0563,-1.125,-1.2138,-1.4269,-1.5612,-1.6823,-1.8406,-1.9534,-2.0412,-2.1174,-2.1567,-2.2004,-2.268,-2.3365,-2.399,-2.4384,-2.439,-2.453,-2.4787,-2.4821,-2.4821,-2.4821,-2.4821,-2.4821,-2.4821,-2.4821,-2.4821,-2.4821,-2.4821,-2.5044,-2.5549,-2.5806,-2.6174,-2.6679,-2.6944,-2.7073,-2.7073,-2.7073,-2.7073,-2.7073,-2.7073,-2.7073,-2.7073,-2.7073,-2.7073,-2.7073,-2.7073,-2.7073,-2.7073,-2.7073,-2.7073,-2.7073,-2.7073,-2.7073,-2.7073,-2.7073,-2.7073,-2.7073,-2.7073,-2.7073,-2.7073,-2.7073,-2.7073,-2.7073,-2.7073,-2.7073,-2.7073,-2.7073,-2.7073,-2.7073,-2.7073,-2.7073,-2.7073,-2.7073,-2.7073,-2.7012,-2.6761,-2.6952,-2.7073,-2.7073,-2.7073,-2.7073,-2.7073,-2.7073,-2.7073,-2.7073,-2.7073,-2.7073,-2.7073,-2.727,-2.7415,-2.7415,-2.7638,-2.7689,-2.7432,-2.7415,-2.7313,-2.709,-2.7073,-2.6822,-2.6136,-2.651,-2.6449,-2.577,-2.6388,-2.6205,-2.5111,-2.4857,-2.4734,-2.4734,-2.4046,-2.3984,-1.0359,-1.0972,-1.179,-1.3561,-1.4955,-1.619,-1.7518,-1.8758,-1.9844,-2.0554,-2.0977,-2.1422,-2.2096,-2.2628,-2.316,-2.3913,-2.4042,-2.4179,-2.4564,-2.4624,-2.4675,-2.4804,-2.4821,-2.4821,-2.4821,-2.4821,-2.4821,-2.4821,-2.4821,-2.4984,-2.5409,-2.5729,-2.6165,-2.667,-2.6936,-2.7073,-2.7073,-2.7073,-2.7073,-2.7073,-2.7073,-2.7073,-2.7073,-2.7073,-2.7073,-2.7073,-2.7073,-2.7073,-2.7073,-2.7073,-2.7073,-2.7073,-2.7073,-2.7073,-2.7073,-2.7073,-2.7073,-2.7073,-2.7073,-2.7073,-2.7073,-2.7073,-2.7073,-2.7073,-2.7073,-2.7073,-2.7073,-2.7073,-2.7073,-2.7073,-2.7073,-2.7073,-2.7073,-2.7073,-2.7073,-2.7073,-2.7073,-2.7073,-2.7073,-2.7073,-2.7073,-2.7073,-2.7073,-2.7073,-2.7073,-2.7073,-2.7176,-2.7253,-2.7253,-2.7569,-2.7801,-2.7801,-2.8032,-2.8083,-2.7826,-2.7681,-2.7501,-2.727,-2.7141,-2.6882,-2.6449,-2.6882,-2.6882,-2.6449,-2.6882,-2.6648,-2.5786,-2.5533,-2.541,-2.541,-2.4734,-2.4672,0.0,0.0,0.0,-1.271,-1.3747,-1.4817,-1.6412,-1.756,-1.8628,-2.0008,-2.0583,-2.096,-2.1328,-2.1396,-2.1876,-2.3409,-2.3667,-2.3768,-2.4162,-2.4167,-2.4313,-2.4753,-2.4804,-2.4804,-2.4821,-2.4821,-2.4821,-2.4821,-2.4821,-2.4975,-2.5335,-2.5729,-2.6285,-2.7039,-2.7073,-2.7073,-2.7073,-2.7073,-2.7073,-2.7073,-2.7073,-2.7073,-2.7073,-2.7073,-2.7073,-2.7073,-2.7073,-2.7073,-2.7073,-2.7073,-2.7073,-2.7073,-2.7073,-2.7073,-2.7073,-2.7073,-2.7073,-2.7073,-2.7073,-2.7073,-2.7073,-2.7073,-2.7073,-2.7073,-2.7073,-2.7073,-2.7073,-2.7073,-2.7073,-2.7073,-2.7073,-2.7073,-2.7073,-2.7073,-2.7073,-2.7073,-2.7073,-2.7073,-2.7073,-2.7073,-2.7073,-2.7073,-2.7073,-2.7081,-2.709,-2.709,-2.739,-2.7621,-2.7621,-2.7963,-2.8212,-2.8212,-2.822,-2.822,-2.8212,-2.786,-2.7629,-2.7604,-2.7278,-2.7081,-2.7073,-2.7073,-2.7073,-2.7073,-2.7073,-2.7073,-2.7073,-2.6449,-2.6136,-2.6136,-2.5472,-2.5173,-1.0592,0.0,0.0,0.0,0.0,0.0,-1.5978,-1.682,-1.7661,-1.9126,-1.9535,-1.9894,-2.0861,-2.1028,-2.1251,-2.1927,-2.2492,-2.3143,-2.3759,-2.3845,-2.3982,-2.4296,-2.4393,-2.4504,-2.4795,-2.4821,-2.4821,-2.4821,-2.4821,-2.4864,-2.4967,-2.5583,-2.6157,-2.6636,-2.6927,-2.7073,-2.7073,-2.7073,-2.7073,-2.7073,-2.7073,-2.7073,-2.7073,-2.7073,-2.7073,-2.7073,-2.7073,-2.7073,-2.7073,-2.7073,-2.7073,-2.7073,-2.7073,-2.7073,-2.7073,-2.7073,-2.7073,-2.7073,-2.7073,-2.7073,-2.7073,-2.7073,-2.7073,-2.7073,-2.7073,-2.7073,-2.7073,-2.7073,-2.7073,-2.7073,-2.7073,-2.7073,-2.7073,-2.7073,-2.7073,-2.7073,-2.7073,-2.7073,-2.7073,-2.7073,-2.7073,-2.7073,-2.7073,-2.7287,-2.7458,-2.7458,-2.7783,-2.8032,-2.8032,-2.8374,-2.8614,-2.8614,-2.8854,-2.8896,-2.864,-2.852,-2.8212,-2.7638,-2.7509,-2.7347,-2.7081,-2.7073,-2.7073,-2.7073,-2.7073,-2.7073,-2.7073,-2.6449,-2.6319,-2.6822,-2.664,-2.6527,-1.1186,-1.1299,-1.1549,-1.2772,0.0,0.0,-1.5683,-1.6427,-1.7177,-1.8614,-1.9001,-1.9384,-2.0246,-2.0403,-2.0574,-2.1105,-2.1559,-2.2225,-2.3091,-2.322,-2.3417,-2.3931,-2.3999,-2.4153,-2.4538,-2.4573,-2.4641,-2.4804,-2.4821,-2.4889,-2.5044,-2.5617,-2.6105,-2.6473,-2.6867,-2.7073,-2.7073,-2.7073,-2.7073,-2.7073,-2.7073,-2.7073,-2.7073,-2.7073,-2.7073,-2.7073,-2.7073,-2.7073,-2.7073,-2.7073,-2.7073,-2.7073,-2.7073,-2.7073,-2.7073,-2.7073,-2.7073,-2.7073,-2.7073,-2.7073,-2.7073,-2.7073,-2.7073,-2.7073,-2.7073,-2.7073,-2.7073,-2.7073,-2.7073,-2.7073,-2.7073,-2.7073,-2.7073,-2.7073,-2.7073,-2.7073,-2.7073,-2.7073,-2.7073,-2.7073,-2.7073,-2.7124,-2.727,-2.7467,-2.7664,-2.7826,-2.8186,-2.8434,-2.8434,-2.8768,-2.8999,-2.8999,-2.9188,-2.923,-2.9025,-2.8871,-2.8588,-2.8126,-2.7783,-2.7509,-2.7304,-2.715,-2.7073,-2.7073,-2.7073,-2.7073,-2.7073,-2.67,-2.67,-2.7073,-2.7073,-2.7073,-1.1935,-1.197,-1.2109,-1.2874,-1.3499,0.0,-1.5364,-1.6063,-1.6814,-1.8044,-1.86,-1.899,-1.9372,-1.9474,-1.972,-2.0445,-2.0627,-2.1092,-2.2311,-2.2465,-2.274,-2.3443,-2.3564,-2.3691,-2.4076,-2.4145,-2.4333,-2.4727,-2.4795,-2.4967,-2.5292,-2.5669,-2.6045,-2.6414,-2.6807,-2.703,-2.7073,-2.7073,-2.7073,-2.7073,-2.7073,-2.7073,-2.7073,-2.7073,-2.7073,-2.7073,-2.7073,-2.7073,-2.7073,-2.7073,-2.7073,-2.7073,-2.7073,-2.7073,-2.7073,-2.7073,-2.7073,-2.7073,-2.7073,-2.7073,-2.7073,-2.7073,-2.7073,-2.7073,-2.7073,-2.7073,-2.7073,-2.7073,-2.7073,-2.7073,-2.7073,-2.7073,-2.7073,-2.7073,-2.7073,-2.7081,-2.7124,-2.7133,-2.715,-2.7193,-2.7167,-2.7244,-2.7604,-2.7706,-2.7852,-2.8203,-2.8588,-2.8837,-2.8837,-2.9111,-2.9307,-2.9307,-2.9307,-2.9307,-2.9307,-2.9025,-2.8828,-2.8785,-2.8126,-2.7698,-2.7612,-2.7304,-2.7116,-2.7073,-2.7073,-2.7073,-2.7073,-2.7073,-2.7073,-2.7073,-2.7073,-2.7073,-1.3299,-1.3011,-1.2854,-1.3316,-1.3492,0.0,-1.4223,-1.4432,-1.4879,-1.603,-1.656,-1.6998,-1.7738,-1.8089,-1.8289,-1.847,-1.9034,-1.997,-2.1425,-2.1627,-2.1807,-2.227,-2.2637,-2.2963,-2.3297,-2.3605,-2.3931,-2.4316,-2.4641,-2.4847,-2.4924,-2.5283,-2.5652,-2.6037,-2.6405,-2.6756,-2.7073,-2.7073,-2.7073,-2.7073,-2.7073,-2.7073,-2.7073,-2.7073,-2.7073,-2.7073,-2.7073,-2.7073,-2.7073,-2.7073,-2.7073,-2.7073,-2.7073,-2.7073,-2.7073,-2.7073,-2.7073,-2.7073,-2.7073,-2.7073,-2.7073,-2.7073,-2.7073,-2.7073,-2.7073,-2.7073,-2.7073,-2.7073,-2.7073,-2.7073,-2.7073,-2.7073,-2.7073,-2.7073,-2.7073,-2.715,-2.7441,-2.7501,-2.7595,-2.7912,-2.7715,-2.7629,-2.8015,-2.834,-2.858,-2.8657,-2.8974,-2.9205,-2.9205,-2.9265,-2.9307,-2.9307,-2.9307,-2.9307,-2.9307,-2.9248,-2.9085,-2.8802,-2.864,-2.8263,-2.7629,-2.7535,-2.7372,-2.7081,-2.7073,-2.7073,-2.7073,-2.7073,-2.7073,-2.7073,-2.7073,-2.7073,-1.3933,-1.3437,-1.3045,-1.3214,-1.3375,0.0,0.0,-1.4313,-1.457,-1.5568,-1.5889,-1.6157,-1.674,-1.7141,-1.7437,-1.7621,-1.8289,-1.906,-1.9844,-2.064,-2.1285,-2.1662,-2.1867,-2.2251,-2.2775,-2.3049,-2.3417,-2.4179,-2.4419,-2.4616,-2.4812,-2.5172,-2.554,-2.5867,-2.6294,-2.673,-2.7289,-2.7194,-2.7194,-2.7297,-2.7185,-2.7073,-2.7073,-2.7073,-2.7073,-2.7073,-2.7073,-2.7073,-2.7073,-2.7073,-2.7073,-2.7073,-2.7073,-2.7073,-2.7073,-2.7073,-2.7073,-2.7073,-2.7073,-2.7073,-2.7073,-2.7073,-2.7073,-2.7073,-2.7073,-2.7073,-2.7073,-2.7073,-2.7073,-2.7073,-2.7073,-2.7073,-2.7116,-2.7295,-2.7338,-2.7441,-2.7818,-2.7895,-2.8015,-2.8408,-2.8323,-2.8254,-2.8451,-2.8648,-2.8837,-2.9016,-2.9196,-2.9307,-2.9307,-2.9307,-2.9307,-2.9307,-2.9307,-2.9307,-2.9307,-2.9307,-2.923,-2.9059,-2.8879,-2.8605,-2.8212,-2.7818,-2.7432,-2.7081,-2.7073,-2.7073,-2.7073,-2.7073,-2.7073,-2.7073,-2.7073,-2.7073,-1.4735,-1.4057,-1.3405,-1.3334,-1.3453,-1.374,0.0,0.0,0.0,-1.52,-1.5394,-1.552,-1.5826,-1.6118,-1.6409,-1.6607,-1.7411,-1.794,-1.7801,-1.9181,-2.0415,-2.099,-2.1216,-2.155,-2.2216,-2.2465,-2.298,-2.3836,-2.4056,-2.4313,-2.4693,-2.5061,-2.5437,-2.5814,-2.6191,-2.6678,-2.7288,-2.7142,-2.7185,-2.7401,-2.7185,-2.7133,-2.7185,-2.7133,-2.7133,-2.7254,-2.7194,-2.7194,-2.7246,-2.7246,-2.7254,-2.7194,-2.7133,-2.7073,-2.7073,-2.7073,-2.7073,-2.7073,-2.7073,-2.7073,-2.7073,-2.7073,-2.7073,-2.7073,-2.7073,-2.7073,-2.7073,-2.7073,-2.7073,-2.7073,-2.7073,-2.7124,-2.7244,-2.7535,-2.7664,-2.7826,-2.822,-2.8306,-2.8426,-2.8811,-2.8879,-2.8879,-2.8879,-2.8879,-2.8982,-2.9265,-2.9307,-2.9307,-2.9307,-2.9307,-2.9307,-2.9307,-2.9307,-2.9307,-2.9307,-2.9307,-2.9307,-2.9307,-2.9042,-2.8854,-2.8785,-2.8023,-2.7467,-2.7184,-2.7107,-2.7073,-2.7073,-2.7073,-2.7073,-2.7073,-2.7073,-2.7073,-1.6678,-1.5767,-1.4846,-1.4528,-1.4219,-1.3964,-1.3689,0.0,-1.3667,-1.3741,0.0,-1.4237,-1.4229,0.0,0.0,-1.4044,-1.5094,-1.5809,-1.5211,-1.6684,-1.831,-1.9713,-2.0523,-2.0968,-2.1062,-2.201,-2.2645,-2.2783,-2.3665,-2.4202,-2.4244,-2.4667,-2.5052,-2.542,-2.5806,-2.6174,-2.661,-2.6962,-2.7133,-2.7133,-2.7133,-2.7246,-2.7461,-2.7185,-2.7366,-2.79,-2.7581,-2.765,-2.79,-2.79,-2.7711,-2.7401,-2.7185,-2.7073,-2.7073,-2.7073,-2.7073,-2.7073,-2.7073,-2.7073,-2.7073,-2.7073,-2.7073,-2.7073,-2.7073,-2.7073,-2.7073,-2.7073,-2.7073,-2.7073,-2.7073,-2.7313,-2.7552,-2.7595,-2.7869,-2.8229,-2.8631,-2.8708,-2.8819,-2.9179,-2.9248,-2.9248,-2.9248,-2.9248,-2.9265,-2.9307,-2.9307,-2.9307,-2.9307,-2.9307,-2.9307,-2.9307,-2.9307,-2.9307,-2.9307,-2.9307,-2.9307,-2.9307,-2.9273,-2.9111,-2.8794,-2.8023,-2.7586,-2.7544,-2.7235,-2.7073,-2.7073,-2.7073,-2.7073,-2.7073,-2.7073,-2.7073,-1.7705,-1.6894,-1.6094,-1.5692,-1.5488,-1.517,-1.4335,-1.4141,-1.4007,-1.3609,0.0,0.0,0.0,0.0,0.0,0.0,-1.4396,-1.4965,-1.4682,-1.5693,-1.6927,-1.8189,-1.9265,-2.012,-2.0831,-2.149,-2.2122,-2.256,-2.304,-2.3537,-2.4142,-2.4338,-2.4753,-2.5409,-2.5737,-2.6181,-2.6786,-2.7005,-2.7185,-2.7358,-2.7358,-2.7409,-2.7521,-2.7599,-2.7779,-2.802,-2.7831,-2.7891,-2.802,-2.802,-2.7891,-2.7771,-2.7668,-2.7427,-2.7073,-2.7073,-2.7073,-2.7073,-2.7073,-2.7073,-2.7073,-2.7073,-2.7073,-2.7073,-2.7073,-2.7073,-2.7073,-2.7073,-2.7227,-2.7381,-2.7381,-2.7664,-2.8006,-2.8229,-2.8417,-2.864,-2.9008,-2.9085,-2.9128,-2.9282,-2.9307,-2.9307,-2.9307,-2.9307,-2.9307,-2.9307,-2.9307,-2.9307,-2.9307,-2.9307,-2.9307,-2.9307,-2.9307,-2.9307,-2.9307,-2.9307,-2.9307,-2.9307,-2.9307,-2.9153,-2.8794,-2.846,-2.8075,-2.7612,-2.7458,-2.7278,-2.7073,-2.7073,-2.7073,-2.7073,-2.7073,-2.7073,-1.8774,-1.8003,-1.7261,-1.6701,-1.6413,-1.5984,-1.4919,-1.4623,-1.438,-1.3785,-1.3667,0.0,0.0,0.0,-1.333,-1.2834,0.0,-1.3761,-1.3575,-1.4405,-1.5528,-1.6908,-1.8112,-1.9293,-2.0451,-2.0891,-2.1413,-2.2225,-2.2482,-2.3049,-2.4025,-2.4179,-2.4538,-2.5198,-2.5583,-2.6084,-2.6698,-2.6841,-2.7134,-2.7521,-2.7521,-2.7581,-2.7771,-2.796,-2.808,-2.8259,-2.8199,-2.8199,-2.8259,-2.8259,-2.8199,-2.8148,-2.8148,-2.7788,-2.7366,-2.7366,-2.7306,-2.7185,-2.7185,-2.7185,-2.7073,-2.7073,-2.7073,-2.7073,-2.7073,-2.7073,-2.7098,-2.7193,-2.7407,-2.7629,-2.7741,-2.8057,-2.8426,-2.8708,-2.8918,-2.925,-2.9882,-2.9952,-2.9887,-3.0,-2.9813,-2.9635,-2.9373,-2.9307,-2.9307,-2.9307,-2.9307,-2.9307,-2.9307,-2.9307,-2.9307,-2.9307,-2.9307,-2.9307,-2.9307,-2.9307,-2.9307,-2.9307,-2.9307,-2.9196,-2.8939,-2.8837,-2.8511,-2.7938,-2.7715,-2.7475,-2.7218,-2.7124,-2.7073,-2.7073,-2.7073,-2.7073,-2.024,-1.9418,-1.8354,-1.7459,-1.6739,-1.5959,-1.5072,-1.4686,-1.4403,-1.4043,-1.4036,-1.385,-1.3153,-1.2607,-1.1964,0.0,-1.1467,0.0,0.0,-1.2183,-1.3885,-1.6094,-1.7343,-1.8463,-1.9621,-2.0112,-2.0634,-2.1388,-2.2182,-2.2929,-2.3692,-2.4033,-2.4364,-2.483,-2.5198,-2.5566,-2.5951,-2.6319,-2.6866,-2.7521,-2.7521,-2.7831,-2.8457,-2.814,-2.8379,-2.8925,-2.8636,-2.8696,-2.8984,-2.8984,-2.8746,-2.8466,-2.8466,-2.8268,-2.796,-2.796,-2.7771,-2.7521,-2.7521,-2.7297,-2.7073,-2.7073,-2.7073,-2.7073,-2.7073,-2.7073,-2.715,-2.7492,-2.7595,-2.7689,-2.8075,-2.8468,-2.8768,-2.8777,-2.9293,-3.0113,-3.1433,-3.1534,-3.1423,-3.1698,-3.1212,-3.0464,-2.9438,-2.9307,-2.9307,-2.9307,-2.9307,-2.9307,-2.9307,-2.9307,-2.9307,-2.9307,-2.9307,-2.9307,-2.9307,-2.9307,-2.9307,-2.9307,-2.9307,-2.9307,-2.929,-2.8965,-2.8768,-2.8742,-2.7989,-2.7595,-2.7586,-2.7244,-2.7073,-2.7073,-2.7073,-2.7073,-2.1105,-2.0574,-1.9999,-1.9423,-1.8908,-1.8159,-1.6792,-1.624,-1.5762,-1.4774,-1.4302,-1.3963,-1.3711,-1.3331,0.0,0.0,0.0,0.0,0.0,-1.2543,-1.3796,-1.5024,-1.5994,0.0,0.0,-1.9324,-1.9864,-2.0617,-2.1371,-2.2173,-2.2937,-2.3511,-2.4033,-2.4364,-2.5044,-2.5557,-2.5876,-2.6302,-2.6849,-2.7521,-2.7702,-2.808,-2.8526,-2.8627,-2.8806,-2.8984,-2.8865,-2.8925,-2.8984,-2.8984,-2.8925,-2.8806,-2.8806,-2.8746,-2.8627,-2.814,-2.796,-2.7831,-2.7831,-2.765,-2.7349,-2.7349,-2.7237,-2.7073,-2.7073,-2.7235,-2.745,-2.7569,-2.798,-2.8417,-2.8545,-2.8854,-2.9128,-2.9128,-2.9474,-3.0186,-3.1497,-3.189,-3.2263,-3.3248,-3.3257,-3.2635,-3.1185,-3.0936,-3.0558,-2.9504,-2.9307,-2.9307,-2.9307,-2.9307,-2.9307,-2.9307,-2.9307,-2.9307,-2.9307,-2.9307,-2.9307,-2.9307,-2.9307,-2.9307,-2.9307,-2.9196,-2.9025,-2.8785,-2.852,-2.8126,-2.7604,-2.7484,-2.7304,-2.7073,-2.7073,-2.7073,-2.1919,-2.155,-2.1135,-2.0564,-2.0036,-1.9351,-1.8125,-1.7504,-1.6916,-1.5973,-1.5361,-1.4935,-1.4699,-1.4119,-1.3416,0.0,0.0,0.0,0.0,-1.2666,-1.3467,-1.4361,0.0,0.0,0.0,0.0,-1.9393,-2.0429,-2.1062,0.0,-2.256,-2.3306,-2.3836,-2.4167,-2.4847,-2.542,-2.5876,-2.6282,-2.6898,-2.7702,-2.802,-2.8328,-2.8696,-2.8925,-2.8984,-2.8984,-2.8984,-2.8984,-2.8984,-2.8984,-2.8984,-2.8984,-2.8984,-2.8984,-2.8925,-2.8498,-2.8268,-2.8148,-2.802,-2.7771,-2.7521,-2.7521,-2.753,-2.7685,-2.8041,-2.8374,-2.8754,-2.903,-2.9242,-2.9299,-2.9189,-2.9201,-2.9307,-2.9307,-2.97,-3.052,-3.2317,-3.2888,-3.3456,-3.4933,-3.5005,-3.4385,-3.2942,-3.2689,-3.1935,-2.9617,-2.9307,-2.9307,-2.9307,-2.9307,-2.9307,-2.9307,-2.9307,-2.9307,-2.9307,-2.9307,-2.9307,-2.9307,-2.9307,-2.9307,-2.9307,-2.9307,-2.9205,-2.8974,-2.8845,-2.8711,-2.856,-2.8227,-2.8158,-2.8335,-2.8193,-2.8071]},{"header":{"parameterUnit":"m.s-1","parameterCategory":1,"la1":30.6,"la2":29.2853,"lo1":-89.7004,"lo2":-87.6739,"dx":0.0162,"dy":0.0183,"nx":112,"ny":82,"refTime":"2022-12-06T18:00:00:Z","depth":0,"parameterNumber":3,"parameterNumberName":"V-component_of_WINDS"},"data":[0.0,0.0,0.0,0.0,0.0,0.0,0.0,0.0,0.0,0.0,0.0,0.0,0.0,0.0,0.0,0.0,0.0,0.0,0.0,0.0,0.0,0.0,0.0,0.0,0.0,0.0,0.0,0.0,0.0,0.0,0.0,0.0,0.0,0.0,0.0,0.0,0.0,0.0,0.0,0.0,0.0,0.0,0.0,0.0,0.0,0.0,0.0,0.0,0.0,0.0,0.0,0.0,0.0,0.0,0.0,0.0,0.0,0.0,0.0,0.0,0.0,0.0,0.0,0.0,0.0,0.0,0.0,0.0,0.0,0.0,0.0,0.0,0.0,0.0,0.0,0.0,0.0,0.0,0.0,0.0,0.0,0.0,0.0,0.0,0.0,0.0,0.0,0.0,0.0,0.0,2.4915,2.4935,2.5107,2.5191,2.5191,2.5174,2.5075,2.4908,0.0,0.0,0.0,0.0,0.0,0.0,0.0,0.0,0.0,0.0,0.0,0.0,0.0,0.0,0.0,0.0,0.0,0.0,0.0,0.0,0.0,0.0,0.0,0.0,0.0,0.0,0.0,0.0,0.0,0.0,0.0,0.0,0.0,0.0,0.0,0.0,0.0,0.0,0.0,0.0,0.0,0.0,0.0,0.0,0.0,0.0,0.0,0.0,0.0,0.0,0.0,0.0,0.0,0.0,0.0,0.0,0.0,0.0,0.0,0.0,0.0,0.0,0.0,0.0,0.0,0.0,0.0,0.0,0.0,0.0,0.0,0.0,0.0,0.0,0.0,0.0,0.0,0.0,0.0,0.0,0.0,0.0,0.0,0.0,0.0,0.0,0.0,0.0,0.0,0.0,0.0,0.0,0.0,0.0,0.0,0.0,0.0,0.0,0.0,0.0,0.0,0.0,0.0,0.0,2.4974,2.515,2.518,2.5191,2.5191,2.5044,2.4929,2.4902,0.0,0.0,0.0,0.0,0.0,0.0,0.0,0.0,0.0,0.0,0.0,0.0,0.0,0.0,0.0,0.0,0.0,0.0,0.0,0.0,0.0,0.0,0.0,0.0,0.0,0.0,0.0,0.0,0.0,0.0,0.0,0.0,0.0,0.0,0.0,0.0,0.0,0.0,0.0,0.0,0.0,0.0,0.0,0.0,0.0,0.0,0.0,0.0,0.0,0.0,0.0,0.0,0.0,0.0,0.0,0.0,0.0,0.0,0.0,0.0,0.0,0.0,0.0,0.0,0.0,0.0,0.0,0.0,0.0,0.0,0.0,0.0,0.0,0.0,0.0,0.0,0.0,0.0,0.0,0.0,0.0,0.0,0.0,0.0,0.0,0.0,0.0,0.0,0.0,0.0,0.0,0.0,0.0,0.0,0.0,0.0,0.0,0.0,0.0,0.0,0.0,0.0,0.0,2.5438,2.5786,2.5829,2.6181,2.6211,2.5786,2.5561,2.5295,2.4914,2.4336,0.0,0.0,0.0,0.0,0.0,0.0,0.0,0.0,0.0,0.0,0.0,0.0,0.0,0.0,0.0,0.0,0.0,0.0,0.0,0.0,0.0,0.0,0.0,0.0,0.0,0.0,0.0,0.0,0.0,0.0,0.0,0.0,0.0,0.0,0.0,0.0,0.0,0.0,0.0,0.0,0.0,0.0,0.0,0.0,0.0,0.0,0.0,0.0,0.0,0.0,0.0,0.0,0.0,0.0,0.0,0.0,0.0,0.0,0.0,0.0,0.0,0.0,0.0,0.0,0.0,0.0,0.0,0.0,0.0,0.0,0.0,0.0,0.0,0.0,0.0,0.0,0.0,0.0,0.0,0.0,0.0,0.0,0.0,0.0,0.0,0.0,0.0,0.0,0.0,0.0,0.0,0.0,0.0,0.0,0.0,0.0,0.0,0.0,0.0,0.0,0.0,0.0,2.6063,2.6547,2.6695,2.7176,2.7227,2.6607,2.619,2.5748,2.5236,2.4709,0.0,0.0,0.0,0.0,0.0,0.0,0.0,0.0,0.0,0.0,0.0,0.0,0.0,0.0,0.0,0.0,0.0,0.0,0.0,0.0,0.0,0.0,0.0,0.0,0.0,0.0,0.0,0.0,0.0,0.0,0.0,0.0,0.0,0.0,0.0,0.0,0.0,0.0,0.0,0.0,0.0,0.0,0.0,0.0,0.0,0.0,0.0,0.0,0.0,0.0,0.0,0.0,0.0,0.0,0.0,0.0,0.0,0.0,0.0,0.0,0.0,0.0,0.0,0.0,0.0,0.0,0.0,0.0,0.0,0.0,0.0,0.0,0.0,0.0,0.0,0.0,0.0,0.0,0.0,0.0,0.0,0.0,0.0,0.0,0.0,0.0,0.0,0.0,0.0,0.0,0.0,0.0,0.0,0.0,0.0,0.0,0.0,0.0,0.0,0.0,0.0,0.0,2.637,2.6714,2.7529,2.765,2.7663,2.7612,2.6723,2.6164,2.6103,2.5027,0.0,0.0,0.0,0.0,0.0,0.0,0.0,0.0,0.0,0.0,0.0,0.0,0.0,0.0,0.0,0.0,0.0,0.0,0.0,0.0,0.0,0.0,0.0,0.0,0.0,0.0,0.0,0.0,0.0,0.0,0.0,0.0,0.0,0.0,0.0,0.0,0.0,0.0,0.0,0.0,0.0,0.0,0.0,0.0,0.0,0.0,0.0,0.0,0.0,0.0,0.0,0.0,0.0,0.0,0.0,0.0,0.0,0.0,0.0,0.0,0.0,0.0,0.0,0.0,0.0,0.0,0.0,0.0,0.0,0.0,0.0,0.0,0.0,0.0,0.0,0.0,0.0,0.0,0.0,0.0,0.0,0.0,0.0,0.0,0.0,0.0,0.0,0.0,0.0,0.0,0.0,0.0,0.0,0.0,0.0,0.0,0.0,0.0,0.0,0.0,0.0,0.0,2.7357,2.8128,2.8421,2.8808,2.8878,2.836,2.7858,2.714,2.6084,0.0,0.0,0.0,0.0,0.0,0.0,0.0,0.0,0.0,0.0,0.0,0.0,0.0,0.0,0.0,0.0,0.0,0.0,0.0,0.0,0.0,0.0,0.0,0.0,0.0,0.0,0.0,0.0,0.0,0.0,0.0,0.0,0.0,0.0,0.0,0.0,0.0,0.0,0.0,0.0,0.0,0.0,0.0,0.0,0.0,0.0,0.0,0.0,0.0,0.0,0.0,0.0,0.0,0.0,0.0,0.0,0.0,0.0,0.0,0.0,0.0,0.0,0.0,0.0,0.0,0.0,0.0,0.0,0.0,0.0,0.0,0.0,0.0,0.0,0.0,0.0,0.0,0.0,0.0,0.0,0.0,0.0,0.0,0.0,0.0,0.0,0.0,0.0,0.0,0.0,0.0,0.0,0.0,0.0,0.0,0.0,0.0,0.0,0.0,0.0,0.0,0.0,2.6753,2.8313,2.9467,2.97,3.0315,3.0379,2.955,2.9036,2.8022,2.6328,0.0,0.0,0.0,0.0,0.0,0.0,0.0,0.0,0.0,0.0,0.0,0.0,0.0,0.0,0.0,0.0,0.0,0.0,0.0,0.0,0.0,0.0,0.0,0.0,0.0,0.0,0.0,0.0,0.0,0.0,0.0,0.0,0.0,0.0,0.0,0.0,0.0,0.0,0.0,0.0,0.0,0.0,0.0,0.0,0.0,0.0,0.0,0.0,0.0,0.0,0.0,0.0,0.0,0.0,0.0,0.0,0.0,0.0,0.0,0.0,0.0,0.0,0.0,0.0,0.0,0.0,0.0,0.0,0.0,0.0,0.0,0.0,0.0,0.0,0.0,0.0,0.0,0.0,0.0,0.0,0.0,0.0,0.0,0.0,0.0,0.0,0.0,0.0,0.0,0.0,0.0,0.0,0.0,0.0,0.0,0.0,0.0,0.0,0.0,0.0,0.0,0.0,2.7587,2.9172,3.0548,3.1427,3.2036,3.2067,3.1278,3.016,2.8774,0.0,0.0,0.0,0.0,0.0,0.0,0.0,0.0,0.0,0.0,0.0,0.0,0.0,0.0,0.0,0.0,0.0,0.0,0.0,0.0,0.0,0.0,0.0,0.0,0.0,0.0,0.0,0.0,0.0,0.0,0.0,0.0,0.0,0.0,0.0,0.0,0.0,0.0,0.0,0.0,0.0,0.0,0.0,0.0,0.0,0.0,0.0,0.0,0.0,0.0,0.0,0.0,0.0,0.0,0.0,0.0,0.0,0.0,0.0,0.0,0.0,0.0,0.0,0.0,0.0,0.0,0.0,0.0,0.0,0.0,0.0,0.0,0.0,0.0,0.0,0.0,0.0,0.0,0.0,0.0,0.0,0.0,0.0,0.0,0.0,0.0,0.0,0.0,0.0,0.0,0.0,0.0,0.0,0.0,0.0,0.0,0.0,0.0,0.0,0.0,0.0,0.0,0.0,2.8267,2.9702,3.1002,3.2032,3.2128,3.2023,3.1778,3.0941,2.9896,2.8673,0.0,0.0,0.0,0.0,0.0,0.0,0.0,0.0,0.0,0.0,0.0,0.0,0.0,0.0,0.0,0.0,0.0,0.0,0.0,0.0,0.0,0.0,0.0,0.0,0.0,0.0,0.0,0.0,0.0,0.0,0.0,0.0,0.0,0.0,0.0,0.0,0.0,0.0,0.0,0.0,0.0,0.0,0.0,0.0,0.0,0.0,0.0,0.0,0.0,0.0,0.0,0.0,0.0,0.0,0.0,0.0,0.0,0.0,0.0,0.0,0.0,0.0,0.0,0.0,0.0,0.0,0.0,0.0,0.0,0.0,0.0,0.0,0.0,0.0,0.0,0.0,0.0,0.0,0.0,0.0,0.0,0.0,0.0,0.0,0.0,0.0,0.0,0.0,0.0,0.0,0.0,0.0,0.0,0.0,0.0,0.0,0.0,0.0,0.0,0.0,0.0,0.0,2.8883,3.0641,3.2172,3.3128,3.302,3.2881,3.2881,3.2039,3.0843,2.9277,0.0,0.0,0.0,0.0,0.0,0.0,0.0,0.0,0.0,0.0,0.0,0.0,0.0,0.0,0.0,0.0,0.0,0.0,0.0,0.0,0.0,0.0,0.0,0.0,0.0,0.0,0.0,0.0,0.0,0.0,0.0,0.0,0.0,0.0,0.0,0.0,0.0,0.0,0.0,0.0,0.0,0.0,0.0,0.0,0.0,0.0,0.0,0.0,0.0,0.0,0.0,0.0,0.0,0.0,0.0,0.0,0.0,0.0,0.0,0.0,0.0,0.0,0.0,0.0,0.0,0.0,0.0,0.0,0.0,0.0,0.0,0.0,0.0,0.0,0.0,0.0,0.0,0.0,0.0,0.0,0.0,0.0,0.0,0.0,0.0,0.0,0.0,0.0,0.0,0.0,0.0,0.0,0.0,0.0,0.0,0.0,0.0,0.0,0.0,0.0,0.0,0.0,2.9681,3.1892,3.369,3.4607,3.4516,3.4383,3.4383,3.3362,3.1775,2.9574,0.0,0.0,0.0,0.0,0.0,0.0,0.0,0.0,0.0,0.0,0.0,0.0,0.0,0.0,0.0,0.0,0.0,0.0,0.0,0.0,0.0,0.0,0.0,0.0,0.0,0.0,0.0,0.0,0.0,0.0,0.0,0.0,0.0,0.0,0.0,0.0,0.0,0.0,0.0,0.0,0.0,0.0,0.0,0.0,0.0,0.0,0.0,0.0,0.0,0.0,0.0,0.0,0.0,0.0,0.0,0.0,0.0,0.0,0.0,0.0,2.3998,2.2455,0.0,0.0,0.0,0.0,0.0,0.0,0.0,0.0,0.0,0.0,0.0,0.0,0.0,0.0,0.0,0.0,0.0,0.0,0.0,0.0,0.0,0.0,0.0,0.0,0.0,0.0,0.0,0.0,0.0,0.0,0.0,0.0,0.0,0.0,0.0,0.0,0.0,0.0,0.0,0.0,3.1965,3.3105,3.4313,3.5987,3.5964,3.5851,3.5851,3.4435,3.333,3.2816,3.0399,0.0,0.0,0.0,0.0,0.0,0.0,0.0,0.0,0.0,0.0,0.0,0.0,0.0,0.0,0.0,0.0,0.0,0.0,0.0,0.0,0.0,0.0,0.0,0.0,0.0,0.0,0.0,0.0,0.0,0.0,0.0,0.0,0.0,0.0,0.0,0.0,0.0,0.0,0.0,0.0,0.0,0.0,0.0,0.0,0.0,0.0,0.0,0.0,0.0,0.0,0.0,0.0,0.0,0.0,0.0,0.0,0.0,0.0,0.0,2.5717,2.4512,0.0,0.0,0.0,0.0,0.0,0.0,0.0,0.0,0.0,0.0,0.0,0.0,0.0,0.0,0.0,0.0,0.0,0.0,0.0,0.0,0.0,0.0,0.0,0.0,0.0,0.0,0.0,0.0,0.0,0.0,0.0,0.0,0.0,0.0,0.0,0.0,0.0,0.0,0.0,0.0,3.3337,3.4402,3.5515,3.6888,3.6591,3.645,3.685,3.5716,3.4816,3.4399,3.2436,0.0,0.0,0.0,0.0,0.0,0.0,0.0,0.0,0.0,0.0,0.0,0.0,0.0,0.0,0.0,0.0,0.0,0.0,0.0,0.0,0.0,0.0,0.0,0.0,0.0,0.0,0.0,0.0,0.0,0.0,0.0,0.0,0.0,0.0,0.0,0.0,0.0,0.0,0.0,0.0,0.0,0.0,0.0,0.0,0.0,0.0,0.0,0.0,0.0,0.0,0.0,0.0,0.0,2.9373,2.9471,2.9598,2.9598,2.9561,2.9455,2.8161,2.727,2.672,2.6852,0.0,0.0,0.0,0.0,0.0,0.0,0.0,0.0,0.0,0.0,0.0,0.0,0.0,0.0,0.0,0.0,0.0,0.0,0.0,0.0,0.0,0.0,2.8365,2.8397,2.8989,2.9197,2.7912,0.0,0.0,0.0,0.0,0.0,0.0,0.0,0.0,0.0,0.0,0.0,3.4821,3.6003,3.7074,3.8043,3.7533,3.7404,3.808,3.7386,3.656,3.5701,3.4761,3.3227,0.0,0.0,0.0,0.0,0.0,0.0,0.0,0.0,0.0,0.0,0.0,0.0,0.0,0.0,0.0,0.0,0.0,0.0,0.0,0.0,0.0,0.0,0.0,0.0,0.0,0.0,0.0,0.0,0.0,0.0,0.0,0.0,2.126,2.1468,0.0,0.0,0.0,0.0,0.0,0.0,0.0,0.0,0.0,0.0,0.0,0.0,0.0,2.863,2.9313,2.944,3.0237,3.1741,3.1755,3.2117,3.2788,3.2788,3.2792,3.2759,3.2574,0.0,2.8397,2.8391,0.0,0.0,0.0,0.0,0.0,0.0,0.0,0.0,0.0,0.0,0.0,0.0,0.0,0.0,0.0,0.0,0.0,0.0,0.0,0.0,0.0,0.0,2.999,3.0686,3.1499,3.2056,3.1849,3.0161,2.8675,2.8675,2.8675,2.8913,0.0,0.0,0.0,0.0,0.0,0.0,3.7842,3.8264,3.8964,4.0453,4.0526,4.0508,4.0618,3.9882,3.9074,3.8251,3.6798,3.5243,3.3661,3.1224,0.0,0.0,0.0,0.0,0.0,0.0,0.0,0.0,0.0,0.0,0.0,0.0,0.0,0.0,0.0,0.0,0.0,0.0,0.0,0.0,0.0,0.0,0.0,0.0,0.0,0.0,0.0,0.0,0.0,2.2093,2.2962,2.3415,2.4194,2.4961,0.0,0.0,0.0,0.0,0.0,0.0,0.0,0.0,0.0,2.9409,3.0206,3.1238,3.2488,3.2488,3.3085,3.4226,3.4226,3.4407,3.4751,3.4751,3.4751,3.4751,3.4751,3.3973,3.2589,3.127,3.093,3.1175,0.0,0.0,0.0,0.0,2.9339,2.8682,2.8483,2.84,2.8418,2.8456,0.0,0.0,0.0,0.0,0.0,0.0,0.0,3.2031,3.2156,3.2586,3.3073,3.3316,3.4055,3.4688,3.4688,3.4192,3.3366,3.1971,3.1826,3.1997,3.218,3.2992,0.0,0.0,0.0,3.7811,3.9339,3.9847,4.0306,4.1022,4.1095,4.1095,4.1095,4.0765,4.0432,4.0068,3.8542,3.7154,3.6053,3.3259,3.1196,0.0,0.0,0.0,0.0,0.0,0.0,0.0,0.0,0.0,0.0,0.0,0.0,0.0,0.0,0.0,0.0,0.0,0.0,0.0,0.0,0.0,0.0,0.0,0.0,0.0,0.0,0.0,0.0,2.3632,2.4483,2.5497,2.6138,2.6898,0.0,0.0,0.0,0.0,0.0,0.0,2.9812,3.0586,3.1292,3.189,3.2705,3.3791,3.5204,3.5204,3.5729,3.6709,3.6709,3.6817,3.6998,3.6998,3.6998,3.6998,3.6998,3.6998,3.6799,3.4253,3.3369,3.3622,3.3184,3.2774,3.2426,3.2453,3.1998,3.1348,3.1157,3.1068,3.1085,3.1095,3.1069,3.105,3.1214,0.0,0.0,0.0,0.0,3.5242,3.5006,3.5664,3.6366,3.6221,3.6759,3.7315,3.7315,3.796,3.7765,3.5248,3.5061,3.5282,3.5096,3.5772,0.0,3.7322,3.8571,3.974,4.0618,4.113,4.148,4.1682,4.1717,4.1717,4.1717,4.1717,4.1658,4.1517,4.0391,3.9175,3.7956,3.5504,3.3414,3.182,0.0,0.0,0.0,0.0,0.0,0.0,0.0,0.0,0.0,0.0,0.0,0.0,0.0,0.0,0.0,0.0,0.0,0.0,0.0,0.0,0.0,0.0,0.0,0.0,0.0,0.0,0.0,0.0,0.0,2.7079,2.7314,0.0,0.0,0.0,0.0,3.189,3.2017,3.2343,3.3121,3.3918,3.4389,3.4425,3.5188,3.6019,3.6868,3.6886,3.7665,3.9206,3.9206,3.9586,4.0257,4.0257,4.0257,4.0257,4.0257,4.0257,4.0021,3.6908,3.5781,3.6053,3.6416,3.6224,3.5764,3.5826,3.5296,3.4548,3.435,3.4269,3.4269,3.4348,3.448,3.4669,3.4865,3.5567,0.0,0.0,3.7124,3.8409,3.8131,3.8724,3.9375,3.9375,3.9735,4.0085,4.0085,4.0725,4.0511,3.7827,3.7933,3.8465,3.8469,0.0,3.997,3.9758,4.0661,4.157,4.2116,4.2229,4.2525,4.3313,4.3386,4.3386,4.3386,4.3386,4.3153,4.2637,4.2537,4.1456,3.9124,3.8152,3.6129,3.2883,3.1992,0.0,0.0,0.0,0.0,0.0,0.0,0.0,0.0,0.0,0.0,0.0,0.0,0.0,0.0,0.0,0.0,0.0,0.0,0.0,0.0,0.0,0.0,0.0,0.0,0.0,0.0,0.0,0.0,2.8811,2.9862,0.0,3.1999,3.2596,3.3339,3.4443,3.4519,3.4878,3.5657,3.5998,3.6616,3.7667,3.7975,3.8482,3.9242,3.926,3.955,4.0111,4.0111,4.0256,4.0492,4.0492,4.0492,4.0492,4.0492,4.0492,4.0401,3.9279,3.8698,3.8508,3.8289,3.8221,3.8274,3.8461,3.8344,3.8079,3.8111,3.8092,3.8112,3.8231,3.8328,3.8356,3.8261,3.8802,3.9416,3.9192,3.9953,4.0796,4.0722,4.0904,4.113,4.113,4.1278,4.1319,4.1124,4.1698,4.1946,4.0825,4.0551,4.0446,4.0281,4.0565,4.0964,4.1385,4.1779,4.2271,4.2982,4.3057,4.3167,4.3478,4.3515,4.3515,4.3515,4.3515,4.3419,4.324,4.2724,4.2118,4.1452,4.0146,3.8721,3.7168,3.5797,3.417,0.0,0.0,0.0,0.0,0.0,0.0,0.0,0.0,0.0,0.0,0.0,0.0,0.0,0.0,0.0,0.0,0.0,0.0,0.0,0.0,0.0,0.0,0.0,0.0,0.0,2.8726,2.9807,3.0889,3.2198,3.3339,3.4135,3.4932,3.5747,3.6562,3.687,3.7359,3.8138,3.8174,3.8663,3.9731,3.9767,4.0148,4.089,4.089,4.1035,4.1307,4.1307,4.1307,4.1307,4.1307,4.1307,4.1307,4.1307,4.1307,4.1307,4.1307,4.1124,4.0778,3.9995,3.9834,4.0088,4.047,4.0608,4.0632,4.0808,4.0912,4.0954,4.1044,4.1112,4.1103,4.0926,4.1246,4.164,4.1507,4.2047,4.2678,4.2678,4.2886,4.3106,4.3106,4.3032,4.2936,4.2884,4.3223,4.354,4.3511,4.2783,4.2108,4.1934,4.1919,4.2209,4.315,4.2939,4.3126,4.4329,4.4135,4.4011,4.4268,4.4322,4.4322,4.4322,4.4426,4.4365,4.409,4.3687,4.3225,4.272,4.1694,4.0696,3.9789,3.8322,3.6688,3.4879,0.0,0.0,0.0,0.0,0.0,0.0,0.0,0.0,0.0,0.0,0.0,0.0,0.0,0.0,0.0,0.0,0.0,0.0,0.0,0.0,0.0,0.0,0.0,2.8853,3.0097,3.1673,3.3284,3.4208,3.5023,3.5804,3.6616,3.743,3.8209,3.8989,3.9767,4.0492,4.0528,4.0546,4.0564,4.0601,4.0981,4.1759,4.1795,4.2212,4.2973,4.2973,4.2973,4.2973,4.2973,4.2973,4.2973,4.2973,4.2973,4.2973,4.2973,4.2973,4.2848,4.1634,4.1174,4.1254,4.1838,4.207,4.2108,4.2382,4.2553,4.2664,4.2664,4.2768,4.286,4.286,4.2889,4.2928,4.2928,4.3501,4.4121,4.4121,4.4732,4.5362,4.5362,4.511,4.5004,4.5505,4.5416,4.5358,4.5809,4.4635,4.357,4.357,4.357,4.3947,4.5053,4.4269,0.0,4.6145,4.5415,4.5039,4.5828,4.592,4.592,4.592,4.6217,4.6064,4.527,4.5503,4.4799,4.2865,4.2753,4.2006,4.0421,3.9338,3.8379,3.7516,0.0,0.0,0.0,0.0,0.0,0.0,0.0,0.0,0.0,0.0,0.0,0.0,0.0,0.0,0.0,0.0,0.0,0.0,0.0,0.0,0.0,3.1492,3.2325,3.2107,3.2469,3.3339,3.4953,3.6363,3.7286,3.7522,3.8753,3.9641,3.9858,4.0075,4.0528,4.1325,4.1361,4.1651,4.2212,4.281,4.3226,4.3444,4.4023,4.4421,4.4639,4.4639,4.4639,4.4639,4.4639,4.4639,4.4639,4.4639,4.4639,4.4639,4.4639,4.4639,4.4515,4.3195,4.2696,4.2748,4.3109,4.3413,4.3671,4.3758,4.3989,4.4279,4.4279,4.4361,4.4462,4.4462,4.4946,4.5488,4.5488,4.6099,4.6757,4.6757,4.6755,4.6745,4.6745,4.649,4.6242,4.6187,4.6118,4.6027,4.5919,4.5535,4.5241,4.5241,4.5241,4.535,4.5659,4.5441,4.5424,4.5971,4.5772,4.5752,4.6197,4.6249,4.6249,4.6249,4.6349,4.619,4.575,4.5247,4.4846,4.4525,4.4154,4.3538,4.2718,4.1396,4.0526,0.0,0.0,0.0,0.0,0.0,0.0,0.0,0.0,0.0,0.0,0.0,0.0,0.0,0.0,0.0,0.0,0.0,0.0,0.0,0.0,0.0,0.0,3.3628,3.5023,3.5349,3.5403,3.5765,3.6689,3.8192,3.9152,3.9152,4.0275,4.0999,4.0999,4.1633,4.2212,4.2683,4.3008,4.3425,4.3878,4.4349,4.4603,4.4603,4.5073,4.5291,4.5291,4.5291,4.5291,4.5291,4.5291,4.5291,4.5291,4.5291,4.537,4.5507,4.5507,4.5584,4.5569,0.0,0.0,0.0,0.0,4.4759,4.5047,4.5047,4.5382,4.5778,4.5778,4.5968,4.6229,4.6229,4.6617,4.7043,4.7043,4.732,4.7589,4.7589,4.7334,4.7089,4.7089,4.693,4.6787,4.6812,4.6854,4.688,4.6875,4.6892,0.0,4.7388,4.6581,4.6048,4.654,4.6212,4.6177,4.7002,4.6709,4.6617,4.7127,4.7199,4.7199,4.7199,4.7319,0.0,0.0,0.0,4.5781,4.55,4.5007,0.0,0.0,0.0,4.23,4.2147,4.1615,0.0,0.0,3.708,3.6643,0.0,0.0,0.0,0.0,0.0,0.0,0.0,0.0,0.0,0.0,0.0,0.0,0.0,0.0,0.0,0.0,3.5745,3.7448,3.8336,3.8536,3.8554,3.8464,3.9749,4.0637,4.0637,4.1451,4.1958,4.1958,4.3389,4.424,4.424,4.491,0.0,0.0,0.0,4.5436,4.5436,4.5617,4.5707,4.5707,4.5798,4.5834,4.5834,4.5834,4.5834,4.5834,4.5834,4.6014,4.6284,4.6322,4.6507,4.6649,4.575,4.539,4.539,4.5623,4.5865,4.6044,4.6044,0.0,0.0,4.6899,4.7235,4.7624,4.7624,4.7712,4.78,4.78,4.765,4.75,4.7594,4.7391,4.7158,4.7233,4.7239,4.7301,4.7659,4.7845,4.805,4.8413,4.8522,4.8838,4.961,4.7829,4.669,4.7784,4.7112,4.7077,4.8786,4.8145,4.781,4.8565,4.8639,0.0,4.8639,4.8826,4.8492,4.7462,4.7478,4.7067,4.5993,4.5551,4.5358,4.5372,4.4482,4.4011,4.4011,4.346,4.3194,4.3176,4.1399,4.0443,0.0,0.0,0.0,0.0,0.0,0.0,0.0,0.0,0.0,0.0,0.0,0.0,0.0,0.0,0.0,3.6941,3.7665,3.8462,3.9858,4.0601,4.0782,4.013,4.089,4.1469,4.1469,4.2792,4.3643,4.3643,4.453,4.5073,4.5073,4.5218,4.5291,4.5291,4.5924,4.6269,4.6269,4.7572,4.8185,4.8203,4.8858,0.0,4.9188,4.9188,4.9188,4.9188,4.9188,4.9209,4.9277,4.9551,4.9834,4.9806,4.7094,4.5883,4.5717,4.5754,4.5791,4.5792,4.5792,4.6009,4.6266,4.6266,4.6413,4.6582,4.6582,4.7158,0.0,4.7808,4.8212,4.8821,4.9479,4.9401,4.9306,4.9954,4.9894,4.9731,4.9795,4.9931,5.0046,5.011,5.0226,5.038,5.0545,4.9591,4.9134,5.0038,4.9999,4.9978,5.035,5.0218,5.0241,5.0676,5.0731,5.0731,5.0713,5.0137,4.9565,4.9152,4.7923,4.6928,4.6325,4.6224,4.6275,4.6484,4.6555,4.6575,4.6575,4.5835,4.5578,4.5736,4.3405,4.2297,0.0,0.0,0.0,0.0,0.0,0.0,0.0,0.0,0.0,0.0,0.0,3.2811,3.4314,0.0,3.6905,3.8026,3.9188,4.022,4.0981,4.214,4.2447,4.1234,4.2176,4.29,4.29,4.3987,4.4693,4.4693,4.5454,4.5906,4.5906,4.6667,4.7102,4.7102,4.788,4.8297,4.8297,4.9094,4.9492,4.951,4.9908,5.0112,5.0112,5.0112,5.0112,5.0112,5.0112,5.0181,5.0335,5.065,5.0889,5.0859,4.9379,4.8641,4.8402,4.8402,4.8383,4.8327,4.8191,4.8364,4.8622,4.8458,4.8603,4.8846,4.8846,4.9193,4.9612,4.9612,4.9775,5.0043,5.0452,5.0303,5.0158,5.0541,5.0568,5.048,5.0417,5.0561,5.0682,5.0604,5.0703,5.093,5.1334,5.1041,5.0747,5.0802,5.0743,5.0723,5.0782,5.0743,5.0785,5.1023,5.1042,5.1042,5.1062,5.0636,5.0338,5.0216,4.9407,4.8676,4.8034,4.759,4.7218,4.6945,4.6891,4.6851,4.6851,4.6577,4.652,4.6632,4.5388,4.4685,0.0,0.0,0.0,0.0,0.0,0.0,0.0,3.0623,3.1344,3.3422,3.412,3.4739,3.6032,3.7594,3.8715,3.886,4.0474,4.1813,4.2121,4.3281,4.3679,4.2519,4.3534,4.4331,4.4331,4.5055,4.5599,4.5743,4.6504,4.7029,4.7192,4.8442,4.9148,4.9148,4.9764,5.0112,5.0112,5.0275,5.0347,5.0347,5.0492,5.0583,5.0583,5.0583,5.0583,5.0583,5.0583,5.0722,5.1023,5.1268,5.1407,5.1505,5.1695,5.1658,5.1432,5.1194,5.1064,5.097,5.0752,5.0892,5.1121,5.0856,5.1028,5.1318,5.1318,5.1318,5.1318,5.1372,5.1121,5.089,5.1077,5.0849,5.0626,5.0794,5.0955,5.1018,5.0851,5.1124,5.1345,5.1165,5.1244,5.1547,5.2312,5.23,5.1974,5.1371,5.1161,5.1119,5.122,5.114,5.1119,5.122,5.124,5.1206,5.1041,5.1041,5.0967,5.082,5.0802,5.0508,4.9867,4.915,4.8489,4.7828,4.7495,4.7352,4.7352,4.7242,4.7226,4.7286,4.6828,4.649,2.726,2.7785,2.8509,2.9331,2.9544,3.0173,0.0,3.3009,3.3513,3.5186,3.6123,3.69,3.7774,3.8679,3.9748,4.1089,4.1524,4.2193,4.3625,4.3987,4.4295,4.4838,4.5055,4.5164,4.5164,4.5888,4.6667,4.7391,4.8167,4.8949,4.9677,4.9876,4.9963,4.9963,5.0057,5.0112,5.0112,5.0796,5.118,5.1158,5.1882,5.2226,5.2226,5.2226,5.2226,5.2226,5.2226,5.2413,5.2724,5.2767,5.292,5.313,5.315,5.315,5.2985,5.1844,5.1268,5.0989,5.0969,5.0989,5.1027,5.0989,5.0989,5.1046,5.1046,5.1046,5.1083,5.1249,5.0988,5.0835,5.1659,5.1548,5.1389,5.2172,5.2554,5.2659,5.2403,5.295,5.3385,5.313,5.3151,5.3384,5.3956,5.3395,5.2917,5.2928,5.2807,5.2724,5.2746,5.2746,5.2724,5.2746,5.2868,5.2637,5.1922,5.1867,5.1555,5.0857,5.0802,5.0765,5.0674,5.0582,5.049,5.0398,5.0639,5.0748,5.0749,4.9298,4.8739,4.8959,4.6935,4.6261,2.95,3.0423,3.1473,3.1799,3.2333,3.313,3.4492,3.4879,3.5393,3.6884,3.7466,3.8082,3.9315,4.0324,4.1122,4.1633,4.2614,4.3505,4.4044,4.491,4.5617,4.5961,4.683,4.721,4.6739,4.7407,4.8242,4.9039,4.9401,4.9745,5.0093,5.0546,5.0818,5.0818,5.1249,5.1484,5.1484,5.1828,5.1991,5.1991,5.2335,5.2498,5.2498,5.2498,5.2498,5.2498,5.2498,5.2572,5.2708,5.2708,5.2779,5.2897,5.3091,5.3175,5.3146,5.2976,5.2809,5.2679,5.2679,5.2679,5.2661,5.2451,5.2392,5.2392,5.2392,5.2392,5.2412,5.249,5.227,5.209,5.2485,5.2295,5.2086,5.2458,5.2649,5.2743,5.2613,5.3078,5.3506,5.3469,5.3585,5.3776,5.4069,5.3814,5.3585,5.3642,5.33,5.3109,5.3365,5.3112,5.2872,5.2872,5.2934,5.2827,5.248,5.2483,5.2316,5.1987,5.195,5.1749,5.1295,5.1337,5.1158,5.0682,5.0905,5.1004,5.1003,5.0302,4.999,5.0028,4.908,4.8864,3.2252,3.3176,3.4063,3.4063,3.46,3.5311,3.5978,3.6417,3.7057,3.836,3.8798,3.9378,4.0793,4.1643,4.219,4.2432,4.3542,4.4489,4.4732,4.5761,4.6667,4.712,4.8206,4.8837,4.8713,4.9021,4.9564,5.0361,5.0438,5.0546,5.0764,5.1303,5.1629,5.1629,5.219,5.2498,5.2498,5.2498,5.2498,5.2498,5.2498,5.2498,5.2498,5.2498,5.2498,5.2498,5.2498,5.2498,5.2498,5.2498,5.2498,5.2503,5.2775,5.2868,5.2934,5.3464,5.3719,5.3757,5.3757,5.3757,5.3719,5.3487,5.3407,5.3407,5.3407,5.3407,5.3407,5.3487,5.3261,5.302,5.3048,5.2761,5.2498,5.2526,5.2627,5.2698,5.2613,5.3096,5.3545,5.3549,5.3757,5.3981,5.421,5.4033,5.3961,5.421,5.3701,5.3365,5.3605,5.318,5.2868,5.2868,5.2868,5.2828,5.2806,5.2806,5.2806,5.2806,5.2806,5.255,5.1967,5.2014,5.1822,5.1261,5.1362,5.1422,5.1463,5.1242,5.1116,5.1121,5.0901,5.0988,3.5442,3.5677,3.5731,3.5731,3.5747,3.5983,3.6777,3.7575,3.8437,3.9431,4.0282,4.1152,4.2242,4.2244,4.2608,4.4145,4.4233,4.4658,4.6214,4.6468,4.7083,4.8637,4.8873,4.951,5.1031,5.051,5.042,5.1194,5.1249,5.1593,5.2389,5.2444,5.2462,5.2462,5.248,5.2498,5.2498,5.2498,5.2498,5.2498,5.2498,5.2498,5.2498,5.2498,5.2498,5.2498,5.2498,5.2498,5.2498,5.2498,5.2498,5.2498,5.2521,5.2521,5.2567,5.2912,5.3178,5.3427,5.3427,5.3427,5.3407,5.3407,5.3407,5.3407,5.3407,5.3407,5.3428,5.3644,5.3365,5.3045,5.3146,5.2839,5.2503,5.2586,5.2806,5.2915,5.2676,5.3428,5.4089,5.3777,5.3962,5.4334,5.4791,5.4177,5.3907,5.4745,5.4366,5.3851,5.3549,5.3201,5.2999,5.2999,5.2999,5.2955,5.2806,5.2806,5.2806,5.2806,5.2806,5.2783,5.2747,5.2769,5.2813,5.2926,5.2926,5.3008,5.3133,5.2344,5.2126,5.2419,5.1639,5.1463,3.6524,3.6979,3.725,3.6725,3.7395,3.8264,3.8535,3.9322,4.0238,4.1107,4.1508,4.1982,4.2875,4.297,4.3177,4.4105,4.4762,4.5471,4.6361,4.7428,4.8275,4.8837,4.9836,5.0705,5.1249,5.1049,5.1212,5.2027,5.21,5.2208,5.248,5.2498,5.2498,5.2498,5.2498,5.2498,5.2498,5.2498,5.2498,5.2498,5.2498,5.2498,5.2498,5.2498,5.2498,5.2498,5.2498,5.2498,5.2498,5.2498,5.2498,5.2498,5.2498,5.2498,5.2521,5.2618,5.2735,5.2853,5.3244,5.3407,5.3407,5.3407,5.3407,5.3407,5.3407,5.3407,5.3408,5.3468,5.3261,5.3002,5.3069,5.2783,5.2521,5.2526,5.2618,5.264,5.2554,5.3005,5.3405,5.337,5.3701,5.4089,5.4384,5.4332,5.4366,5.4664,5.453,5.4192,5.3587,5.3368,5.3117,5.2765,5.269,5.2663,5.2595,5.2595,5.2595,5.2595,5.2595,5.2595,5.2595,5.2649,5.2698,5.2743,5.3027,5.3279,5.3407,5.3346,5.3405,5.3567,5.3287,5.3328,3.7526,3.8105,3.8629,3.8214,3.9106,4.0075,4.0075,4.0809,4.1654,4.2251,4.2599,4.3,4.3636,4.3579,4.3739,4.4656,4.5219,4.5889,4.6796,4.8079,4.8999,4.9293,5.0488,5.1411,5.1701,5.1719,5.1937,5.2462,5.2498,5.2498,5.2498,5.2498,5.2498,5.2498,5.2498,5.2498,5.2498,5.2498,5.2498,5.2498,5.2498,5.2498,5.2498,5.2498,5.2498,5.2498,5.2498,5.2498,5.2498,5.2498,5.2498,5.2498,5.2498,5.2498,5.2498,5.2498,5.2498,5.2549,5.2944,5.3093,5.3093,5.3093,5.3093,5.3093,5.3093,5.3093,5.3093,5.3093,5.2962,5.2824,5.2824,5.2663,5.2498,5.2498,5.2498,5.2498,5.2498,5.2757,5.3023,5.3099,5.3447,5.3758,5.3888,5.4159,5.4366,5.4451,5.4549,5.4397,5.387,5.3606,5.3348,5.2953,5.2765,5.2663,5.2618,5.2554,5.2572,5.2618,5.2526,5.2503,5.2531,5.2559,5.2676,5.2882,5.318,5.3487,5.3796,5.4015,5.4173,5.434,5.434,5.4535,3.8556,3.9166,3.9795,4.008,4.0769,4.136,4.136,4.1989,4.2643,4.2902,4.3565,4.4185,4.4426,4.4048,4.4214,4.582,4.5624,4.5852,4.7461,4.842,4.9238,5.0021,5.0854,5.1647,5.2426,5.2498,5.2498,5.2498,5.2498,5.2498,5.2498,5.2498,5.2498,5.2498,5.2498,5.2498,5.2498,5.2498,5.2498,5.2498,5.2498,5.2498,5.2498,5.2498,5.2498,5.2498,5.2498,5.2498,5.2498,5.2498,5.2498,5.2498,5.2498,5.2498,5.2498,5.2498,5.2498,5.2498,5.2498,5.2498,5.2498,5.2498,5.2498,5.2498,5.2498,5.2498,5.2498,5.2498,5.2498,5.2498,5.2498,5.2498,5.2498,5.2498,5.2498,5.2498,5.2498,5.2753,5.2977,5.2977,5.3198,5.3407,5.3427,5.37,5.3999,5.4177,5.4451,5.4514,5.4332,5.3962,5.3682,5.3529,5.3222,5.298,5.2872,5.2747,5.2725,5.285,5.2667,5.2599,5.2658,5.2604,5.2831,5.3408,5.3428,5.3739,5.4313,5.433,5.4495,5.4791,5.4791,5.5009,3.9955,4.0152,4.0157,4.0828,4.1601,4.2195,4.2195,4.2965,4.3698,4.3774,4.396,4.4106,4.4185,4.3758,4.3922,4.5535,4.5508,4.5852,4.7461,4.8912,4.9854,5.0093,5.1339,5.2263,5.248,5.2498,5.2498,5.2498,5.2498,5.2498,5.2498,5.2498,5.2498,5.2498,5.2498,5.2498,5.2498,5.2498,5.2498,5.2498,5.2498,5.2498,5.2498,5.2498,5.2498,5.2498,5.2498,5.2498,5.2498,5.2498,5.2498,5.2498,5.2498,5.2498,5.2498,5.2498,5.2498,5.2498,5.2498,5.2498,5.2498,5.2498,5.2498,5.2498,5.2498,5.2498,5.2498,5.2498,5.2498,5.2498,5.2498,5.2498,5.2498,5.2498,5.2498,5.2498,5.2498,5.2567,5.2618,5.2618,5.3051,5.3487,5.3738,5.4054,5.4318,5.4484,5.4565,5.4514,5.4332,5.4177,5.398,5.3758,5.3606,5.3548,5.3608,5.3589,5.355,5.3468,5.3529,5.3511,5.343,5.3491,5.3608,5.3758,5.4014,5.4274,5.4516,5.4776,5.4855,5.4791,5.4791,5.4716,4.0139,4.0588,4.0885,4.1928,4.2776,4.3375,4.3375,4.3573,4.375,4.375,4.375,4.375,4.375,4.3601,4.3899,4.513,4.531,4.5743,4.7011,4.8858,5.0112,5.0112,5.1502,5.2498,5.2498,5.2498,5.2498,5.2498,5.2498,5.2498,5.2498,5.2498,5.2498,5.2498,5.2498,5.2498,5.2498,5.2498,5.2498,5.2498,5.2498,5.2498,5.2498,5.2498,5.2498,5.2498,5.2498,5.2498,5.2498,5.2498,5.2498,5.2498,5.2498,5.2498,5.2498,5.2498,5.2498,5.2498,5.2498,5.2498,5.2498,5.2498,5.2498,5.2498,5.2498,5.2498,5.2498,5.2498,5.2498,5.2498,5.2498,5.2498,5.2498,5.2498,5.2498,5.2498,5.2498,5.2498,5.2498,5.2498,5.2783,5.3072,5.3261,5.3563,5.3851,5.4033,5.4193,5.4317,5.4352,5.4282,5.4194,5.4051,5.3851,5.3758,5.3851,5.3814,5.3796,5.3814,5.3814,5.3832,5.3869,5.3887,5.3976,5.4118,5.4355,5.4597,5.4813,5.5019,5.508,5.5052,5.4976,5.4776,3.9761,4.0633,4.1475,4.2805,4.3651,4.4163,4.4163,4.3632,4.3125,4.3125,4.3125,4.3125,4.3125,4.3356,4.3806,4.4618,4.5058,4.558,4.6395,4.8478,4.9985,5.0093,5.1411,5.2371,5.248,5.2498,5.2498,5.2498,5.2498,5.2498,5.2498,5.2498,5.2498,5.2498,5.2498,5.2498,5.2498,5.2498,5.2498,5.2498,5.2498,5.2498,5.2498,5.2498,5.2498,5.2498,5.2498,5.2498,5.2498,5.2498,5.2498,5.2498,5.2625,5.2661,5.2661,5.277,5.2824,5.2824,5.2824,5.2824,5.277,5.257,5.2498,5.2498,5.2498,5.2498,5.2498,5.2498,5.2498,5.2498,5.2498,5.2498,5.2498,5.2498,5.2498,5.2498,5.2498,5.2498,5.2498,5.2498,5.2544,5.2585,5.2694,5.2992,5.3335,5.366,5.3996,5.4316,5.4623,5.445,5.4315,5.4349,5.4072,5.3926,5.3944,5.3833,5.3851,5.4069,5.3924,5.3961,5.4154,5.4083,5.417,5.446,5.4566,5.4769,5.5066,5.5066,5.5146,5.5246,5.5038,5.4806,3.9807,4.031,4.0826,4.1951,4.2323,4.2436,4.2436,4.2323,4.223,4.223,4.223,4.223,4.223,4.2486,4.2959,4.3789,4.4693,4.558,4.6395,4.8025,4.9347,5.0021,5.0923,5.1756,5.2426,5.2498,5.2498,5.2498,5.2498,5.2498,5.2498,5.2498,5.2498,5.2498,5.2498,5.2498,5.2498,5.2498,5.2498,5.2498,5.2498,5.2498,5.2498,5.2498,5.2498,5.2498,5.2498,5.2498,5.2498,5.2498,5.2498,5.257,5.3222,5.3494,5.3566,5.4237,5.449,5.449,5.449,5.449,5.4273,5.2933,5.2498,5.2498,5.2498,5.2498,5.2498,5.2498,5.2498,5.2498,5.2498,5.2498,5.2498,5.2498,5.2498,5.2498,5.2498,5.2498,5.2498,5.2498,5.2712,5.3113,5.3711,5.4087,5.4559,5.5265,5.5665,5.59,5.5958,5.5039,5.4422,5.4549,5.45,5.4517,5.4698,5.4698,5.4613,5.4498,5.4613,5.4629,5.453,5.4661,5.4757,5.4822,5.4852,5.4882,5.4927,5.4927,5.4773,5.4482,5.4173,5.387,3.9807,4.0247,4.0658,4.1726,4.2004,4.2004,4.2004,4.1685,4.1366,4.1366,4.1366,4.1366,4.1366,4.1731,4.2267,4.2957,4.4089,4.5122,4.5782,4.7606,4.9202,4.9981,5.0796,5.1611,5.2426,5.2498,5.2498,5.2498,5.2498,5.2498,5.2498,5.2498,5.2498,5.2498,5.2498,5.2498,5.2498,5.2498,5.2498,5.2498,5.2498,5.2498,5.2498,5.2498,5.2498,5.2516,5.2933,5.3114,5.315,5.3585,5.3748,5.3784,5.4182,5.4327,5.4381,5.4762,5.4907,5.4907,5.4907,5.4907,5.478,5.4001,5.3748,5.3748,5.3748,5.3748,5.3748,5.3748,5.3748,5.3748,5.3748,5.3748,5.3748,5.3748,5.3748,5.3748,5.3748,5.3748,5.3748,5.3748,5.3889,5.4095,5.4459,5.4652,5.492,5.5464,5.5675,5.5847,5.6031,5.5503,5.5305,5.5734,5.5804,5.5837,5.5939,5.5939,5.592,5.5899,5.5999,5.6028,5.6009,5.609,5.6125,5.605,5.5945,5.5845,5.5781,5.5609,5.5242,5.4722,5.4485,5.4013,3.9619,3.9987,4.0364,4.1271,4.1479,4.1441,4.1254,4.0722,4.0215,4.0046,4.0009,4.0009,4.0009,4.0595,4.1289,4.1881,4.3259,4.4491,4.5204,4.7083,4.8822,4.9967,5.0673,5.1411,5.2408,5.2498,5.2498,5.2498,5.2498,5.2498,5.2498,5.2498,5.2498,5.2498,5.2498,5.2498,5.2498,5.2498,5.2498,5.2498,5.2498,5.2498,5.2498,5.2679,5.2752,5.2806,5.3603,5.3965,5.4019,5.4653,5.4907,5.4925,5.507,5.5142,5.516,5.5341,5.5395,5.5395,5.5395,5.5395,5.5395,5.5395,5.5178,5.4907,5.4907,5.4907,5.4907,5.4907,5.4907,5.4907,5.4907,5.4907,5.4907,5.4907,5.4907,5.4907,5.4907,5.4907,5.4907,5.4907,5.4907,5.4961,5.5106,5.5142,5.5275,5.5668,5.5779,5.5921,5.6187,5.6295,5.6566,5.7155,5.6874,5.6687,5.6778,5.6724,5.6778,5.7039,5.6969,5.7001,5.7203,5.7219,5.7154,5.7056,5.6826,5.6647,5.6538,5.6193,5.576,5.5247,5.507,5.4556,3.8984,3.9161,3.9381,3.9746,3.9815,3.9608,3.8826,3.8582,3.8319,3.7598,3.7448,3.7448,3.7448,3.8526,3.9602,4.0136,4.2012,4.3853,4.5113,4.6124,4.7554,4.984,5.0184,5.0796,5.2353,5.2498,5.2498,5.2498,5.2498,5.2498,5.2498,5.2498,5.2498,5.2498,5.2498,5.2498,5.2498,5.2498,5.2498,5.2498,5.2498,5.2498,5.2516,5.3259,5.3585,5.3639,5.4454,5.4798,5.4798,5.487,5.4907,5.4979,5.5631,5.5884,5.5975,5.6717,5.6989,5.6989,5.6989,5.6989,5.6989,5.6989,5.6047,5.4907,5.4907,5.4907,5.4907,5.4907,5.4907,5.4907,5.4907,5.4907,5.4907,5.4907,5.4907,5.4907,5.4907,5.4907,5.4907,5.4907,5.4907,5.5106,5.5776,5.5884,5.6163,5.6912,5.7358,5.7572,5.7619,5.7898,5.8101,5.8166,5.6813,5.601,5.6329,5.6071,5.619,5.6887,5.6575,5.6538,5.6922,5.694,5.694,5.6922,5.6538,5.6349,5.6329,5.599,5.5787,5.5734,5.5412,5.5198,3.9073,3.9256,3.9458,3.9564,3.9214,3.8732,3.8375,3.7925,3.7493,3.7167,3.711,3.711,3.711,3.7946,3.8798,3.922,4.1243,4.3191,4.4407,4.5689,4.7391,4.9822,5.0112,5.0746,5.2335,5.2498,5.2498,5.2498,5.2498,5.2498,5.2498,5.2498,5.2498,5.2498,5.2498,5.2498,5.2498,5.2498,5.2498,5.2498,5.2987,5.3222,5.3241,5.4055,5.4418,5.4472,5.5233,5.5558,5.5595,5.6084,5.6283,5.6301,5.6609,5.6717,5.6754,5.708,5.7188,5.7188,5.7188,5.7188,5.7188,5.7188,5.6772,5.6283,5.6283,5.6283,5.6283,5.6283,5.6283,5.6283,5.6283,5.6283,5.6283,5.6283,5.6283,5.6283,5.6283,5.6283,5.6283,5.6283,5.6283,5.6373,5.6663,5.6717,5.6826,5.7152,5.7356,5.7455,5.7455,5.7559,5.7637,5.7637,5.7422,5.7343,5.7492,5.7386,5.7426,5.7736,5.7575,5.7575,5.7736,5.7935,5.8052,5.8052,5.7878,5.77,5.7513,5.7166,5.6617,5.5915,5.5793,5.5485,3.9224,3.9406,3.9589,3.9589,3.8939,3.8244,3.8,3.7324,3.6678,3.6415,3.6359,3.6359,3.6359,3.723,3.8041,3.8403,4.0456,4.254,4.3901,4.5273,4.7138,4.9785,5.0112,5.0746,5.2335,5.2498,5.2498,5.2498,5.2498,5.2498,5.2498,5.2498,5.2498,5.2498,5.2498,5.2498,5.2498,5.2498,5.2625,5.286,5.344,5.382,5.4092,5.487,5.5233,5.5269,5.6029,5.6337,5.6391,5.6971,5.7188,5.7188,5.7188,5.7188,5.7188,5.7188,5.7188,5.7188,5.7188,5.7188,5.7188,5.7188,5.7188,5.7188,5.7188,5.7188,5.7188,5.7188,5.7188,5.7188,5.7188,5.7188,5.7188,5.7188,5.7188,5.7188,5.7188,5.7188,5.7188,5.7188,5.7188,5.7188,5.7188,5.7188,5.7188,5.7188,5.7188,5.7188,5.7188,5.7188,5.7188,5.7188,5.766,5.801,5.8142,5.8033,5.8078,5.8297,5.8209,5.8209,5.8297,5.8537,5.8644,5.8644,5.8561,5.8388,5.8164,5.7797,5.7188,5.6337,5.6337,5.6084,3.9264,3.9406,3.9589,3.9589,3.8939,3.8094,3.7298,3.6479,3.5672,3.4789,3.4631,3.4631,3.4631,3.6002,3.723,3.7562,3.9626,4.1879,4.3828,4.4802,4.6504,4.9731,5.0112,5.0746,5.2335,5.2498,5.2498,5.2498,5.2498,5.2498,5.2498,5.2498,5.2498,5.2498,5.2498,5.2498,5.2498,5.2498,5.2896,5.3693,5.3693,5.4128,5.4907,5.5649,5.5975,5.6029,5.6826,5.7188,5.7188,5.7188,5.7188,5.7188,5.7188,5.7188,5.7188,5.7188,5.7188,5.7188,5.7188,5.7188,5.7188,5.7188,5.7188,5.7188,5.7188,5.7188,5.7188,5.7188,5.7188,5.7188,5.7188,5.7188,5.7188,5.7188,5.7188,5.7188,5.7188,5.7188,5.7188,5.7188,5.7188,5.7188,5.7188,5.7188,5.7188,5.7188,5.7188,5.7188,5.7188,5.7188,5.7188,5.7188,5.7206,5.7363,5.7768,5.7455,5.7516,5.8257,5.7983,5.7937,5.8297,5.8301,5.8319,5.8319,5.7983,5.7815,5.7792,5.7388,5.7188,5.7188,5.7188,5.717,3.7796,3.7833,3.7899,3.7899,3.7268,3.6592,3.6329,3.5615,3.4921,3.4669,3.4612,3.4612,3.4612,3.5965,3.7024,3.68,3.9272,4.1693,4.3066,4.444,4.6486,4.9731,5.1072,5.1937,5.2444,5.2498,5.2498,5.2498,5.2498,5.2498,5.2498,5.2498,5.2498,5.2498,5.2498,5.2498,5.2498,5.3041,5.344,5.3711,5.4762,5.5395,5.5667,5.6464,5.6808,5.6826,5.708,5.7188,5.7188,5.7188,5.7188,5.7188,5.7188,5.7188,5.7188,5.7188,5.7188,5.7188,5.7188,5.7188,5.7188,5.7188,5.7188,5.7188,5.7188,5.7188,5.7188,5.7188,5.7188,5.7188,5.7188,5.7188,5.7188,5.7188,5.7188,5.7188,5.7188,5.7188,5.7188,5.7188,5.7188,5.7188,5.7188,5.7188,5.7188,5.7188,5.7188,5.7188,5.7188,5.7188,5.7188,5.7188,5.7188,5.7239,5.7363,5.7264,5.7289,5.754,5.7437,5.7437,5.754,5.7821,5.7978,5.7978,5.8074,5.8029,5.7792,5.7673,5.748,5.7188,5.7188,5.7188,3.6922,3.711,3.711,3.711,3.6498,3.5897,3.5897,3.5221,3.4612,3.4612,3.4612,3.4695,3.5033,3.619,3.718,3.7418,3.9553,4.1744,4.3287,4.4536,4.6486,4.9731,5.1502,5.2498,5.2498,5.2498,5.2498,5.2498,5.2498,5.2452,5.234,5.2452,5.2405,5.2198,5.2387,5.2498,5.2498,5.3295,5.3791,5.3984,5.5347,5.6057,5.616,5.6768,5.7003,5.6899,5.7003,5.7054,0.0,5.7163,5.7188,5.7188,5.7188,5.7188,5.7188,5.7188,5.7188,5.7188,5.7188,5.7188,5.7188,5.7188,5.7188,5.7188,5.7188,5.7188,5.7188,5.7188,5.7188,5.7188,5.7188,5.7188,5.7188,5.7188,5.7188,5.7188,5.7188,5.7188,5.7188,5.7188,5.7188,5.7188,5.7188,5.7188,5.7188,5.7188,5.7188,5.7188,5.7188,5.7188,5.7188,5.7188,5.7188,5.7188,5.7188,5.7188,5.7188,5.7188,5.7188,5.7188,5.7188,5.7455,5.7577,5.7577,5.7779,5.7779,5.7577,5.7577,5.7437,5.7188,5.7188,5.7188,0.0,3.6922,3.6922,3.6922,3.6348,3.5803,3.5803,3.5184,0.0,3.4612,3.465,3.494,3.5747,3.6592,3.764,3.8976,4.0359,4.2032,4.4199,4.516,4.6757,4.9818,5.1538,5.2498,5.2452,5.2475,5.2475,5.2452,5.2475,5.234,5.2102,5.2317,5.2222,5.1715,5.2228,5.2524,5.2524,5.332,5.3977,5.4468,5.5512,5.6153,5.6401,5.6653,5.6653,5.6428,5.6662,5.6768,5.6821,5.7079,5.7163,5.7188,5.7188,5.7188,5.7188,5.7188,5.7188,5.7188,5.7188,5.7188,5.7188,5.7188,5.7188,5.7188,5.7188,5.7188,5.7188,5.7188,5.7188,5.7188,5.7188,5.7188,5.7188,5.7188,5.7188,5.7188,5.7188,5.7188,5.7188,5.7188,5.7188,5.7188,5.7188,5.7188,5.7188,5.7188,5.7188,5.7188,5.7188,5.7188,5.7188,5.7188,5.7188,5.7188,5.7188,5.7188,5.7188,5.7188,5.7188,5.7188,5.7188,5.7188,5.7188,5.7188,5.7188,5.7188,5.7188,5.7188,5.7188,5.7188,5.7188,5.7188,3.4902,0.0,3.5195,3.5195,3.5052,3.4902,0.0,3.4752,3.4612,3.4612,3.5127,3.5653,3.5859,3.7061,3.8284,3.9069,4.0841,4.2678,4.429,4.7068,4.939,5.0582,5.1767,5.234,5.1914,5.2269,5.2317,5.1914,5.2078,5.2078,5.1815,5.184,5.1815,5.169,5.2362,5.2716,5.2716,5.3529,5.4273,5.5017,5.5884,5.634,5.6401,5.6482,5.6465,5.6401,5.6465,5.6626,5.6794,5.6873,5.701,5.7188,5.7188,5.7188,5.7188,5.7188,5.7188,5.7188,5.7188,5.7188,5.7188,5.7188,5.7188,5.7188,5.7188,5.7188,5.7188,5.7188,5.7188,5.7188,5.7188,5.7188,5.7188,5.7188,5.7188,5.7188,5.7188,5.7188,5.7188,5.7188,5.7188,5.7188,5.7188,5.7188,5.7188,5.7188,5.7188,5.7188,5.7188,5.7188,5.7188,5.7188,5.7188,5.7188,5.7188,5.7188,5.7188,5.7188,5.7188,5.7188,5.7188,5.7188,5.7188,5.7188,5.7188,5.7188,5.7188,5.7188,5.7188,5.7188,5.7188,5.7188,3.4376,3.4612,3.4612,3.4612,3.4612,3.4612,3.4612,3.4902,3.5202,3.5202,3.5859,3.6554,3.693,3.7835,3.892,4.0109,4.1535,4.3251,4.5462,4.8285,5.0335,5.1012,5.1922,5.234,5.1914,5.215,5.215,5.174,5.184,5.179,5.1538,5.164,5.1589,5.135,5.2156,5.2677,5.2806,5.3974,5.4679,5.4989,5.5926,5.6245,5.5982,5.6106,5.6106,5.6011,5.629,5.6465,5.6653,5.6873,5.7079,5.7188,5.7188,5.7188,5.7188,5.7188,5.7188,5.7188,5.7188,5.7188,5.7188,5.7188,5.7188,5.7188,5.7188,5.7188,5.7188,5.7188,5.7188,5.7188,5.7188,5.7188,5.7188,5.7188,5.7188,5.7188,5.7188,5.7188,5.7188,5.7188,5.7188,5.7188,5.7188,5.7188,5.7188,5.7188,5.7188,5.7188,5.7188,5.7188,5.7188,5.7188,5.7188,5.7188,5.7188,5.7188,5.7188,5.7188,5.7188,5.7188,5.7188,5.7188,5.7188,5.7188,5.7188,5.7188,5.7188,5.7188,5.7188,5.7188,5.7188,5.7188,3.4339,3.4612,3.4612,3.4612,3.4612,3.462,3.4771,3.5371,3.5935,3.6066,3.6817,3.765,3.8265,3.8848,3.9818,4.1575,4.2755,4.4441,4.7288,4.9135,5.0493,5.1284,5.1948,5.2246,5.1938,5.1987,5.1914,5.1589,5.1615,5.1513,5.1246,5.1436,5.1412,5.1093,5.2004,5.2688,5.3033,5.4367,5.4987,5.4815,5.5786,5.5982,5.5507,5.5735,5.5706,5.5537,5.6039,5.63,5.6455,5.6899,5.713,5.7188,5.7188,5.7188,5.7188,5.7188,5.7188,5.7188,5.7188,5.7188,5.7188,5.7188,5.7188,5.7188,5.7188,5.7188,5.7188,5.7188,5.7188,5.7188,5.7188,5.7188,5.7188,5.7188,5.7188,5.7188,5.7188,5.7188,5.7188,5.7188,5.7188,5.7188,5.7188,5.7188,5.7188,5.7188,5.7188,5.7188,5.7188,5.7188,5.7188,5.7188,5.7188,5.7188,5.7188,5.7188,5.7188,5.7188,5.7188,5.7188,5.7188,5.7188,5.7188,5.7188,5.7188,5.7188,5.7188,5.7188,5.7188,5.7188,5.7188,5.7188,3.417,3.4612,3.4612,3.4612,3.4612,3.4789,3.5522,3.5803,3.6085,3.6791,3.8143,3.9114,3.879,4.0053,4.1568,4.2844,4.5425,4.7741,4.9149,5.0165,5.0982,5.1571,5.1743,5.1615,5.1141,5.1487,5.1564,5.1061,5.1246,5.1246,5.0972,5.0981,5.128,5.1821,5.2649,5.338,5.4042,5.4288,5.4763,5.5391,5.5555,5.5596,5.5507,5.5537,5.5537,5.5507,5.5596,5.5925,5.6401,5.6492,5.6794,5.7188,5.7188,5.7188,5.7188,5.7188,5.7188,5.7188,5.7188,5.7188,5.7188,5.7188,5.7188,5.7188,5.7188,5.7188,5.7188,5.7188,5.7188,5.7188,5.7188,5.7188,5.7188,5.7188,5.7188,5.7188,5.7188,5.7188,5.7188,5.7188,5.7188,5.7188,5.7188,5.7188,5.7188,5.7188,5.7188,5.7188,5.7188,5.7188,5.7188,5.7188,5.7188,5.7188,5.7188,5.7188,5.7188,5.7188,5.7188,5.7188,5.7188,5.7188,5.7188,5.7188,5.7188,5.7188,5.7188,5.7188,5.7188,5.7188,5.7188,5.7188,3.4132,3.4612,3.4674,3.4992,3.51,3.5271,3.6,3.6837,3.7601,3.8121,3.9543,4.07,4.0789,4.1654,4.2919,4.4581,4.6316,4.8029,4.968,5.036,5.0945,5.1626,5.169,5.1538,5.1141,5.135,5.1307,5.0945,5.1008,5.1034,5.0918,5.0891,5.1242,5.1969,5.2769,5.3541,5.4296,5.4735,5.5139,5.5507,5.5507,5.5507,5.5507,5.5507,5.5507,5.5507,5.5666,5.5879,5.6144,5.6346,5.6546,5.6768,5.6925,5.6959,5.7003,5.7156,5.7188,5.7188,5.7188,5.7188,5.7188,5.7188,5.7188,5.7188,5.7188,5.7188,5.7188,5.7188,5.7188,5.7188,5.7188,5.7188,5.7188,5.7188,5.7188,5.7188,5.7188,5.7188,5.7188,5.7188,5.7188,5.7188,5.7188,5.7188,5.7188,5.7188,5.7188,5.7188,5.7188,5.7188,5.7188,5.7188,5.7188,5.7188,5.7188,5.7188,5.7188,5.7188,5.7188,5.7188,5.7188,5.7188,5.7188,5.7188,5.7188,5.7188,5.7188,5.7188,5.7188,5.7188,5.7188,5.7188,3.4189,3.4752,3.5045,3.564,3.5702,3.582,3.669,3.7893,3.8929,3.9419,4.0804,4.2057,4.2441,4.3141,4.4275,4.6147,4.7033,4.8099,4.9945,5.0482,5.0913,5.1518,5.1538,5.1436,5.122,5.122,5.1114,5.0918,5.0891,5.0891,5.0891,5.0891,5.1312,5.226,5.2874,5.3629,5.4577,5.5209,5.5507,5.5507,5.5507,5.5507,5.5507,5.5507,5.5507,5.5507,5.5706,5.5833,5.5918,5.6189,5.6328,5.6428,5.6626,5.6689,5.6715,5.6951,5.7028,5.7028,5.7028,5.7036,5.7105,5.7028,5.7105,5.7206,5.713,5.7138,5.7188,5.7188,5.7188,5.7188,5.7188,5.7188,5.7188,5.7188,5.7188,5.7188,5.7188,5.7188,5.7188,5.7188,5.7188,5.7188,5.7188,5.7188,5.7188,5.7188,5.7188,5.7188,5.7188,5.7188,5.7188,5.7188,5.7188,5.7188,5.7188,5.7188,5.7188,5.7188,5.7188,5.7188,5.7188,5.7188,5.7188,5.7188,5.7188,5.7188,5.7188,5.7188,5.7188,5.7188,5.7188,5.7188,3.4358,3.5184,3.5934,3.6466,3.6228,3.6315,3.7971,3.8571,3.9128,4.0255,4.1774,4.285,4.2625,4.4258,4.5952,4.703,4.8291,4.9436,5.0334,5.0911,5.1254,5.1307,5.1114,5.0945,5.0945,5.0918,5.0918,5.0891,5.0891,5.0891,5.0891,5.0891,5.1575,5.3078,5.3183,5.3892,5.542,5.549,5.5507,5.5507,5.5507,5.5507,5.5507,5.5507,5.5507,5.5507,5.5507,5.5666,5.5918,5.5918,5.6116,5.6401,5.6428,5.6428,5.641,5.6437,5.6455,5.6455,5.6455,5.6626,5.6794,5.6546,5.6794,5.7138,5.6899,5.6984,5.7188,5.7188,5.7188,5.7188,5.7188,5.7188,5.7188,5.7188,5.7188,5.7188,5.7188,5.7188,5.7188,5.7188,5.7188,5.7188,5.7188,5.7188,5.7188,5.7188,5.7188,5.7188,5.7188,5.7188,5.7188,5.7188,5.7188,5.7188,5.7188,5.7188,5.7188,5.7188,5.7188,5.7188,5.7188,5.7188,5.7188,5.7188,5.7188,5.7188,5.7188,5.7188,5.7188,5.7188,5.7188,5.7188,3.5033,3.5437,3.5901,3.7787,3.8011,3.7988,3.886,3.9891,4.093,4.1904,4.2848,4.3928,4.5323,4.6239,4.7298,4.8781,4.9338,4.9833,5.0654,5.092,5.1034,5.1034,5.0972,5.0891,5.0891,5.0891,5.0891,5.0891,5.0891,5.0891,5.0891,5.1329,5.2084,5.3183,5.3629,5.4401,5.5507,5.5507,5.5507,5.5507,5.5507,5.5507,5.5507,5.5507,5.5507,5.5507,5.5507,5.5566,5.5666,5.5666,5.5724,5.5868,5.6021,5.6217,5.6401,5.6401,5.6401,5.6401,5.6401,5.6465,5.6546,5.641,5.6546,5.6715,5.6768,5.6873,5.7003,5.7138,5.7188,5.7188,5.7188,5.7188,5.7188,5.7188,5.7188,5.7188,5.7188,5.7188,5.7188,5.7188,5.7188,5.7188,5.7188,5.7188,5.7188,5.7188,5.7188,5.7188,5.7188,5.7188,5.7188,5.7188,5.7188,5.7188,5.7188,5.7188,5.7188,5.7188,5.7188,5.7188,5.7188,5.7188,5.7188,5.7188,5.7188,5.7188,5.7188,5.7188,5.7188,5.7188,5.7188,5.7188,3.5382,3.5901,3.6498,3.8484,3.9522,4.0028,3.9946,4.1089,4.2322,4.2814,4.3942,4.5375,4.7187,4.7791,4.8498,4.9965,4.9941,5.0013,5.0902,5.0945,5.0891,5.0891,5.0891,5.0891,5.0891,5.0891,5.0891,5.0891,5.0891,5.0891,5.0891,5.161,5.2365,5.3183,5.391,5.47,5.5507,5.5507,5.5507,5.5507,5.5507,5.5507,5.5507,5.5507,5.5507,5.5507,5.5507,5.5507,5.5507,5.5507,5.5507,5.5507,5.5706,5.5908,5.6123,5.6123,5.6123,5.6123,5.6123,5.6162,5.6217,5.6134,5.6235,5.641,5.6501,5.6582,5.6715,5.7003,5.7061,5.7087,5.7163,5.7188,5.7188,5.7188,5.7188,5.7188,5.7188,5.7188,5.7188,5.7188,5.7188,5.7188,5.7188,5.7188,5.7188,5.7188,5.7188,5.7188,5.7188,5.7188,5.7188,5.7188,5.7188,5.7188,5.7188,5.7188,5.7188,5.7188,5.7188,5.7188,5.7188,5.7188,5.7188,5.7188,5.7188,5.7188,5.7188,5.7188,5.7188,5.7188,5.7188,5.7188,3.5256,3.6612,3.7905,3.8392,4.0517,4.2237,4.1333,4.2117,4.2988,4.2864,4.5083,4.7183,4.7718,4.8626,4.9561,5.0388,5.0061,5.0066,5.1166,5.1061,5.0891,5.0891,5.0891,5.0891,5.0891,5.0891,5.0891,5.0891,5.0891,5.0891,5.0891,5.161,5.2383,5.3183,5.391,5.47,5.5507,5.5507,5.5507,5.5507,5.5507,5.5507,5.5507,5.5507,5.5507,5.5507,5.5507,5.5507,5.5507,5.5507,5.5507,5.5507,5.5507,5.5507,5.5507,5.5507,5.5507,5.5507,5.5507,5.5666,5.5861,5.5578,5.5897,5.6328,5.6003,5.6116,5.6437,5.6715,5.6794,5.6873,5.713,5.7188,5.7188,5.7188,5.7188,5.7188,5.7188,5.7206,5.7206,5.7188,5.7206,5.7206,5.7188,5.7188,5.7188,5.7188,5.7188,5.7188,5.7188,5.7188,5.7188,5.7188,5.7188,5.7188,5.7188,5.7188,5.7188,5.7188,5.7188,5.7188,5.7188,5.7188,5.7188,5.7188,5.7188,5.7188,5.7188,5.7188,5.7188,5.7188,5.7188,5.7188,3.6218,3.6501,3.7048,3.9777,4.0597,4.1107,4.249,4.3658,4.4834,4.6058,4.6985,4.8016,4.9428,4.9632,4.9981,5.1159,5.0892,5.0663,5.0972,5.0945,5.0891,5.0891,5.0891,5.0891,5.0891,5.0891,5.0891,5.0891,5.0891,5.0891,5.0891,5.2137,5.2944,5.3201,5.4454,5.5279,5.5507,5.5507,5.5507,5.5507,5.5507,5.5507,5.5507,5.5507,5.5507,5.5507,5.5507,5.5507,5.5507,5.5507,5.5507,5.5507,5.5507,5.5507,5.5507,5.5507,5.5507,5.5507,5.5507,5.5566,5.5625,5.5537,5.5625,5.5782,5.5861,5.5975,5.6116,5.6437,5.6635,5.6821,5.6899,5.7079,5.7188,5.7188,5.7188,5.7188,5.7188,5.7036,5.6959,5.7163,5.7054,5.6977,5.7181,5.7188,5.7188,5.7188,5.7188,5.7188,5.7188,5.7188,5.7188,5.7188,5.7188,5.7188,5.7188,5.7188,5.7188,5.7188,5.7188,5.7188,5.7188,5.7188,5.7188,5.7188,5.7188,5.7188,5.7188,5.7188,5.7188,5.7188,5.7188,5.7188,3.6254,3.6452,3.6944,3.9986,4.0601,4.116,4.3714,4.4696,4.5575,4.7303,4.7992,4.8668,4.9948,5.0265,5.0576,5.1262,5.1114,5.0891,5.0891,5.0891,5.0891,5.0891,5.0891,5.0891,5.0891,5.0891,5.0891,5.0891,5.0891,5.1031,5.1312,5.2506,5.3341,5.3612,5.4858,5.5507,5.5507,5.5507,5.5507,5.5507,5.5507,5.5507,5.5507,5.5507,5.5507,5.5507,5.5507,5.5507,5.5507,5.5507,5.5507,5.5507,5.5507,5.5507,5.5507,5.5507,5.5507,5.5507,5.5507,5.5507,5.5507,5.5507,5.5507,5.5537,5.5677,5.5735,5.5793,5.6106,5.631,5.6501,5.6742,5.6925,5.7079,5.7163,5.7188,5.7188,5.7188,5.7003,5.6847,5.7003,5.6821,5.6715,5.6984,5.7054,5.7079,5.7163,5.7188,5.7188,5.7188,5.7188,5.7188,5.7188,5.7188,5.7188,5.7188,5.7188,5.7188,5.7188,5.7188,5.7188,5.7188,5.7188,5.7188,5.7188,5.7188,5.7188,5.7188,5.7188,5.7188,5.7188,5.7188,5.7188,3.5685,3.6409,3.7208,3.9364,4.0685,4.2132,4.4746,4.527,4.5659,4.7325,4.8345,4.9127,4.9749,5.062,5.1193,5.0972,5.0918,5.0891,5.0891,5.0891,5.0891,5.0891,5.0891,5.0891,5.0891,5.0891,5.0891,5.0891,5.0891,5.1224,5.1951,5.2751,5.3524,5.4279,5.5086,5.5507,5.5507,5.5507,5.5507,5.5507,5.5507,5.5507,5.5507,5.5507,5.5507,5.5507,5.5507,5.5507,5.5507,5.5507,5.5507,5.5507,5.5507,5.5507,5.5507,5.5507,5.5507,5.5507,5.5507,5.5507,5.5507,5.5507,5.5507,5.5507,5.5507,5.5507,5.5566,5.5775,5.589,5.6032,5.6582,5.6742,5.6821,5.7105,5.7163,5.7188,5.7181,5.6951,5.6768,5.6768,5.6546,5.6437,5.6733,5.6768,5.6899,5.7163,5.7188,5.7188,5.7181,5.7163,5.7188,5.7181,5.7206,5.7188,5.7188,5.7188,5.7188,5.7188,5.7188,5.7188,5.7188,5.7188,5.7188,5.7188,5.7188,5.7188,5.7188,5.7188,5.7188,5.7188,5.7188,5.7188,3.5766,3.6164,3.6638,3.9244,4.1614,4.349,4.4108,4.5145,4.6639,4.9038,4.906,4.9168,5.0681,5.0982,5.1034,5.1193,5.1034,5.0891,5.0891,5.0891,5.0891,5.0891,5.0891,5.0891,5.0891,5.0891,5.0891,5.0891,5.0891,5.1224,5.1951,5.2751,5.3524,5.4279,5.5086,5.5507,5.5507,5.5507,5.5507,5.5507,5.5507,5.5507,5.5507,5.5507,5.5507,5.5507,5.5507,5.5507,5.5507,5.5507,5.5507,5.5507,5.5507,5.5507,5.5507,5.5507,5.5507,5.5507,5.5507,5.5507,5.5507,5.5507,5.5507,5.5507,5.5507,5.5507,5.5507,5.5566,5.5735,5.5947,5.6042,5.6282,5.6546,5.6821,5.7054,5.7138,5.6925,5.668,5.6492,5.6492,5.6245,5.6116,5.6437,5.668,5.6899,5.7163,5.7188,5.7112,5.6925,5.7079,5.7112,5.6899,5.7061,5.7188,5.7188,5.7188,5.7188,5.7188,5.7188,5.7188,5.7188,5.7188,5.7188,5.7188,5.7188,5.7188,5.7188,5.7188,5.7188,5.7188,5.7188,5.7188,3.52,3.5659,3.6291,3.8941,4.1519,4.3465,4.3816,4.4817,4.6369,4.8823,4.894,4.9117,5.0806,5.0981,5.0945,5.1088,5.0981,5.0891,5.0891,5.0891,5.0891,5.0891,5.0891,5.0891,5.0891,5.0891,5.0891,5.0891,5.0891,5.1382,5.2506,5.2962,5.3699,5.484,5.5297,5.5507,5.5507,5.5507,5.5507,5.5507,5.5507,5.5507,5.5507,5.5507,5.5507,5.5507,5.5507,5.5507,5.5507,5.5507,5.5507,5.5507,5.5507,5.5507,5.5507,5.5507,5.5507,5.5507,5.5507,5.5507,5.5507,5.5507,5.5507,5.5507,5.5507,5.5507,5.5507,5.5507,5.5607,5.5735,5.5861,5.6032,5.6245,5.6546,5.6821,5.6977,5.6821,5.66,5.6355,5.6189,5.5908,5.5793,5.6106,5.6501,5.6847,5.7003,5.7003,5.6951,5.6821,5.6794,5.6768,5.6626,5.6715,5.6821,5.6821,5.6821,5.6821,5.6821,5.6821,5.6873,5.6984,5.7003,5.7079,5.7206,5.7188,5.7188,5.7188,5.7188,5.7188,5.7188,5.7188,5.7188,3.4398,3.5309,3.6447,3.8828,4.1037,4.2879,4.3693,4.4518,4.5712,4.7889,4.8468,4.9065,5.061,5.0891,5.0891,5.0891,5.0891,5.0891,5.0891,5.0891,5.0891,5.0891,5.0891,5.0891,5.0891,5.0891,5.0891,5.0891,5.0891,5.1558,5.3131,5.3201,5.3892,5.5455,5.5507,5.5507,5.5507,5.5507,5.5507,5.5507,5.5507,5.5507,5.5507,5.5507,5.5507,5.5507,5.5507,5.5507,5.5507,5.5507,5.5507,5.5507,5.5507,5.5507,5.5507,5.5507,5.5507,5.5507,5.5507,5.5507,5.5507,5.5507,5.5507,5.5507,5.5507,5.5507,5.5507,5.5507,5.5507,5.5566,5.5764,5.5833,5.5918,5.6245,5.6474,5.6635,5.6635,5.6519,5.6273,5.5908,5.5666,5.5596,5.5861,5.632,5.6662,5.6715,5.6715,5.6715,5.6662,5.6492,5.6373,5.63,5.6373,5.6401,5.6401,5.6401,5.6401,5.6401,5.6401,5.6519,5.6794,5.6794,5.6925,5.7188,5.7188,5.7188,5.7188,5.7188,5.7188,5.7188,5.7188,5.7188,3.374,3.5775,3.7881,3.9428,4.0934,4.2335,4.3617,4.4518,4.5572,4.7204,4.8099,4.9065,5.061,5.0891,5.0891,5.0891,5.0891,5.0891,5.0891,5.0891,5.0891,5.0891,5.0891,5.0891,5.0891,5.0891,5.0891,5.0891,5.0891,5.1558,5.3131,5.3201,5.3892,5.5455,5.5507,5.5507,5.5507,5.5507,5.5507,5.5507,5.5507,5.5507,5.5507,5.5507,5.5507,5.5507,5.5507,5.5507,5.5507,5.5507,5.5507,5.5507,5.5507,5.5507,5.5507,5.5507,5.5507,5.5507,5.5507,5.5507,5.5507,5.5507,5.5507,5.5507,5.5507,5.5507,5.5507,5.5507,5.5507,5.5507,5.5537,5.5566,5.5607,5.589,5.6003,5.6014,5.6014,5.6217,5.6235,5.5666,5.5537,5.5596,5.5861,5.5975,5.6116,5.641,5.6437,5.6355,5.606,5.6245,5.6273,5.6003,5.6217,5.6401,5.6401,5.6401,5.6401,5.6401,5.6401,5.6519,5.6794,5.6794,5.6925,5.7188,5.7188,5.7188,5.7188,5.7188,5.7188,5.7188,5.7188,5.7188,3.46,3.6152,3.7629,3.9453,4.0506,4.1533,4.3107,4.3962,4.4869,4.6414,4.738,4.8398,4.9925,5.0592,5.0891,5.0891,5.0891,5.0891,5.0891,5.0891,5.0891,5.0891,5.0891,5.0891,5.0891,5.0891,5.0891,5.0891,5.0891,5.1558,5.3131,5.3201,5.3892,5.5455,5.5507,5.5507,5.5507,5.5507,5.5507,5.5507,5.5507,5.5507,5.5507,5.5507,5.5507,5.5507,5.5507,5.5507,5.5507,5.5507,5.5507,5.5507,5.5507,5.5507,5.5507,5.5507,5.5507,5.5507,5.5507,5.5507,5.5507,5.5507,5.5507,5.5507,5.5507,5.5507,5.5507,5.5507,5.5507,5.5507,5.5507,5.5507,5.5537,5.5666,5.5775,5.5861,5.5706,5.5908,5.5993,5.5596,5.5507,5.5537,5.5666,5.5804,5.5947,5.6088,5.6116,5.606,5.5918,5.5908,5.5839,5.5695,5.5811,5.5897,5.5897,5.5897,5.5897,5.5897,5.5897,5.6106,5.6573,5.6392,5.651,5.6977,5.6977,5.7054,5.7188,5.7054,5.7036,5.7188,5.7188,5.7188,3.4995,3.6153,3.7138,3.8977,3.9998,4.0931,4.2448,4.327,4.4114,4.5624,4.6555,4.7503,4.888,4.9925,5.0645,5.0855,5.0891,5.0891,5.0891,5.0891,5.0891,5.0891,5.0891,5.0891,5.0891,5.0891,5.0891,5.0891,5.0891,5.1558,5.3131,5.3201,5.3892,5.5455,5.5507,5.5507,5.5507,5.5507,5.5507,5.5507,5.5507,5.5507,5.5507,5.5507,5.5507,5.5507,5.5507,5.5507,5.5507,5.5507,5.5507,5.5507,5.5507,5.5507,5.5507,5.5507,5.5507,5.5507,5.5507,5.5507,5.5507,5.5507,5.5507,5.5507,5.5507,5.5507,5.5507,5.5507,5.5507,5.5507,5.5507,5.5507,5.5507,5.5507,5.5666,5.5764,5.5637,5.5724,5.5735,5.5537,5.5507,5.5507,5.5507,5.5666,5.5804,5.5804,5.5804,5.5804,5.5804,5.5637,5.5507,5.5507,5.5507,5.5507,5.5507,5.5507,5.5507,5.5507,5.5507,5.5724,5.6245,5.6032,5.6172,5.6707,5.6609,5.6697,5.7003,5.6873,5.6899,5.7105,5.7181,5.7188,3.3988,3.5522,3.6943,3.794,3.9404,4.0835,4.1742,4.2568,4.3527,4.4882,4.574,4.6512,4.7362,4.8731,4.9995,5.0768,5.0891,5.0891,5.0891,5.0891,5.0891,5.0891,5.0891,5.0891,5.0891,5.0891,5.0891,5.0891,5.0891,5.1558,5.3131,5.3201,5.3892,5.5455,5.5507,5.5507,5.5507,5.5507,5.5507,5.5507,5.5507,5.5507,5.5507,5.5507,5.5507,5.5507,5.5507,5.5507,5.5507,5.5507,5.5507,5.5507,5.5507,5.5507,5.5507,5.5507,5.5507,5.5507,5.5507,5.5507,5.5507,5.5507,5.5507,5.5507,5.5507,5.5507,5.5507,5.5507,5.5507,5.5507,5.5507,5.5507,5.5507,5.5507,5.5507,5.5578,5.5833,5.5677,5.5507,5.5507,5.5507,5.5507,5.5507,5.5507,5.5507,5.5507,5.5507,5.5507,5.5507,5.5507,5.5507,5.5507,5.5507,5.5507,5.5507,5.5507,5.5507,5.5507,5.5507,5.5637,5.5918,5.5918,5.606,5.641,5.6116,5.6116,5.6437,5.6662,5.6794,5.6821,5.7079,5.7188,3.3757,3.4624,3.5502,3.7786,3.8519,3.9156,4.0978,4.1771,4.2436,4.3412,4.422,4.5115,4.6372,4.7906,4.9188,4.9995,5.0145,5.0294,5.082,5.0891,5.0891,5.0891,5.0891,5.0891,5.0891,5.0891,5.0891,5.0891,5.0891,5.1347,5.2383,5.2909,5.3664,5.47,5.5244,5.5507,5.5507,5.5507,5.5507,5.5507,5.5507,5.5507,5.5507,5.5507,5.5507,5.5507,5.5507,5.5507,5.5507,5.5507,5.5507,5.5507,5.5507,5.5507,5.5507,5.5507,5.5507,5.5507,5.5507,5.5507,5.5507,5.5507,5.5507,5.5507,5.5507,5.5507,5.5507,5.5507,5.5507,5.5507,5.5507,5.5507,5.5507,5.5507,5.5507,5.5537,5.5637,5.5566,5.5507,5.5507,5.5507,5.5507,5.5507,5.5507,5.5507,5.5507,5.5507,5.5507,5.5507,5.5911,5.621,5.621,5.6666,5.6771,5.6245,5.621,5.5999,5.5543,5.5507,5.5607,5.589,5.5735,5.5764,5.606,5.5793,5.5879,5.6401,5.6492,5.6546,5.6546,5.6821,5.6847,3.2982,3.377,3.4609,3.6758,3.7604,3.8258,3.9578,4.0689,4.1603,4.2259,4.3009,4.3921,4.5179,4.6267,4.7485,4.903,4.9293,4.9574,5.0364,5.0487,5.0592,5.0855,5.0891,5.0891,5.0891,5.0891,5.0891,5.0891,5.0891,5.1224,5.1951,5.2751,5.3647,5.4682,5.5227,5.5507,5.5507,5.5507,5.5507,5.5507,5.5507,5.5507,5.5507,5.5507,5.5507,5.5507,5.5507,5.5507,5.5507,5.5507,5.5507,5.5507,5.5507,5.5507,5.5507,5.5507,5.5507,5.5507,5.5507,5.5507,5.5507,5.5507,5.5507,5.5507,5.5507,5.5507,5.5507,5.5507,5.5507,5.5507,5.5507,5.5507,5.5507,5.5507,5.5507,5.5507,5.5507,5.5507,5.5507,5.5507,5.5507,5.5507,5.5507,5.5507,5.5507,5.5507,5.5718,5.5876,5.5876,5.6526,5.7,5.7,5.7474,5.7579,5.7052,5.6754,5.6385,5.5911,5.5648,5.5578,5.5764,5.5578,5.5578,5.5764,5.5578,5.5713,5.6095,5.6189,5.6245,5.6245,5.6546,5.6573,0.0,0.0,0.0,3.4802,3.6647,3.8225,3.7632,3.9324,4.1113,4.1481,4.2201,4.2973,4.3728,4.3869,4.4852,4.7863,4.839,4.8731,4.9539,4.9688,4.9987,5.075,5.0855,5.0855,5.0891,5.0891,5.0891,5.0891,5.0891,5.1207,5.1944,5.2751,5.3892,5.5437,5.5507,5.5507,5.5507,5.5507,5.5507,5.5507,5.5507,5.5507,5.5507,5.5507,5.5507,5.5507,5.5507,5.5507,5.5507,5.5507,5.5507,5.5507,5.5507,5.5507,5.5507,5.5507,5.5507,5.5507,5.5507,5.5507,5.5507,5.5507,5.5507,5.5507,5.5507,5.5507,5.5507,5.5507,5.5507,5.5507,5.5507,5.5507,5.5507,5.5507,5.5507,5.5507,5.5507,5.5507,5.5507,5.5507,5.5507,5.5507,5.5507,5.5525,5.5543,5.5543,5.6157,5.6631,5.6631,5.7333,5.7842,5.7842,5.786,5.786,5.7842,5.7122,5.6648,5.6596,5.5929,5.5525,5.5507,5.5507,5.5507,5.5507,5.5507,5.5507,5.5507,5.5764,5.589,5.589,5.6217,5.6373,3.1427,0.0,0.0,0.0,0.0,0.0,3.7415,3.8114,3.8978,4.0668,4.1188,4.1709,4.2891,4.3114,4.357,4.4957,4.6116,4.7319,4.8714,4.8889,4.917,4.9952,5.0013,5.0241,5.0838,5.0891,5.0891,5.0891,5.0891,5.0978,5.1189,5.2453,5.3629,5.4612,5.5209,5.5507,5.5507,5.5507,5.5507,5.5507,5.5507,5.5507,5.5507,5.5507,5.5507,5.5507,5.5507,5.5507,5.5507,5.5507,5.5507,5.5507,5.5507,5.5507,5.5507,5.5507,5.5507,5.5507,5.5507,5.5507,5.5507,5.5507,5.5507,5.5507,5.5507,5.5507,5.5507,5.5507,5.5507,5.5507,5.5507,5.5507,5.5507,5.5507,5.5507,5.5507,5.5507,5.5507,5.5507,5.5507,5.5507,5.5507,5.5507,5.5946,5.6297,5.6297,5.6964,5.7474,5.7474,5.8176,5.8667,5.8667,5.9159,5.9247,5.872,5.8474,5.7842,5.6666,5.6403,5.6069,5.5525,5.5507,5.5507,5.5507,5.5507,5.5507,5.5507,5.5764,5.5804,5.5607,5.5695,5.5771,3.1262,3.147,3.1837,3.3382,0.0,0.0,3.6394,3.7113,3.7911,3.9355,3.9949,4.0525,4.1626,4.1832,4.2184,4.3272,4.4202,4.5442,4.7345,4.7608,4.8012,4.9065,4.9205,4.9521,5.0311,5.0382,5.0522,5.0855,5.0891,5.1031,5.1347,5.2523,5.3524,5.4279,5.5086,5.5507,5.5507,5.5507,5.5507,5.5507,5.5507,5.5507,5.5507,5.5507,5.5507,5.5507,5.5507,5.5507,5.5507,5.5507,5.5507,5.5507,5.5507,5.5507,5.5507,5.5507,5.5507,5.5507,5.5507,5.5507,5.5507,5.5507,5.5507,5.5507,5.5507,5.5507,5.5507,5.5507,5.5507,5.5507,5.5507,5.5507,5.5507,5.5507,5.5507,5.5507,5.5507,5.5507,5.5507,5.5507,5.5507,5.5613,5.5911,5.6315,5.6719,5.7052,5.779,5.8299,5.8299,5.8983,5.9457,5.9457,5.9843,5.9931,5.951,5.9194,5.8615,5.7667,5.6964,5.6403,5.5981,5.5665,5.5507,5.5507,5.5507,5.5507,5.5507,5.5666,5.5666,5.5507,5.5507,5.5507,3.1193,3.1389,3.1545,3.2168,3.3411,0.0,3.502,3.6185,3.7325,3.7831,3.8561,3.937,4.0162,4.0373,4.0883,4.2268,4.2527,4.3365,4.5617,4.5933,4.6495,4.7933,4.8179,4.8573,4.9363,4.9504,4.989,5.0697,5.0838,5.1189,5.1856,5.2628,5.3401,5.4156,5.4963,5.542,5.5507,5.5507,5.5507,5.5507,5.5507,5.5507,5.5507,5.5507,5.5507,5.5507,5.5507,5.5507,5.5507,5.5507,5.5507,5.5507,5.5507,5.5507,5.5507,5.5507,5.5507,5.5507,5.5507,5.5507,5.5507,5.5507,5.5507,5.5507,5.5507,5.5507,5.5507,5.5507,5.5507,5.5507,5.5507,5.5507,5.5507,5.5507,5.5507,5.5525,5.5613,5.563,5.5665,5.5753,5.5701,5.5859,5.6596,5.6806,5.7105,5.7825,5.8615,5.9124,5.9124,5.9685,6.0089,6.0089,6.0089,6.0089,6.0089,5.951,5.9106,5.9018,5.7667,5.6789,5.6613,5.5981,5.5595,5.5507,5.5507,5.5507,5.5507,5.5507,5.5507,5.5507,5.5507,5.5507,3.191,3.1902,3.2218,3.2958,3.3393,0.0,3.455,3.495,3.5483,3.6647,3.7524,3.8291,3.8922,3.9578,4.0131,4.0413,4.0819,4.1868,4.405,4.4343,4.4711,4.5659,4.6284,4.6951,4.7766,4.8398,4.9065,4.9855,5.0522,5.0943,5.1101,5.1839,5.2593,5.3383,5.4138,5.4858,5.5507,5.5507,5.5507,5.5507,5.5507,5.5507,5.5507,5.5507,5.5507,5.5507,5.5507,5.5507,5.5507,5.5507,5.5507,5.5507,5.5507,5.5507,5.5507,5.5507,5.5507,5.5507,5.5507,5.5507,5.5507,5.5507,5.5507,5.5507,5.5507,5.5507,5.5507,5.5507,5.5507,5.5507,5.5507,5.5507,5.5507,5.5507,5.5507,5.5665,5.6262,5.6385,5.6578,5.7228,5.6824,5.6648,5.7438,5.8105,5.8597,5.8755,5.9405,5.9879,5.9879,6.0001,6.0089,6.0089,6.0089,6.0089,6.0089,5.9966,5.9633,5.9053,5.872,5.7948,5.6648,5.6455,5.6122,5.5525,5.5507,5.5507,5.5507,5.5507,5.5507,5.5507,5.5507,5.5507,3.2724,3.2339,3.2288,3.2705,3.3103,0.0,0.0,3.4449,3.4745,3.5698,3.6219,3.672,3.738,3.8163,3.8822,3.9232,3.9787,4.0527,4.1603,4.2673,4.3641,4.4413,4.4834,4.5495,4.6695,4.7126,4.8012,4.9574,5.0066,5.0469,5.0873,5.161,5.2365,5.3183,5.391,5.4653,5.5336,5.5448,5.5448,5.5354,5.5431,5.5507,5.5507,5.5507,5.5507,5.5507,5.5507,5.5507,5.5507,5.5507,5.5507,5.5507,5.5507,5.5507,5.5507,5.5507,5.5507,5.5507,5.5507,5.5507,5.5507,5.5507,5.5507,5.5507,5.5507,5.5507,5.5507,5.5507,5.5507,5.5507,5.5507,5.5507,5.5595,5.5964,5.6052,5.6262,5.7035,5.7193,5.7438,5.8246,5.807,5.793,5.8334,5.8737,5.9124,5.9492,5.9861,6.0089,6.0089,6.0089,6.0089,6.0089,6.0089,6.0089,6.0089,6.0089,5.9931,5.958,5.9211,5.865,5.7842,5.7035,5.6245,5.5525,5.5507,5.5507,5.5507,5.5507,5.5507,5.5507,5.5507,5.5507,3.3888,3.3117,3.2564,3.2593,3.2987,3.3482,0.0,0.0,0.0,3.4751,3.4986,3.5272,3.5862,3.663,3.7292,3.7631,3.8427,3.8915,3.8614,4.0556,4.2326,4.3154,4.35,4.4185,4.5424,4.5933,4.6986,4.8872,4.946,4.9987,5.0627,5.1382,5.2155,5.2927,5.3699,5.4396,5.5032,5.5343,5.5431,5.5259,5.5431,5.5478,5.5431,5.5478,5.5478,5.5419,5.5448,5.5448,5.5401,5.5401,5.5419,5.5448,5.5478,5.5507,5.5507,5.5507,5.5507,5.5507,5.5507,5.5507,5.5507,5.5507,5.5507,5.5507,5.5507,5.5507,5.5507,5.5507,5.5507,5.5507,5.5507,5.5613,5.5859,5.6455,5.6719,5.7052,5.786,5.8035,5.8281,5.9071,5.9211,5.9211,5.9211,5.9211,5.9422,6.0001,6.0089,6.0089,6.0089,6.0089,6.0089,6.0089,6.0089,6.0089,6.0089,6.0089,6.0089,6.0089,5.9545,5.9159,5.9018,5.7456,5.6315,5.5736,5.5578,5.5507,5.5507,5.5507,5.5507,5.5507,5.5507,5.5507,3.597,3.4798,3.384,3.402,3.3599,3.3198,3.346,0.0,3.3511,3.3587,0.0,3.4692,3.478,0.0,0.0,3.4222,3.5668,3.6467,3.5087,3.7362,3.9605,4.0756,4.2078,4.2991,4.3184,4.5003,4.6302,4.6582,4.8521,4.9758,4.9846,5.0575,5.1365,5.2119,5.2909,5.3664,5.4408,5.5127,5.5478,5.5478,5.5478,5.5401,5.5229,5.5431,5.5341,5.5053,5.5169,5.5156,5.5053,5.5053,5.5126,5.5259,5.5431,5.5507,5.5507,5.5507,5.5507,5.5507,5.5507,5.5507,5.5507,5.5507,5.5507,5.5507,5.5507,5.5507,5.5507,5.5507,5.5507,5.5507,5.5507,5.5999,5.649,5.6578,5.714,5.7877,5.8702,5.886,5.9089,5.9826,5.9966,5.9966,5.9966,5.9966,6.0001,6.0089,6.0089,6.0089,6.0089,6.0089,6.0089,6.0089,6.0089,6.0089,6.0089,6.0089,6.0089,6.0089,6.0019,5.9685,5.9036,5.7456,5.6561,5.6473,5.5841,5.5507,5.5507,5.5507,5.5507,5.5507,5.5507,5.5507,3.7754,3.6752,3.5936,3.5558,3.52,3.4785,3.4081,3.3929,3.3815,3.3472,0.0,0.0,0.0,0.0,0.0,0.0,3.4436,3.5044,3.4379,3.5665,3.736,3.923,4.0732,4.1947,4.271,4.4062,4.5231,4.6126,4.7109,4.8257,4.9635,5.0039,5.075,5.1951,5.2769,5.353,5.4168,5.5062,5.5431,5.5324,5.5324,5.5277,5.5199,5.5204,5.5113,5.4992,5.5066,5.5035,5.4992,5.4992,5.5035,5.5096,5.5191,5.5312,5.5507,5.5507,5.5507,5.5507,5.5507,5.5507,5.5507,5.5507,5.5507,5.5507,5.5507,5.5507,5.5507,5.5507,5.5823,5.6139,5.6139,5.6719,5.7421,5.7877,5.8263,5.872,5.9475,5.9633,5.9721,6.0036,6.0089,6.0089,6.0089,6.0089,6.0089,6.0089,6.0089,6.0089,6.0089,6.0089,6.0089,6.0089,6.0089,6.0089,6.0089,6.0089,6.0089,6.0089,6.0089,5.9773,5.9036,5.8351,5.7561,5.6613,5.6297,5.5929,5.5507,5.5507,5.5507,5.5507,5.5507,5.5507,3.9582,3.8498,3.7551,3.7076,3.6649,3.6113,3.5254,3.4659,3.4189,3.3801,3.3511,0.0,0.0,0.0,3.3626,3.2373,0.0,3.3325,3.2874,3.3732,3.5289,3.7754,3.9288,4.0676,4.2048,4.2833,4.3904,4.5442,4.5968,4.7126,4.9258,4.9574,5.0311,5.1663,5.2453,5.3186,5.3842,5.4729,5.5173,5.5199,5.5199,5.5169,5.5096,5.5022,5.4961,5.4869,5.49,5.49,5.4869,5.4869,5.49,5.4948,5.4948,5.5131,5.5341,5.5341,5.5371,5.5431,5.5431,5.5431,5.5507,5.5507,5.5507,5.5507,5.5507,5.5507,5.556,5.5753,5.6192,5.6648,5.6877,5.7526,5.8281,5.886,5.9127,5.9313,5.9609,5.9748,5.9781,5.9681,5.9796,5.9928,6.0057,6.0089,6.0089,6.0089,6.0089,6.0089,6.0089,6.0089,6.0089,6.0089,6.0089,6.0089,6.0089,6.0089,6.0089,6.0089,6.0089,5.9861,5.9334,5.9124,5.8457,5.728,5.6824,5.6332,5.5806,5.5613,5.5507,5.5507,5.5507,5.5507,4.1499,3.9814,3.8159,3.8534,3.7487,3.6486,3.6841,3.5564,3.4348,3.454,3.3782,3.2928,3.235,3.242,3.1788,0.0,3.0368,0.0,0.0,3.0929,3.3316,3.6042,3.762,3.9037,4.0453,4.1236,4.2306,4.3851,4.5354,4.6881,4.8442,4.9276,5.0092,5.0908,5.1663,5.2418,5.3208,5.3963,5.463,5.5199,5.5199,5.5066,5.4811,5.493,5.4807,5.4543,5.4717,5.4686,5.4512,5.4512,5.4637,5.4828,5.4828,5.4886,5.5022,5.5022,5.5096,5.5199,5.5199,5.5354,5.5507,5.5507,5.5507,5.5507,5.5507,5.5507,5.5665,5.6368,5.6578,5.6771,5.7561,5.8369,5.8983,5.9001,5.94,5.958,5.8806,5.8841,5.8944,5.8686,5.9012,5.9467,6.0025,6.0089,6.0089,6.0089,6.0089,6.0089,6.0089,6.0089,6.0089,6.0089,6.0089,6.0089,6.0089,6.0089,6.0089,6.0089,6.0089,6.0089,6.0054,5.9387,5.8983,5.8931,5.7386,5.6578,5.6561,5.5859,5.5507,5.5507,5.5507,5.5507,4.3272,4.2184,4.1117,4.0722,3.9864,3.8943,3.8275,3.7238,3.6359,3.6224,3.5067,3.4024,3.3831,3.3415,0.0,0.0,0.0,0.0,0.0,3.0468,3.1634,3.2968,3.4995,0.0,0.0,3.9621,4.0727,4.2271,4.3816,4.5337,4.6898,4.8205,4.9276,5.0092,5.1347,5.24,5.3201,5.3928,5.4595,5.5199,5.5109,5.4961,5.4797,5.47,5.4606,5.4512,5.4575,5.4543,5.4512,5.4512,5.4543,5.4606,5.4606,5.4637,5.47,5.493,5.5022,5.5066,5.5066,5.5156,5.5306,5.5306,5.5383,5.5507,5.5507,5.5841,5.628,5.6526,5.7368,5.8263,5.8527,5.9159,5.9721,5.9721,5.9768,5.9565,5.8772,5.8582,5.8354,5.7732,5.7749,5.8125,5.896,5.9113,5.9331,5.9993,6.0089,6.0089,6.0089,6.0089,6.0089,6.0089,6.0089,6.0089,6.0089,6.0089,6.0089,6.0089,6.0089,6.0089,6.0089,5.9861,5.951,5.9018,5.8474,5.7667,5.6596,5.635,5.5981,5.5507,5.5507,5.5507,4.494,4.4185,4.3453,4.2753,4.1771,4.08,4.0119,3.8857,3.7772,3.7629,3.6298,3.5078,3.4839,3.398,3.2897,0.0,0.0,0.0,0.0,2.9569,3.0071,3.0973,0.0,0.0,0.0,0.0,3.9761,4.1885,4.3184,0.0,4.6126,4.7653,4.8872,4.9688,5.0943,5.2119,5.3201,5.3589,5.4244,5.5109,5.4992,5.4855,5.4686,5.4543,5.4512,5.4512,5.4512,5.4512,5.4512,5.4512,5.4512,5.4512,5.4512,5.4512,5.4543,5.4745,5.4886,5.4948,5.4992,5.5096,5.5199,5.5199,5.5217,5.5226,5.5331,5.5688,5.613,5.6669,5.7701,5.8765,5.919,5.9706,6.0089,6.0089,5.9896,5.9417,5.8302,5.7982,5.7656,5.6728,5.6706,5.7085,5.7929,5.8072,5.8512,5.9893,6.0089,6.0089,6.0089,6.0089,6.0089,6.0089,6.0089,6.0089,6.0089,6.0089,6.0089,6.0089,6.0089,6.0089,6.0089,6.0089,5.9879,5.9405,5.9141,5.838,5.7126,5.6615,5.6016,5.5313,5.5035,5.4944]}]]